[[{"header":{"parameterUnit":"m.s-1","parameterCategory":1,"la1":30.6,"la2":28.766,"lo1":-90.7593,"lo2":-88.6598,"dy":0.0162,"dx":0.0183,"nx":116,"ny":114,"refTime":"2023-09-04T00:00:00:Z","depth":0,"parameterNumber":2,"parameterNumberName":"U-component_of_WINDS"},"data":[0.0,0.0,0.0,0.0,0.0,0.0,0.0,0.0,0.0,0.0,0.0,0.0,0.0,0.0,0.0,0.0,0.0,0.0,0.0,0.0,0.0,0.0,0.0,0.0,0.0,0.0,0.0,0.0,0.0,0.0,0.0,0.0,0.0,0.0,0.0,0.0,0.0,0.0,0.0,0.0,0.0,0.0,0.0,0.0,0.0,0.0,0.0,0.0,0.0,0.0,0.0,0.0,0.0,0.0,0.0,0.0,0.0,0.0,0.0,0.0,0.0,0.0,0.0,0.0,0.0,0.0,0.0,0.0,0.0,0.0,0.0,0.0,0.0,0.0,0.0,0.0,0.0,0.0,0.0,0.0,0.0,0.0,0.0,0.0,0.0,0.0,0.0,0.0,0.0,0.0,0.0,0.0,0.0,0.0,0.0,0.0,0.0,0.0,0.0,0.0,0.0,0.0,0.0,0.0,0.0,0.0,0.0,0.0,0.0,0.0,0.0,0.0,0.0,0.0,0.0,0.0,0.0,0.0,0.0,0.0,0.0,0.0,0.0,0.0,0.0,0.0,0.0,0.0,0.0,0.0,0.0,0.0,0.0,0.0,0.0,0.0,0.0,0.0,0.0,0.0,0.0,0.0,0.0,0.0,0.0,0.0,0.0,0.0,0.0,0.0,0.0,0.0,0.0,0.0,0.0,0.0,0.0,0.0,0.0,0.0,0.0,0.0,0.0,0.0,0.0,0.0,0.0,0.0,0.0,0.0,0.0,0.0,0.0,0.0,0.0,0.0,0.0,0.0,0.0,0.0,0.0,0.0,0.0,0.0,0.0,0.0,0.0,0.0,0.0,0.0,0.0,0.0,0.0,0.0,0.0,0.0,0.0,0.0,0.0,0.0,0.0,0.0,0.0,0.0,0.0,0.0,0.0,0.0,0.0,0.0,0.0,0.0,0.0,0.0,0.0,0.0,0.0,0.0,0.0,0.0,0.0,0.0,0.0,0.0,0.0,0.0,0.0,0.0,0.0,0.0,0.0,0.0,0.0,0.0,0.0,0.0,0.0,0.0,0.0,0.0,0.0,0.0,0.0,0.0,0.0,0.0,0.0,0.0,0.0,0.0,0.0,0.0,0.0,0.0,0.0,0.0,0.0,0.0,0.0,0.0,0.0,0.0,0.0,0.0,0.0,0.0,0.0,0.0,0.0,0.0,0.0,0.0,0.0,0.0,0.0,0.0,0.0,0.0,0.0,0.0,0.0,0.0,0.0,0.0,0.0,0.0,0.0,0.0,0.0,0.0,0.0,0.0,0.0,0.0,0.0,0.0,0.0,0.0,0.0,0.0,0.0,0.0,0.0,0.0,0.0,0.0,0.0,0.0,0.0,0.0,0.0,0.0,0.0,0.0,0.0,0.0,0.0,0.0,0.0,0.0,0.0,0.0,0.0,0.0,0.0,0.0,0.0,0.0,0.0,0.0,0.0,0.0,0.0,0.0,0.0,0.0,0.0,0.0,0.0,0.0,0.0,0.0,0.0,0.0,0.0,0.0,0.0,0.0,0.0,0.0,0.0,0.0,0.0,0.0,0.0,0.0,0.0,0.0,0.0,0.0,0.0,0.0,0.0,0.0,0.0,0.0,0.0,0.0,0.0,0.0,0.0,0.0,0.0,0.0,0.0,0.0,0.0,0.0,0.0,0.0,0.0,0.0,0.0,0.0,0.0,0.0,0.0,0.0,0.0,0.0,0.0,0.0,0.0,0.0,0.0,0.0,0.0,0.0,0.0,0.0,0.0,0.0,0.0,0.0,0.0,0.0,0.0,0.0,0.0,0.0,0.0,0.0,0.0,0.0,0.0,0.0,0.0,0.0,0.0,0.0,0.0,0.0,0.0,0.0,0.0,0.0,0.0,0.0,0.0,0.0,0.0,0.0,0.0,0.0,0.0,0.0,0.0,0.0,0.0,0.0,0.0,0.0,0.0,0.0,0.0,0.0,0.0,0.0,0.0,0.0,0.0,0.0,0.0,0.0,0.0,0.0,0.0,0.0,0.0,0.0,0.0,0.0,0.0,0.0,0.0,0.0,0.0,0.0,0.0,0.0,0.0,0.0,0.0,0.0,0.0,0.0,0.0,0.0,0.0,0.0,0.0,0.0,0.0,0.0,0.0,0.0,0.0,0.0,0.0,0.0,0.0,0.0,0.0,0.0,0.0,0.0,0.0,0.0,0.0,0.0,0.0,0.0,0.0,0.0,0.0,0.0,0.0,0.0,0.0,0.0,0.0,0.0,0.0,0.0,0.0,0.0,0.0,0.0,0.0,0.0,0.0,0.0,0.0,0.0,0.0,0.0,0.0,0.0,0.0,0.0,0.0,0.0,0.0,0.0,0.0,0.0,0.0,0.0,0.0,0.0,0.0,0.0,0.0,0.0,0.0,0.0,0.0,0.0,0.0,0.0,0.0,0.0,0.0,0.0,0.0,0.0,0.0,0.0,0.0,0.0,0.0,0.0,0.0,0.0,0.0,0.0,0.0,0.0,0.0,0.0,0.0,0.0,0.0,0.0,0.0,0.0,0.0,0.0,0.0,0.0,0.0,0.0,0.0,0.0,0.0,0.0,0.0,0.0,0.0,0.0,0.0,0.0,0.0,0.0,0.0,0.0,0.0,0.0,0.0,0.0,0.0,0.0,0.0,0.0,0.0,0.0,0.0,0.0,0.0,0.0,0.0,0.0,0.0,0.0,0.0,0.0,0.0,0.0,0.0,0.0,0.0,0.0,0.0,0.0,0.0,0.0,0.0,0.0,0.0,0.0,0.0,0.0,0.0,0.0,0.0,0.0,0.0,0.0,0.0,0.0,0.0,0.0,0.0,0.0,0.0,0.0,0.0,0.0,0.0,0.0,0.0,0.0,0.0,0.0,0.0,0.0,0.0,0.0,0.0,0.0,0.0,0.0,0.0,0.0,0.0,0.0,0.0,0.0,0.0,0.0,0.0,0.0,0.0,0.0,0.0,0.0,0.0,0.0,0.0,0.0,0.0,0.0,0.0,0.0,0.0,0.0,0.0,0.0,0.0,0.0,0.0,0.0,0.0,0.0,0.0,0.0,0.0,0.0,0.0,0.0,0.0,0.0,0.0,0.0,0.0,0.0,0.0,0.0,0.0,0.0,0.0,0.0,0.0,0.0,0.0,0.0,0.0,0.0,0.0,0.0,0.0,0.0,0.0,0.0,0.0,0.0,0.0,0.0,0.0,0.0,0.0,0.0,0.0,0.0,0.0,0.0,0.0,0.0,0.0,0.0,0.0,0.0,0.0,0.0,0.0,0.0,0.0,0.0,0.0,0.0,0.0,0.0,0.0,0.0,0.0,0.0,0.0,0.0,0.0,0.0,0.0,0.0,0.0,0.0,0.0,0.0,0.0,0.0,0.0,0.0,0.0,0.0,0.0,0.0,0.0,0.0,0.0,0.0,0.0,0.0,0.0,0.0,0.0,0.0,0.0,0.0,0.0,0.0,0.0,0.0,0.0,0.0,0.0,0.0,0.0,0.0,0.0,0.0,0.0,0.0,0.0,0.0,0.0,0.0,0.0,0.0,0.0,0.0,0.0,0.0,0.0,0.0,0.0,0.0,0.0,0.0,0.0,0.0,0.0,0.0,0.0,0.0,0.0,0.0,0.0,0.0,0.0,0.0,0.0,0.0,0.0,0.0,0.0,0.0,0.0,0.0,0.0,0.0,0.0,0.0,0.0,0.0,0.0,0.0,0.0,0.0,0.0,0.0,0.0,0.0,0.0,0.0,0.0,0.0,0.0,0.0,0.0,0.0,0.0,0.0,0.0,0.0,0.0,0.0,0.0,0.0,0.0,0.0,0.0,0.0,0.0,0.0,0.0,0.0,0.0,0.0,0.0,0.0,0.0,0.0,0.0,0.0,0.0,0.0,0.0,0.0,0.0,0.0,0.0,0.0,0.0,0.0,0.0,0.0,0.0,0.0,0.0,0.0,0.0,0.0,0.0,0.0,0.0,0.0,0.0,0.0,0.0,0.0,0.0,0.0,0.0,0.0,0.0,0.0,0.0,0.0,0.0,0.0,0.0,0.0,0.0,0.0,0.0,0.0,0.0,0.0,0.0,0.0,0.0,0.0,0.0,0.0,0.0,0.0,0.0,0.0,0.0,0.0,0.0,0.0,0.0,0.0,0.0,0.0,0.0,0.0,0.0,0.0,0.0,0.0,0.0,0.0,0.0,0.0,0.0,0.0,0.0,0.0,0.0,0.0,0.0,0.0,0.0,0.0,0.0,0.0,0.0,0.0,0.0,0.0,0.0,0.0,0.0,0.0,0.0,0.0,0.0,0.0,0.0,0.0,0.0,0.0,0.0,0.0,0.0,0.0,0.0,0.0,0.0,0.0,0.0,0.0,0.0,0.0,0.0,0.0,0.0,0.0,0.0,0.0,0.0,0.0,0.0,0.0,0.0,0.0,0.0,0.0,0.0,0.0,0.0,0.0,0.0,0.0,0.0,0.0,0.0,0.0,0.0,0.0,0.0,0.0,0.0,0.0,0.0,0.0,0.0,0.0,0.0,0.0,0.0,0.0,0.0,0.0,0.0,0.0,0.0,0.0,0.0,0.0,0.0,0.0,0.0,0.0,0.0,0.0,0.0,0.0,0.0,0.0,0.0,0.0,0.0,0.0,0.0,0.0,0.0,0.0,0.0,0.0,0.0,0.0,0.0,0.0,0.0,0.0,0.0,0.0,0.0,0.0,0.0,0.0,0.0,0.0,0.0,0.0,0.0,0.0,0.0,0.0,0.0,0.0,0.0,0.0,0.0,0.0,0.0,0.0,0.0,0.0,0.0,0.0,0.0,0.0,0.0,0.0,0.0,0.0,0.0,0.0,0.0,0.0,0.0,0.0,0.0,0.0,0.0,0.0,0.0,0.0,0.0,0.0,0.0,0.0,0.0,0.0,0.0,0.0,0.0,0.0,0.0,0.0,0.0,0.0,0.0,0.0,0.0,0.0,0.0,0.0,0.0,0.0,0.0,0.0,0.0,0.0,0.0,0.0,0.0,0.0,0.0,0.0,0.0,0.0,0.0,0.0,0.0,0.0,0.0,0.0,0.0,0.0,0.0,0.0,0.0,0.0,0.0,0.0,0.0,0.0,0.0,0.0,0.0,0.0,0.0,0.0,0.0,0.0,0.0,0.0,0.0,0.0,0.0,0.0,0.0,0.0,0.0,0.0,0.0,0.0,0.0,0.0,0.0,0.0,0.0,0.0,0.0,0.0,0.0,0.0,0.0,0.0,0.0,0.0,0.0,0.0,0.0,0.0,0.0,0.0,0.0,0.0,0.0,0.0,0.0,0.0,0.0,0.0,0.0,0.0,0.0,0.0,0.0,0.0,0.0,0.0,0.0,0.0,0.0,0.0,0.0,0.0,0.0,0.0,0.0,0.0,0.0,0.0,0.0,0.0,0.0,0.0,0.0,0.0,0.0,0.0,0.0,0.0,0.0,0.0,0.0,0.0,0.0,0.0,0.0,0.0,0.0,0.0,0.0,0.0,0.0,0.0,0.0,0.0,0.0,0.0,0.0,0.0,0.0,0.0,0.0,0.0,0.0,0.0,0.0,0.0,0.0,0.0,0.0,0.0,0.0,0.0,0.0,0.0,0.0,0.0,0.0,0.0,0.0,0.0,0.0,0.0,0.0,0.0,0.0,0.0,0.0,0.0,0.0,0.0,0.0,0.0,0.0,0.0,0.0,0.0,0.0,0.0,0.0,0.0,0.0,0.0,0.0,0.0,0.0,0.0,0.0,0.0,0.0,0.0,0.0,0.0,0.0,0.0,0.0,0.0,0.0,0.0,0.0,0.0,0.0,0.0,0.0,0.0,0.0,0.0,0.0,0.0,0.0,0.0,0.0,0.0,0.0,0.0,0.0,0.0,0.0,0.0,0.0,0.0,0.0,0.0,0.0,0.0,0.0,0.0,0.0,0.0,0.0,0.0,0.0,0.0,0.0,0.0,0.0,0.0,0.0,0.0,0.0,0.0,0.0,0.0,0.0,0.0,0.0,0.0,0.0,0.0,0.0,0.0,0.0,0.0,0.0,0.0,0.0,0.0,0.0,0.0,0.0,0.0,2.6484,2.626,0.0,0.0,0.0,0.0,0.0,0.0,0.0,0.0,0.0,0.0,0.0,0.0,0.0,0.0,0.0,0.0,0.0,0.0,0.0,0.0,0.0,0.0,0.0,0.0,0.0,0.0,0.0,0.0,0.0,0.0,0.0,0.0,0.0,0.0,0.0,0.0,0.0,0.0,2.297,2.2989,2.3192,2.2815,2.2929,2.3397,0.0,0.0,0.0,0.0,0.0,0.0,0.0,0.0,0.0,0.0,0.0,0.0,0.0,0.0,0.0,0.0,0.0,0.0,0.0,0.0,0.0,0.0,0.0,0.0,0.0,0.0,0.0,0.0,0.0,0.0,0.0,0.0,0.0,0.0,0.0,0.0,0.0,0.0,0.0,0.0,0.0,0.0,0.0,0.0,0.0,0.0,0.0,0.0,0.0,0.0,0.0,0.0,0.0,0.0,0.0,0.0,0.0,0.0,0.0,0.0,0.0,0.0,0.0,0.0,0.0,0.0,0.0,0.0,0.0,0.0,2.7085,2.6972,0.0,0.0,0.0,0.0,0.0,0.0,0.0,0.0,0.0,0.0,0.0,0.0,0.0,0.0,0.0,0.0,0.0,0.0,0.0,0.0,0.0,0.0,0.0,0.0,2.1306,2.2113,2.2055,0.0,0.0,0.0,0.0,0.0,0.0,0.0,0.0,0.0,0.0,2.3095,2.3015,2.3185,2.3608,2.3745,2.395,2.4268,2.4201,0.0,0.0,0.0,0.0,0.0,0.0,0.0,0.0,0.0,0.0,0.0,0.0,0.0,0.0,0.0,0.0,0.0,0.0,0.0,0.0,0.0,0.0,0.0,0.0,0.0,0.0,0.0,0.0,0.0,0.0,0.0,0.0,0.0,0.0,0.0,0.0,0.0,0.0,0.0,0.0,0.0,0.0,0.0,0.0,0.0,0.0,0.0,0.0,0.0,0.0,0.0,0.0,0.0,0.0,0.0,0.0,0.0,0.0,0.0,0.0,0.0,0.0,0.0,2.7586,2.7608,2.754,2.7737,2.7822,2.7908,2.813,2.8086,2.7923,2.819,0.0,0.0,0.0,0.0,0.0,0.0,0.0,0.0,0.0,0.0,0.0,0.0,0.0,0.0,0.0,0.0,0.0,0.0,0.0,0.0,0.0,2.1766,2.2066,2.281,2.274,2.2938,0.0,0.0,0.0,0.0,0.0,0.0,0.0,2.3336,2.3241,2.3095,2.3484,2.3646,2.3625,2.4308,2.5017,2.5725,2.5651,2.5675,2.5811,0.0,0.0,0.0,0.0,0.0,0.0,0.0,0.0,0.0,0.0,0.0,0.0,0.0,0.0,0.0,0.0,0.0,0.0,0.0,0.0,0.0,0.0,0.0,0.0,0.0,0.0,0.0,0.0,0.0,0.0,0.0,0.0,0.0,0.0,0.0,0.0,0.0,0.0,0.0,0.0,0.0,2.7135,2.7135,0.0,0.0,0.0,0.0,0.0,0.0,0.0,0.0,0.0,0.0,0.0,0.0,0.0,2.7833,2.7705,2.7515,2.7448,2.7406,2.7998,2.8227,2.8128,2.8793,2.9323,2.9816,2.9863,0.0,2.7582,2.781,0.0,0.0,0.0,0.0,0.0,0.0,0.0,0.0,0.0,0.0,0.0,0.0,0.0,0.0,0.0,0.0,0.0,0.0,0.0,0.0,0.0,2.2602,2.2865,2.3621,2.3601,2.3651,2.3939,0.0,0.0,0.0,0.0,2.3652,2.3517,2.3898,2.4155,2.4349,2.4465,2.4706,2.5004,2.5365,2.5945,2.6668,2.6653,2.6576,2.6531,2.6822,0.0,0.0,0.0,0.0,0.0,0.0,0.0,0.0,0.0,0.0,0.0,0.0,0.0,0.0,0.0,0.0,0.0,0.0,0.0,0.0,0.0,0.0,0.0,0.0,0.0,0.0,0.0,0.0,0.0,0.0,0.0,0.0,0.0,0.0,0.0,0.0,0.0,0.0,0.0,2.7215,2.7135,2.7201,2.7562,2.7853,0.0,0.0,0.0,0.0,0.0,0.0,0.0,0.0,0.0,2.9015,2.9149,2.9251,2.9267,2.9595,2.9667,2.9545,2.9831,2.9927,2.9895,3.0196,3.0513,3.0765,3.0765,3.0291,2.9451,2.9355,2.92,2.903,0.0,0.0,0.0,0.0,2.9022,2.899,0.0,0.0,0.0,0.0,0.0,0.0,0.0,0.0,0.0,0.0,0.0,0.0,2.3432,2.3435,2.3603,2.4135,2.4132,2.4074,2.3996,2.3937,0.0,0.0,0.0,2.405,2.3939,2.4635,2.5159,2.5419,2.5474,2.5773,2.6224,2.6415,2.6814,2.7338,2.7338,2.723,2.704,2.704,2.6842,2.6537,0.0,0.0,0.0,0.0,0.0,0.0,0.0,0.0,0.0,0.0,0.0,0.0,0.0,0.0,0.0,0.0,0.0,0.0,0.0,0.0,0.0,0.0,0.0,0.0,0.0,0.0,0.0,0.0,0.0,0.0,0.0,0.0,0.0,0.0,0.0,0.0,0.0,2.7388,2.7444,2.7543,2.8197,2.8678,0.0,0.0,0.0,0.0,0.0,0.0,3.0029,2.9803,2.9833,3.0269,3.0596,3.0815,3.0876,3.1405,3.1534,3.1306,3.1257,3.1351,3.1526,3.1492,3.1681,3.1997,3.1997,3.1911,3.1746,3.1006,3.0401,3.0046,3.0196,3.0135,2.9936,3.0028,2.9751,2.9375,0.0,0.0,0.0,0.0,0.0,0.0,0.0,0.0,0.0,0.0,0.0,2.4332,2.4265,2.4247,2.4192,2.4113,2.4094,2.4074,2.3996,2.3996,2.3976,2.3896,2.4559,2.4914,2.4847,2.5488,2.5786,2.5693,2.6294,2.6609,2.6578,2.7297,2.7636,2.7654,2.7654,2.7461,2.7103,2.7103,2.6923,2.6691,2.6691,0.0,0.0,0.0,0.0,0.0,0.0,0.0,0.0,0.0,0.0,0.0,0.0,0.0,0.0,0.0,0.0,0.0,0.0,0.0,0.0,0.0,0.0,0.0,0.0,0.0,0.0,0.0,0.0,0.0,0.0,0.0,0.0,0.0,0.0,0.0,0.0,0.0,0.0,2.8252,2.8905,0.0,0.0,0.0,0.0,3.0398,3.045,3.0991,3.2264,3.2073,3.2186,3.2734,3.2463,3.2177,3.1915,3.1853,3.1726,3.1582,3.1453,3.1754,3.2406,3.232,3.2914,3.413,3.413,3.4053,3.3818,3.1946,3.1045,3.0914,3.1016,3.095,3.0817,3.0717,3.0463,3.0207,0.0,0.0,0.0,0.0,0.0,0.0,0.0,0.0,2.4663,2.4631,2.4599,2.4497,2.4321,2.4284,2.4247,2.4113,2.4151,2.4371,2.4805,2.4882,2.5082,2.5552,2.5841,2.6136,2.6506,2.6669,2.6956,2.7353,2.7584,2.7654,2.7627,2.7893,2.8007,2.7968,2.7968,2.7806,2.7552,2.7417,2.7184,2.6892,2.6808,2.6624,0.0,0.0,0.0,0.0,0.0,0.0,0.0,0.0,0.0,0.0,0.0,0.0,0.0,0.0,0.0,0.0,0.0,0.0,0.0,0.0,0.0,0.0,0.0,0.0,0.0,0.0,0.0,0.0,0.0,0.0,0.0,0.0,0.0,0.0,0.0,0.0,0.0,2.9042,2.9713,0.0,3.0265,3.1127,3.178,3.196,3.2329,3.2764,3.3182,3.3009,3.2899,3.3004,3.3669,3.3886,3.3631,3.4313,3.463,3.4474,3.4213,3.4234,3.4489,3.4381,3.4541,3.4999,3.4857,3.476,3.4544,3.3755,3.2663,3.1467,3.0963,3.0705,3.0552,3.0381,3.0188,2.994,0.0,0.0,0.0,0.0,0.0,0.0,0.0,0.0,2.4692,2.4666,2.4615,2.4532,2.4358,2.4303,2.4266,2.4133,2.4409,2.4794,2.5267,2.5619,2.6004,2.6493,2.6765,2.721,2.7846,2.7773,2.7969,2.8414,2.838,2.8335,2.8353,2.8604,2.8721,2.8657,2.8925,2.892,2.8747,2.8599,2.7997,2.7169,2.6989,2.6741,2.6487,0.0,0.0,0.0,0.0,0.0,0.0,0.0,0.0,0.0,0.0,0.0,0.0,0.0,0.0,0.0,0.0,0.0,0.0,0.0,0.0,0.0,0.0,0.0,0.0,0.0,0.0,0.0,0.0,0.0,0.0,0.0,0.0,0.0,0.0,2.9574,2.9761,3.016,3.0866,3.1433,3.18,3.2731,3.3261,3.3122,3.3471,3.386,3.4262,3.4115,3.4246,3.4628,3.5368,3.5628,3.5366,3.6184,3.6466,3.6201,3.5915,3.5824,3.6007,3.5855,3.5868,3.6017,3.5886,3.5696,3.5462,3.5186,3.4229,3.2982,3.2137,3.1712,3.1619,3.1369,3.1218,3.0994,0.0,0.0,0.0,0.0,0.0,0.0,0.0,2.4707,2.4676,2.4615,2.4599,2.4549,2.4412,2.4339,2.4303,2.4246,2.4962,2.5401,2.5377,2.6169,2.6649,2.6664,2.7354,2.8072,2.8767,2.8737,2.8694,2.8694,2.8637,2.863,2.8667,2.9427,2.9781,2.9773,3.0559,3.0808,3.063,3.0582,2.9437,2.7565,2.7327,2.7055,2.6725,0.0,0.0,0.0,0.0,0.0,0.0,0.0,0.0,0.0,0.0,0.0,0.0,0.0,0.0,0.0,0.0,0.0,0.0,0.0,0.0,0.0,0.0,0.0,0.0,0.0,0.0,0.0,0.0,0.0,0.0,0.0,0.0,0.0,2.938,3.0035,3.0825,3.16,3.2414,3.3231,3.4007,3.4128,3.4066,3.3789,3.3823,3.4363,3.5605,3.5588,3.6215,3.7646,3.7616,3.7402,3.7153,3.7169,3.6999,3.6617,3.6265,3.6419,3.6974,3.6632,3.6762,3.7257,3.7257,3.7076,3.6723,3.6073,3.5689,3.5507,3.4559,3.4089,3.3985,3.3774,3.3592,3.341,0.0,0.0,0.0,0.0,0.0,0.0,0.0,2.4723,2.4692,2.4682,2.4631,2.4549,2.4412,2.4394,2.458,2.5112,2.5332,2.5917,2.6966,2.7259,2.7643,2.8182,2.8396,2.8567,2.8718,2.8761,2.8761,2.8694,2.8737,2.9028,2.9617,2.9885,3.0279,3.0712,3.0957,3.093,3.0722,3.0641,3.0196,2.9444,2.8635,2.8025,2.7538,0.0,0.0,0.0,0.0,0.0,0.0,0.0,0.0,0.0,0.0,0.0,0.0,0.0,0.0,0.0,0.0,0.0,0.0,0.0,0.0,0.0,0.0,0.0,0.0,0.0,0.0,0.0,0.0,0.0,0.0,0.0,3.0965,3.1355,3.1494,3.182,3.2346,3.3179,3.3589,3.3852,3.4059,3.5059,3.5656,3.553,3.6412,3.7064,3.7386,3.728,3.7435,3.7841,3.8218,3.8355,3.8187,3.8515,3.8764,3.8962,3.8513,3.8579,3.915,3.8772,3.8653,3.8717,3.8576,3.8402,3.8227,3.7882,3.7741,3.7397,3.4988,3.4045,3.3985,3.3683,3.3546,3.3469,0.0,0.0,0.0,0.0,0.0,0.0,0.0,2.4742,2.4676,2.4666,2.4615,2.4566,2.4465,2.4708,2.506,2.5465,2.6127,2.6857,2.7661,2.7958,2.8317,2.8743,2.8761,2.8737,2.8694,2.8761,2.8785,2.8737,2.9138,2.9588,3.0045,3.0821,3.1382,3.1709,3.2055,3.2064,3.1845,3.1697,3.1497,3.119,3.0208,2.9153,2.8049,2.7282,2.6526,2.5917,2.5787,2.5675,2.5616,2.5616,0.0,0.0,0.0,0.0,0.0,0.0,0.0,0.0,0.0,0.0,0.0,0.0,0.0,0.0,0.0,0.0,0.0,0.0,0.0,0.0,0.0,0.0,0.0,0.0,3.156,3.2314,3.3001,3.3032,3.3321,3.4213,3.4737,3.5145,3.5473,3.6577,3.7223,3.7136,3.7809,3.8321,3.8537,3.8458,3.865,3.9259,3.9564,3.9798,3.9979,4.013,4.0216,4.023,3.9822,3.9734,3.9891,3.9581,3.9345,3.9155,3.8963,3.8849,3.867,3.8589,3.8442,3.8177,0.0,0.0,0.0,0.0,3.4337,3.4292,0.0,0.0,0.0,0.0,0.0,0.0,0.0,2.4757,2.4676,2.4615,2.4615,2.462,2.4647,2.5226,2.5671,2.578,2.7085,2.7882,2.7821,2.8361,2.8687,2.8669,2.8669,2.8669,2.8669,2.8737,2.8785,2.8785,2.9667,3.0131,3.0283,3.1905,3.2676,3.2674,3.3387,3.3549,3.3292,3.3135,3.2898,3.2553,3.18,3.0311,2.851,2.8049,2.7138,2.6089,2.595,2.5749,2.5616,2.5616,0.0,0.0,0.0,0.0,0.0,0.0,0.0,0.0,0.0,0.0,0.0,0.0,0.0,0.0,0.0,0.0,0.0,0.0,0.0,0.0,0.0,0.0,0.0,0.0,3.1962,3.2912,3.396,3.3977,3.4219,3.5053,3.5985,3.6835,3.7542,3.8284,3.867,3.8517,3.8533,3.8802,3.9421,3.9376,0.0,0.0,0.0,4.1359,4.1794,4.1481,4.1173,4.0788,4.043,4.0174,3.9975,3.9676,3.939,3.9181,3.9082,3.8886,3.8673,3.8673,3.8545,3.8193,3.7405,3.7081,3.694,3.6054,3.5669,3.5534,0.0,0.0,0.0,0.0,0.0,0.0,0.0,2.4791,2.476,2.4682,2.4682,2.4912,2.5482,2.5669,2.6247,2.7405,2.7809,2.8143,2.856,2.8615,2.8612,2.8543,2.8484,2.8484,2.8543,2.8612,2.8662,2.8718,2.9594,3.0374,3.1082,3.2129,3.2944,3.3542,3.3652,3.3577,3.3364,3.3104,3.2866,3.2588,3.2315,3.1342,2.9917,2.8405,2.7423,2.6784,2.6024,2.5696,2.5616,2.5616,2.5616,2.5616,2.56,0.0,0.0,0.0,0.0,0.0,0.0,0.0,0.0,0.0,0.0,0.0,0.0,0.0,0.0,0.0,0.0,0.0,0.0,0.0,0.0,3.1468,3.2352,3.3306,3.4568,3.5395,3.6055,3.6614,3.7566,3.8215,3.8353,3.8969,3.9306,3.9306,4.0197,4.0865,4.0968,4.1426,4.1743,4.1923,4.1762,4.1555,4.1345,4.1083,4.1069,4.1171,4.0878,0.0,4.1259,4.0896,4.0629,4.0463,4.0411,4.0223,3.9948,3.9948,3.9405,3.8499,3.7835,3.7444,3.7278,3.709,3.6731,3.6282,0.0,0.0,0.0,0.0,0.0,0.0,0.0,2.4787,2.4776,2.4717,2.4701,2.4984,2.5721,2.6152,2.6823,2.7908,2.8257,2.8507,2.8791,2.8612,2.8484,2.8458,2.838,2.838,2.8406,2.8458,2.8536,2.8594,2.9468,3.0363,3.1217,3.2125,3.2957,3.3698,3.3633,3.3462,3.3226,3.3042,3.2787,3.2557,3.2473,3.1952,3.1024,2.9228,2.8058,2.7221,2.6221,2.5754,2.5659,2.5616,2.5616,2.5616,2.5616,2.6345,2.7267,0.0,0.0,0.0,0.0,0.0,0.0,0.0,0.0,0.0,0.0,0.0,0.0,0.0,0.0,2.9832,3.0527,0.0,3.1512,3.2376,3.3331,3.4394,3.5613,3.6737,3.7511,3.7655,3.8454,3.9055,3.9055,4.004,4.0614,4.0583,4.1426,4.1954,4.1954,4.21,4.2311,4.2534,4.2182,4.2063,4.2167,4.1808,4.162,4.1613,4.1342,4.1272,4.1355,4.1086,4.0814,4.0662,4.0608,4.0401,4.0137,4.0051,3.9713,3.9169,3.8697,3.8072,3.7404,3.7404,3.721,3.6941,0.0,0.0,0.0,0.0,0.0,0.0,0.0,2.4817,2.4791,2.4732,2.4698,2.5057,2.5978,2.6635,2.7326,2.8151,2.859,2.881,2.8761,2.8536,2.8406,2.8353,2.8318,2.8246,2.8246,2.8345,2.838,2.844,2.9339,3.0214,3.1111,3.2001,3.2849,3.3577,3.3491,3.3298,3.3055,3.2884,3.269,3.2422,3.2422,3.2127,3.1495,2.9883,2.8693,2.7657,2.6432,2.5848,2.5701,2.5637,2.5616,2.5616,2.5616,2.6571,2.7705,2.7705,2.8725,0.0,0.0,0.0,0.0,0.0,0.0,0.0,0.0,2.9264,2.9281,3.0002,3.006,3.018,3.0849,3.1674,3.2505,3.3335,3.4404,3.5517,3.662,3.7765,3.8589,3.8772,3.9457,3.9928,3.9928,4.1114,4.1868,4.1784,4.2311,4.2683,4.2647,4.2551,4.2702,4.3063,4.26,4.2523,4.2851,4.2429,4.2077,4.1702,4.1538,4.1272,4.1034,4.0814,4.0593,4.0455,4.0261,4.0066,3.9925,3.9696,3.9625,3.9625,3.9481,3.8751,3.7793,3.7793,3.7719,3.7599,0.0,0.0,0.0,0.0,0.0,0.0,0.0,0.0,2.4798,2.4791,2.4742,2.5292,2.6868,2.7006,2.753,2.8857,2.892,2.881,2.8637,2.8536,2.8406,2.8237,2.8154,2.8126,2.8126,2.8182,2.8264,2.8327,2.9197,3.0098,3.103,3.1846,3.27,3.3491,3.3327,3.3117,3.2916,3.2657,3.2422,3.2214,3.2179,3.1602,3.0713,2.9712,2.8999,2.8364,2.6614,2.5848,2.5701,2.5637,2.5616,2.5616,2.5616,2.6571,2.7705,2.7705,0.0,2.9918,2.9918,2.9697,2.9473,2.935,2.9152,2.9124,0.0,2.9797,2.9886,3.0588,3.0678,3.0881,3.1587,3.2394,3.319,3.392,3.4959,3.6098,3.7227,3.7887,3.887,4.0679,4.1154,4.1356,4.1356,4.2023,4.2396,4.2396,4.2986,4.3247,4.3153,4.3608,4.3706,4.3376,4.3015,4.2569,4.2028,4.1801,4.1538,4.1185,4.1018,4.0867,4.0799,4.047,4.0331,4.0261,3.991,3.9753,3.9696,3.9481,3.9424,3.9424,3.9424,3.9334,3.92,3.92,3.8811,3.8287,0.0,0.0,0.0,0.0,0.0,0.0,0.0,0.0,0.0,0.0,2.4707,2.533,2.6965,2.781,2.8463,2.8925,2.8791,2.8594,2.8484,2.8353,2.8219,2.8154,2.8071,2.7996,2.7922,2.795,2.7979,2.7989,2.8457,2.914,3.0096,3.0448,3.1304,3.2505,3.2343,3.2375,3.2539,3.2353,3.19,3.1323,3.1288,3.0714,2.978,2.8851,2.8226,2.7711,2.6445,2.5848,0.0,0.0,2.5616,2.5681,2.6102,2.6911,2.7786,2.8207,2.9065,0.0,2.9697,2.9502,2.9462,2.9643,2.9643,2.9688,3.0344,3.0351,3.0437,3.112,3.1207,3.1464,3.2532,3.3146,3.3833,3.5039,3.583,3.6654,3.788,3.8417,3.9242,4.0682,4.1398,4.1863,4.2108,4.2719,4.3054,4.2909,4.3546,4.3839,4.3554,4.3623,4.3492,4.3146,4.2587,4.2141,4.1736,4.1421,4.1153,4.095,4.0867,4.073,4.0539,4.0331,4.0191,3.991,3.9625,3.9553,3.9553,3.9409,3.9424,3.9424,3.9424,3.9424,3.9424,3.9424,3.923,3.899,0.0,0.0,0.0,0.0,0.0,0.0,0.0,0.0,0.0,0.0,2.4707,2.5298,2.6841,2.81,2.8809,2.8821,2.8594,2.8406,2.8318,2.8109,2.7996,2.7968,2.7882,2.7824,2.7701,2.7642,2.7642,2.7672,2.7777,2.8329,2.9265,2.9294,3.0065,3.135,3.1213,3.1258,3.1515,3.1394,3.0923,3.0209,3.0209,2.9692,2.8764,2.8009,2.737,2.6792,2.6155,2.5828,0.0,0.0,2.5707,2.6005,2.6523,2.73,2.8109,2.8628,2.9437,3.0109,3.0092,2.994,2.9911,3.0209,3.0237,3.031,3.0912,3.0897,3.1016,3.1712,3.1867,3.2244,3.3229,3.3851,3.4627,3.5755,3.6447,3.7179,3.8141,3.8763,3.96,4.0707,4.1549,4.2272,4.2787,4.3403,4.3669,4.3463,4.3893,4.4006,4.3713,4.3432,4.3084,4.265,4.2077,4.1686,4.139,4.1086,4.0814,4.0662,4.0608,4.047,4.0207,4.0137,3.998,3.9625,3.9481,3.9424,3.9424,3.9424,3.9424,3.9424,3.9424,3.9424,3.9424,3.9337,3.9337,3.9424,0.0,0.0,0.0,0.0,0.0,0.0,0.0,0.0,0.0,0.0,0.0,0.0,0.0,2.7435,2.8045,2.8554,2.8414,2.8219,2.8042,2.7893,2.773,2.7617,2.7557,2.7496,2.7404,2.7276,2.7293,2.7404,2.7352,2.7857,2.8921,2.8921,2.9391,3.026,3.0036,2.9809,2.9575,2.9437,2.9261,2.9047,2.9047,2.8499,2.7626,2.7394,2.6673,2.577,2.5701,0.0,0.0,2.547,2.5976,2.6668,2.6685,2.764,0.0,2.8773,2.9705,3.081,3.139,3.134,3.111,3.0992,3.0791,3.0758,3.144,3.1473,3.1551,3.2228,3.289,3.3352,3.3398,3.4623,3.5654,3.5701,3.6664,3.7504,3.7886,3.8885,4.0058,4.1302,4.2071,4.2825,4.3698,4.3972,4.4064,4.4064,4.3889,4.3713,4.3432,4.3084,4.2587,4.1963,4.1736,4.1323,4.0799,4.0593,4.047,4.0331,4.0137,3.9996,3.9996,3.9839,3.9625,3.9424,3.9424,3.9424,3.9424,3.9424,3.9424,3.9424,3.9424,3.9424,3.9352,3.9177,3.9265,3.9424,0.0,0.0,0.0,0.0,0.0,0.0,0.0,0.0,0.0,0.0,0.0,0.0,0.0,0.0,0.0,0.0,2.7771,2.7836,2.7677,2.7509,2.7369,2.7261,2.7261,2.7135,2.6923,2.6891,2.6825,2.6725,2.6841,2.7108,2.7511,2.7656,2.8117,2.8878,2.8779,2.887,2.914,2.896,2.8544,2.7908,2.7781,2.7238,2.6425,2.615,2.5724,2.5285,0.0,0.0,2.541,2.5371,2.5837,2.6511,2.6992,2.7862,2.8855,2.9806,3.0603,3.1198,3.1291,3.1207,3.1134,3.1332,3.1337,3.1402,3.1866,3.1965,3.2093,3.2767,3.3089,3.3591,3.4614,3.5228,3.5735,3.6305,3.6828,3.727,3.7685,3.8568,3.9554,4.071,4.1428,4.2129,4.2953,4.3459,4.3654,4.3476,4.3355,4.3096,4.2555,4.2334,4.1947,4.1421,4.1055,4.0715,4.0424,4.0261,4.0137,4.0066,3.991,3.9768,3.9768,3.9625,3.9481,3.9424,3.9424,3.9424,3.9424,3.9265,3.9177,3.9177,3.9031,3.9017,3.9017,3.8943,3.8943,3.9017,0.0,0.0,0.0,0.0,0.0,0.0,0.0,0.0,0.0,0.0,0.0,0.0,0.0,0.0,0.0,0.0,0.0,2.7195,2.7324,2.7184,2.7038,2.694,2.6891,2.6758,2.6505,2.6453,2.6365,2.6225,2.6365,2.6453,2.6556,2.6708,2.708,2.7555,2.7504,2.7672,2.8003,2.7821,2.7354,2.6776,2.6627,2.6199,2.5659,2.5301,2.5107,0.0,0.0,0.0,2.5045,2.5162,2.5855,2.6757,2.7262,2.8265,2.9512,3.0683,3.1326,3.1734,3.1887,3.1762,3.1649,3.1874,3.189,3.1874,3.2155,3.2333,3.2623,3.3066,3.3523,3.4237,3.5186,3.5676,3.5984,3.6461,3.6739,3.6984,3.7285,3.8299,3.9365,4.0132,4.1032,4.1724,4.2269,4.2648,4.2912,4.2867,4.2726,4.2396,4.198,4.1736,4.1421,4.0935,4.0593,4.0316,4.0091,3.998,3.9854,3.9783,3.9553,3.9466,3.9466,3.925,3.9177,3.9177,3.9177,3.9177,3.9177,3.9031,3.9017,3.8943,3.887,3.8782,3.8782,3.8723,3.8649,3.8649,0.0,0.0,0.0,0.0,0.0,0.0,0.0,0.0,0.0,0.0,0.0,0.0,0.0,0.0,0.0,0.0,0.0,0.0,2.6905,2.6892,2.6775,2.6572,2.6418,2.6262,2.6068,2.5937,2.5881,2.586,2.5881,2.5937,2.6068,2.6191,2.6279,2.6349,2.6279,2.6225,2.617,2.6026,2.5864,2.5701,2.5605,2.547,2.524,2.491,0.0,0.0,0.0,2.4523,2.463,2.4886,2.6021,2.738,2.7444,2.8882,3.0655,3.1342,3.1879,3.2404,3.3066,3.292,3.2594,3.2578,3.2413,3.2206,3.2191,3.2581,3.2953,3.3029,3.415,3.5171,3.5248,3.5922,3.6414,3.6211,3.6461,3.6662,3.6646,3.8138,3.9393,3.969,4.08,4.1573,4.1738,4.1638,4.172,4.2238,4.1948,4.1688,4.1522,4.1256,4.0867,4.0455,4.0301,4.0091,3.9996,3.9768,3.9553,3.9337,3.9177,3.9104,3.9104,3.887,3.8782,3.8782,3.8782,3.8782,3.8782,3.8782,3.8782,3.8782,3.8708,3.8708,3.8723,3.8516,3.8366,3.8202,0.0,0.0,0.0,0.0,0.0,0.0,0.0,0.0,0.0,0.0,0.0,0.0,0.0,0.0,0.0,0.0,0.0,0.0,2.5896,2.6184,2.6277,2.6099,2.5957,2.5758,2.5589,2.553,2.5508,2.5432,2.5508,2.553,2.5589,2.5775,2.5885,2.5885,2.5974,2.599,2.5954,2.5787,2.5675,2.56,0.0,2.5068,2.491,0.0,0.0,0.0,0.0,2.4177,2.4287,2.4589,2.5676,2.7095,2.8162,2.9517,3.0757,3.1061,3.1887,3.2716,3.2765,3.2687,3.2523,3.2358,3.2247,3.215,3.194,3.2034,3.237,3.3366,3.3895,3.4485,3.5596,3.5993,3.61,3.6037,3.61,3.6211,3.6336,3.7551,3.8542,3.8818,3.9962,4.0783,4.0851,4.0699,4.0615,4.0752,4.1107,4.1039,4.0562,4.0493,4.0301,3.9895,3.9824,3.9753,3.9568,3.9322,3.9177,3.8943,3.887,3.887,3.887,3.8782,3.8782,3.8782,3.8649,3.859,3.8575,3.8263,3.8113,3.8113,3.7976,3.7915,3.7915,3.7839,3.7687,3.7519,0.0,0.0,0.0,0.0,0.0,0.0,0.0,0.0,0.0,0.0,0.0,0.0,0.0,0.0,0.0,0.0,0.0,0.0,0.0,2.5527,2.5645,2.568,2.5567,2.5416,2.5162,2.5162,2.5123,2.51,0.0,0.0,2.5262,2.5454,2.553,2.553,2.5584,2.5637,2.5637,2.5524,0.0,0.0,0.0,0.0,0.0,0.0,0.0,0.0,2.3925,2.3967,2.4139,2.4599,2.5543,2.6789,2.8218,2.9586,3.0639,3.0705,3.1632,3.2554,3.2484,3.2358,3.2318,3.215,3.2038,3.1996,3.1841,3.1953,3.23,3.3051,3.3563,3.4136,3.5211,3.5533,3.5624,3.5849,3.5973,3.5973,3.6006,3.6983,3.7826,3.8213,3.9176,3.9925,4.0231,4.0176,4.0106,4.0021,4.0385,4.0455,4.0106,4.0021,3.9879,3.9553,3.9466,3.9322,3.9104,3.9017,3.8943,3.8782,3.8723,3.8649,3.856,3.8427,3.8352,3.8277,3.8127,3.8142,3.8066,3.7749,3.7672,3.7596,3.7457,3.7303,3.7303,3.7303,3.7134,3.6872,0.0,0.0,0.0,0.0,0.0,0.0,0.0,0.0,0.0,0.0,0.0,0.0,0.0,0.0,0.0,0.0,0.0,0.0,0.0,0.0,0.0,2.5179,2.5192,2.5045,2.4782,2.4782,2.4782,2.4782,2.4886,2.5005,0.0,0.0,0.0,0.0,0.0,0.0,0.0,0.0,0.0,0.0,0.0,0.0,0.0,0.0,0.0,0.0,2.3797,2.3797,2.4003,2.4669,2.5514,2.6504,2.781,2.9131,3.0207,3.0299,3.1183,3.2084,3.2176,3.2094,3.1996,3.1996,3.1883,3.1784,3.1727,3.2047,3.2348,3.2437,3.3036,3.3758,3.439,3.465,3.4876,3.5383,3.5631,3.5676,3.5623,3.634,3.7101,3.7797,3.8432,3.9098,3.9778,3.9854,3.9768,3.961,3.9768,3.9854,3.9854,3.9696,3.9466,3.9337,3.9177,3.8943,3.8782,3.8708,3.8708,3.8649,3.8516,3.8292,3.8127,3.7929,3.7777,3.7534,3.7534,3.7534,3.7457,3.7226,3.7148,3.7148,3.69,3.6822,3.6822,3.6822,3.6494,3.6149,0.0,0.0,0.0,0.0,0.0,0.0,0.0,0.0,0.0,0.0,2.4266,2.3976,0.0,0.0,0.0,0.0,0.0,0.0,0.0,0.0,0.0,0.0,2.4532,2.467,2.463,2.463,2.463,2.463,2.4766,2.4822,0.0,0.0,0.0,0.0,0.0,0.0,0.0,0.0,0.0,0.0,0.0,0.0,0.0,0.0,0.0,0.0,2.3451,2.3407,2.3511,2.4193,2.5167,2.6199,2.6991,2.8179,2.9331,2.9894,3.0608,3.1338,3.1901,3.2053,3.1996,3.1841,3.1697,3.1495,3.1409,3.1382,3.1501,3.1959,3.2211,3.2478,3.3191,3.3309,3.3532,3.4214,3.4317,3.451,3.4978,3.5614,3.6348,3.703,3.7682,3.832,3.8957,3.9017,3.9017,3.8929,3.9017,3.909,3.925,3.909,3.8943,3.8943,3.887,3.8723,3.859,3.8352,3.8202,3.8081,3.7839,3.7763,3.7687,3.7701,3.7534,3.7303,3.7148,3.6978,3.6822,3.6615,3.6457,3.6191,3.6191,3.6031,3.5871,3.571,3.5548,3.5304,0.0,0.0,0.0,0.0,0.0,0.0,0.0,2.4889,2.4738,2.458,2.4357,2.4037,2.3631,2.3348,2.3003,0.0,0.0,0.0,0.0,0.0,0.0,0.0,0.0,0.0,2.4426,2.4426,2.4467,2.4564,0.0,2.4701,2.4782,2.4886,2.4989,2.5029,2.5123,2.51,2.5021,0.0,0.0,2.4686,2.4343,2.4078,0.0,0.0,0.0,0.0,0.0,2.3319,2.3363,2.3688,2.4372,2.5285,2.6273,2.75,2.8712,2.9355,3.0013,3.0687,3.136,3.1539,3.1539,3.1439,3.1351,3.1292,3.1234,3.1132,3.1161,3.1456,3.1515,3.1707,3.234,3.2458,3.2679,3.3406,3.3741,3.408,3.4389,3.4979,3.5642,3.6306,3.6969,3.7617,3.8251,3.8605,3.8797,3.8649,3.8575,3.8649,3.8943,3.8649,3.8486,3.8486,3.8277,3.8127,3.7991,3.7915,3.7839,3.7777,3.7625,3.7457,3.7303,3.7303,3.7056,3.6587,3.6508,3.635,3.6191,3.5817,3.5656,3.548,3.5304,3.5141,3.4977,3.4825,3.4564,3.4314,0.0,0.0,0.0,0.0,0.0,0.0,0.0,2.4912,2.4783,2.4629,2.4445,2.4154,2.3735,2.3417,2.3052,0.0,0.0,0.0,0.0,0.0,0.0,0.0,0.0,0.0,0.0,0.0,0.0,2.4457,2.4498,0.0,0.0,0.0,0.0,0.0,2.4966,2.4902,2.4782,2.4782,2.4661,0.0,0.0,2.3967,0.0,0.0,0.0,0.0,0.0,2.3142,2.3142,2.3142,2.3582,2.4344,2.5487,2.6747,2.7942,2.867,2.926,2.9835,3.0587,3.0808,3.0837,3.0984,3.0955,3.0911,3.0778,3.069,3.0661,3.0514,3.0485,3.0675,3.1291,3.1408,3.1657,3.2449,3.3006,3.346,3.3739,3.4142,3.4742,3.56,3.6274,3.6934,3.7593,3.8209,3.8501,3.8292,3.8142,3.8202,3.8501,3.8277,3.8052,3.8052,3.7763,3.7625,3.7625,3.7534,3.7457,3.7457,3.738,3.7148,3.6822,3.6822,3.6429,3.579,3.579,3.5642,3.5304,3.499,3.4825,3.4743,3.4314,3.4147,3.405,3.381,3.3543,3.3373,0.0,0.0,0.0,0.0,0.0,0.0,0.0,2.5037,2.4922,2.4723,2.451,2.4284,2.3998,2.3558,2.3133,0.0,0.0,0.0,0.0,0.0,0.0,0.0,0.0,0.0,0.0,0.0,0.0,2.4317,2.4457,0.0,0.0,0.0,0.0,0.0,0.0,2.4822,2.4782,2.4686,0.0,0.0,0.0,0.0,0.0,0.0,0.0,0.0,0.0,2.2646,2.2646,2.2646,2.3077,2.3722,2.4439,2.5429,2.6636,2.7927,2.8218,2.8364,2.9679,2.9871,2.9871,3.0482,3.0507,3.0228,2.9651,2.9491,2.9215,2.8613,2.8498,2.8699,2.9344,2.9473,2.986,3.1065,3.1309,3.1739,3.282,3.3021,3.3575,3.478,3.5468,3.6041,3.6773,3.7329,3.7687,3.7687,3.7701,3.7687,3.7687,3.7687,3.7701,3.7701,3.7625,3.7625,3.7625,3.7226,3.707,3.707,3.6693,3.6377,3.6111,3.6111,3.579,3.5154,3.5154,3.4825,3.4243,3.4243,3.3907,3.3569,3.3484,3.33,3.3031,3.2661,3.25,3.2438,0.0,0.0,0.0,0.0,0.0,0.0,2.5031,2.5038,2.4945,2.4783,2.461,2.4426,2.4154,2.3816,2.3399,2.2868,0.0,0.0,0.0,0.0,0.0,0.0,0.0,0.0,0.0,0.0,2.3902,2.4302,2.4359,0.0,0.0,0.0,0.0,0.0,0.0,2.4782,2.4686,2.463,0.0,0.0,0.0,0.0,0.0,0.0,0.0,0.0,0.0,0.0,2.2615,2.2615,2.2772,2.3087,2.3683,2.4474,2.551,2.7176,2.7599,2.7732,2.8626,2.88,2.88,2.9058,2.913,2.9,2.8742,2.8641,2.8511,2.8254,2.8197,2.8283,2.854,2.8597,2.8897,2.9783,3.0287,3.0897,3.2168,3.2668,3.3239,3.4139,3.5111,3.5796,3.6068,3.7025,3.7457,3.7226,3.7162,3.7021,3.685,3.7226,3.738,3.7226,3.7084,3.7021,3.685,3.6601,3.6429,3.6429,3.6125,3.5804,3.548,3.5304,3.4881,3.4217,3.3953,3.3628,3.3227,3.2945,3.2686,3.2513,3.2438,3.2264,3.2176,3.1813,3.1725,3.1649,0.0,0.0,0.0,0.0,0.0,2.3793,2.4617,2.4714,2.4714,2.4832,2.4738,2.4564,2.4321,2.4039,2.3649,2.314,2.2625,0.0,0.0,0.0,0.0,0.0,0.0,0.0,0.0,0.0,2.3451,2.4091,2.4035,2.4184,0.0,0.0,2.462,2.4782,0.0,0.0,0.0,0.0,0.0,0.0,0.0,0.0,0.0,0.0,0.0,0.0,0.0,0.0,0.0,0.0,0.0,2.2484,2.3045,2.3617,2.4311,2.6158,2.6854,2.707,2.7698,2.7812,2.7854,2.8039,2.8096,2.8039,2.7854,2.7812,2.7755,2.757,2.7541,2.7584,2.7769,2.7812,2.8024,2.8848,2.933,3.0111,3.1508,3.2023,3.2602,3.3422,3.461,3.5359,3.5359,3.6505,3.7162,3.6836,3.6707,3.6563,3.6405,3.6772,3.6993,3.6836,3.6615,3.6391,3.6232,3.5884,3.5629,3.5548,3.5304,3.4977,3.4577,3.4288,3.3869,3.3288,3.292,3.2587,3.2276,3.1913,3.1737,3.1649,3.1572,3.1496,3.1496,3.1217,3.1116,3.1038,0.0,0.0,0.0,0.0,0.0,0.0,2.3778,2.3912,2.4162,2.4896,2.4879,2.4726,2.4512,2.4192,2.3883,2.361,2.2972,0.0,0.0,0.0,0.0,0.0,0.0,0.0,0.0,0.0,2.302,2.3616,2.3483,2.3825,2.4589,2.4539,2.462,2.4782,0.0,0.0,0.0,0.0,0.0,0.0,0.0,0.0,0.0,0.0,0.0,0.0,0.0,0.0,0.0,0.0,0.0,0.0,0.0,2.2705,0.0,0.0,2.5749,2.6266,2.682,2.6933,2.6975,2.7621,2.7776,2.7607,2.6961,2.6821,2.6652,2.6048,2.5907,2.6104,2.6708,2.6821,2.7157,2.8256,2.8405,2.8983,3.0713,3.0908,3.135,3.2566,3.3822,3.4596,3.4596,3.5687,3.6405,3.6405,3.6405,3.6405,3.6405,3.6405,3.6405,3.6405,3.6138,3.5871,3.571,3.5318,3.4908,3.4397,3.4243,3.3907,3.3398,3.3177,3.2834,3.2438,3.2164,3.1737,3.1306,3.1306,3.1229,3.0984,3.0984,3.0984,3.0972,3.0679,3.0578,3.0578,0.0,0.0,0.0,0.0,0.0,0.0,0.0,2.3522,2.3964,2.4163,2.4585,2.4798,2.4642,2.4425,2.4174,2.3917,2.3294,0.0,0.0,0.0,0.0,0.0,0.0,0.0,0.0,0.0,2.265,2.3662,2.3623,2.3943,2.4589,2.4589,2.4645,2.4782,2.4782,2.4782,0.0,0.0,0.0,0.0,0.0,0.0,2.2844,0.0,0.0,0.0,0.0,0.0,0.0,0.0,0.0,0.0,0.0,0.0,0.0,2.3376,2.4291,2.5103,2.5284,2.5605,2.598,2.6189,2.6245,2.6189,2.598,2.5883,2.5883,2.5689,2.5647,2.5702,2.5897,2.5883,2.6285,2.7432,2.7626,2.8415,3.0591,3.0894,3.135,3.2566,3.3822,3.4913,3.5756,3.6184,3.6325,3.6246,3.6166,3.6072,3.5737,3.5737,3.5804,3.5884,3.5723,3.5304,3.4812,3.423,3.3797,3.3433,3.3091,3.276,3.2426,3.2152,3.1889,3.1649,3.1193,3.0836,3.0578,3.042,3.0239,2.9954,2.9954,2.9954,2.9954,2.9852,2.9852,2.9852,0.0,0.0,0.0,0.0,0.0,0.0,0.0,2.262,2.316,2.3755,2.4214,2.4558,2.4716,2.4578,2.4374,2.4096,2.3667,0.0,0.0,0.0,0.0,0.0,0.0,0.0,0.0,2.1843,2.2221,2.3138,2.337,2.38,2.443,2.4625,2.4806,2.4862,2.4862,2.4862,0.0,0.0,0.0,0.0,0.0,0.0,2.2844,0.0,0.0,0.0,0.0,0.0,0.0,0.0,0.0,0.0,0.0,0.0,0.0,0.0,2.2912,2.3857,2.4417,2.4886,2.5204,2.5439,2.5494,2.5494,2.5494,2.5494,2.5494,2.5494,2.5494,2.5494,2.5494,2.5494,2.5895,2.7024,2.7171,2.8009,3.0376,3.0719,3.1323,3.2983,3.3875,3.4744,3.5949,3.5978,3.5898,3.575,3.575,3.5575,3.5318,3.5154,3.5141,3.5223,3.4977,3.4564,3.3894,3.33,3.2772,3.2215,3.1877,3.1625,3.1282,3.1104,3.0847,3.0769,3.0397,3.0125,0.0,2.9772,2.968,2.9485,2.9485,2.9485,2.9485,2.9485,2.9485,2.9485,0.0,0.0,0.0,0.0,0.0,0.0,0.0,2.1369,2.199,2.3599,2.38,2.4069,2.4728,2.4692,2.4513,2.4248,0.0,0.0,0.0,0.0,0.0,0.0,0.0,0.0,2.1634,2.165,2.1823,2.2229,2.2849,2.3462,2.4121,2.4728,2.5005,2.5005,2.5005,2.5005,0.0,0.0,0.0,0.0,0.0,0.0,0.0,0.0,0.0,0.0,0.0,0.0,0.0,0.0,0.0,0.0,0.0,0.0,0.0,0.0,0.0,0.0,0.0,2.4445,2.4638,2.5273,2.537,2.5384,2.5425,2.5439,0.0,2.5439,2.5439,2.5439,2.5439,2.5439,2.5768,2.6758,2.695,2.7748,3.0066,3.0404,3.1297,3.3544,3.3842,3.4238,3.5224,3.5372,3.5318,3.5086,3.5086,3.5086,3.5086,3.4812,3.4551,3.4314,3.416,3.3641,3.2945,3.2513,3.1825,3.0859,3.0859,3.0589,3.0125,2.9966,2.9886,2.9886,2.9588,2.9485,2.9485,2.9485,2.9485,2.9485,2.9485,2.9485,2.9485,2.9485,2.9485,2.9485,0.0,0.0,0.0,0.0,0.0,0.0,0.0,0.0,0.0,0.0,2.3509,2.4148,2.486,2.4837,2.4657,0.0,0.0,0.0,0.0,0.0,0.0,0.0,0.0,0.0,2.1998,2.194,2.2129,2.2589,2.3158,2.3697,2.4275,2.4904,2.5162,2.5068,2.5068,2.5005,0.0,0.0,0.0,0.0,0.0,0.0,0.0,0.0,0.0,0.0,2.1568,2.1423,0.0,0.0,0.0,0.0,0.0,0.0,0.0,0.0,2.1189,2.1506,2.2331,0.0,2.3687,2.43,2.434,2.4407,0.0,2.4905,2.4791,2.4791,2.4791,2.4791,2.4791,2.4791,2.5168,2.629,2.6478,2.7247,2.9629,3.0766,3.1703,3.2707,3.3202,3.3751,3.442,3.4901,3.5154,3.5086,3.5086,3.5003,3.4839,3.466,3.423,3.3641,3.3227,3.2884,3.2513,3.1913,3.1116,3.0397,3.0239,2.9966,2.9669,2.9588,2.9588,2.9588,2.9485,2.9393,2.922,2.922,2.9128,2.8932,2.8932,2.8932,2.8932,2.8932,2.8932,2.8932,0.0,0.0,0.0,0.0,0.0,0.0,0.0,0.0,0.0,0.0,0.0,2.3629,2.4378,2.4652,0.0,0.0,0.0,0.0,0.0,0.0,0.0,0.0,0.0,2.2525,2.2298,2.2243,2.2274,2.2377,2.3325,2.3831,2.3958,2.4949,2.5371,2.5201,2.5146,2.5029,0.0,0.0,0.0,0.0,2.3967,0.0,0.0,0.0,0.0,0.0,2.1568,2.1375,0.0,2.1229,2.118,2.1082,0.0,0.0,0.0,0.0,2.0997,2.1063,2.1369,2.2041,2.2748,2.3326,2.3648,2.3888,2.4195,0.0,2.462,0.0,0.0,2.462,2.462,2.462,2.4936,2.6108,2.6294,2.712,2.9491,3.061,3.1502,3.2368,3.2954,3.354,3.3993,3.4576,3.4825,3.466,3.466,3.4577,3.4327,3.4063,3.381,3.3398,3.2896,3.2376,3.1913,3.1395,3.0769,2.9852,2.9772,2.9497,2.9209,2.9209,2.9209,2.9209,2.9209,2.9128,2.8943,2.885,2.8664,2.8571,2.8477,2.8466,2.8466,2.8466,2.8466,2.8466,0.0,0.0,0.0,0.0,0.0,0.0,0.0,0.0,0.0,0.0,0.0,0.0,0.0,0.0,0.0,0.0,0.0,0.0,0.0,0.0,0.0,0.0,2.297,2.2816,2.2579,2.2569,2.2449,2.2252,2.3524,2.4001,2.3762,2.5058,2.5524,2.5294,2.5146,2.5068,0.0,0.0,2.4564,2.4498,2.4009,0.0,0.0,0.0,0.0,0.0,0.0,0.0,0.0,2.1033,2.0997,2.0997,2.0997,0.0,0.0,0.0,0.0,0.0,2.0947,2.1292,2.1874,2.2498,2.3031,2.347,2.3657,0.0,0.0,0.0,0.0,2.4505,2.4505,2.4447,2.4819,2.5985,2.6334,2.7247,2.931,3.0103,3.0944,3.2057,3.2667,3.3172,3.3539,3.4117,3.4402,3.4063,3.4076,3.3894,3.3713,3.3471,3.3398,3.3398,3.2723,3.2038,3.1306,3.1062,3.051,2.9485,2.9485,2.9209,2.8757,2.8757,2.8757,2.8664,2.8664,2.8664,2.8664,2.8384,2.8301,2.8301,2.8092,2.7998,2.7998,2.7998,2.7998,2.7998,0.0,0.0,0.0,0.0,0.0,0.0,0.0,0.0,0.0,0.0,0.0,0.0,0.0,0.0,0.0,0.0,0.0,0.0,0.0,0.0,0.0,2.3517,2.3217,2.3003,2.2944,2.2816,2.2995,2.3448,2.4022,2.4463,2.4876,2.554,2.5675,2.5294,2.5084,2.5005,2.4966,2.471,2.4589,2.4549,2.4151,0.0,0.0,0.0,0.0,0.0,0.0,0.0,0.0,2.1033,2.0961,2.0938,2.0938,0.0,0.0,0.0,0.0,0.0,2.0562,2.0727,2.1075,2.1847,2.2008,2.2287,2.3305,2.3471,0.0,0.0,0.0,0.0,2.4008,2.3878,2.4107,2.5303,2.671,2.795,2.8789,2.9323,2.9915,3.0648,3.1229,3.1718,3.2323,3.2864,3.3379,3.3771,3.3797,3.3713,3.3713,3.3471,3.3313,3.3154,3.2649,3.2038,3.1306,3.1062,3.051,2.9485,2.9485,2.9117,2.8488,2.8488,2.829,2.8081,2.8081,2.8081,2.8092,2.8092,2.8092,2.8092,2.7998,2.7998,2.7998,2.7998,2.7998,2.7998,0.0,0.0,0.0,0.0,0.0,0.0,0.0,0.0,0.0,0.0,0.0,0.0,0.0,0.0,0.0,0.0,0.0,0.0,0.0,0.0,2.3753,2.3725,2.3526,2.3319,2.3102,2.302,2.3232,2.376,2.4271,2.477,2.5213,2.5589,2.5562,2.5294,2.5123,2.5005,2.4902,2.467,2.4589,2.4523,0.0,0.0,0.0,0.0,0.0,0.0,0.0,0.0,0.0,0.0,2.0812,2.0775,2.0725,0.0,0.0,0.0,0.0,0.0,2.0347,2.0398,2.05,2.0912,2.1225,2.1681,2.246,2.2834,0.0,0.0,0.0,2.376,2.376,2.3628,2.3987,2.5115,2.6486,2.7703,2.8574,2.892,2.9394,3.0266,3.0855,3.1316,3.1586,3.238,3.2982,3.3084,3.339,3.3471,3.3398,3.3326,3.324,3.3081,3.2649,3.2125,3.1484,3.1038,3.0318,2.9485,2.9209,2.885,2.8395,2.829,2.8092,2.7998,2.7998,2.7998,2.7998,2.7809,2.7809,2.7809,2.762,2.7631,2.7631,2.7631,2.7631,2.7631,0.0,0.0,0.0,0.0,0.0,0.0,0.0,0.0,0.0,0.0,0.0,0.0,0.0,0.0,0.0,0.0,0.0,0.0,0.0,0.0,2.3876,2.3816,2.3768,2.3571,2.3289,2.3369,2.3667,2.4147,2.4722,2.5181,2.5514,2.5546,2.5448,2.5294,2.5107,2.4966,2.4782,2.4645,2.4523,2.44,0.0,0.0,0.0,0.0,0.0,0.0,0.0,0.0,0.0,0.0,0.0,0.0,0.0,0.0,0.0,2.0195,2.0131,2.0131,2.0131,2.0182,2.0182,2.0182,2.0617,2.1145,2.1632,2.2155,2.2744,0.0,2.3479,2.3569,2.3569,2.3726,2.4223,2.5205,2.6212,2.7271,2.8392,2.8545,2.8966,3.0088,3.0598,3.0917,3.1044,3.1822,3.2434,3.2465,3.287,3.3089,3.3068,3.3081,3.3068,3.2982,3.255,3.2113,3.1572,3.0859,3.0125,2.9485,2.9024,2.8664,2.829,2.7998,2.7904,2.7809,2.7809,2.7809,2.7809,2.7631,2.7547,2.7536,2.7357,2.7262,2.7262,2.7262,2.7262,2.7262,0.0,0.0,0.0,0.0,0.0,0.0,0.0,0.0,0.0,0.0,0.0,0.0,0.0,0.0,0.0,0.0,0.0,0.0,0.0,0.0,2.4094,2.3896,2.3816,2.3685,2.3494,2.4087,2.4654,2.5185,2.5661,2.5993,2.6123,2.5663,2.5355,2.5294,2.4982,2.4822,2.4782,2.458,2.4441,2.4317,2.3967,0.0,0.0,0.0,0.0,0.0,0.0,0.0,0.0,0.0,0.0,0.0,0.0,0.0,2.0042,2.0042,1.999,1.999,1.999,2.0131,2.0182,2.0042,2.0169,2.0438,2.0989,2.1565,0.0,2.2719,2.3153,2.3403,2.3403,2.4129,2.4883,2.5514,2.6118,2.6911,2.8019,2.817,2.8598,2.9731,2.9907,3.0133,3.0557,3.0683,3.1148,3.2139,3.2252,3.2503,3.3056,3.3081,3.2995,3.2723,3.2264,3.1825,3.1306,3.042,2.9783,2.9485,2.9024,2.856,2.7998,2.7726,2.7547,2.7347,2.7347,2.7347,2.7357,2.7357,2.7357,2.7357,2.7262,2.7262,2.7262,2.7262,2.7262,2.7262,0.0,0.0,0.0,0.0,0.0,0.0,0.0,0.0,0.0,0.0,0.0,0.0,0.0,0.0,0.0,0.0,0.0,0.0,0.0,2.4284,2.417,2.4094,2.4429,2.4534,2.4374,2.451,2.5041,2.6061,2.6392,2.6454,2.626,2.5864,2.5546,2.5294,2.506,2.4846,2.4686,2.4482,2.4317,2.4193,2.3824,2.348,0.0,0.0,0.0,0.0,0.0,0.0,0.0,0.0,2.0283,2.0296,2.0144,2.0042,1.999,1.9926,1.9862,1.9862,1.9862,1.9914,1.9965,1.9862,1.9914,0.0,0.0,2.1243,2.18,2.2369,2.2879,2.3311,2.3676,2.4368,2.4996,2.5511,2.6088,2.6798,2.7494,2.7896,2.8386,2.9164,2.9578,2.988,3.008,3.0419,3.0783,3.1185,3.1524,3.18,3.2014,3.1955,3.1788,3.1704,3.1101,3.0733,3.052,2.9745,2.9285,2.9024,2.856,2.8092,2.7715,2.7536,2.7357,2.7262,2.7262,2.7262,2.7262,2.7262,2.7262,2.7262,2.7262,2.7262,2.7262,2.7262,2.7262,2.7262,0.0,0.0,0.0,0.0,0.0,0.0,0.0,0.0,0.0,0.0,0.0,0.0,0.0,0.0,0.0,0.0,0.0,0.0,2.4515,2.4358,2.4247,2.419,2.4801,2.5179,2.5293,2.5332,2.5755,2.6527,2.6776,2.6691,2.633,2.6026,2.5696,2.5317,2.5045,2.4806,2.4589,2.4359,2.4208,2.4082,2.3711,2.3334,0.0,0.0,0.0,0.0,0.0,0.0,0.0,0.0,2.0131,2.0131,1.9978,1.9926,1.9926,1.9811,1.9798,1.9798,1.9798,1.9798,1.9798,1.9798,0.0,0.0,2.0539,2.1091,2.1644,2.2196,2.2749,2.3364,2.4117,2.4569,2.5059,2.5749,2.6201,2.6722,2.7205,2.7758,2.831,2.8863,2.944,2.9792,2.9792,3.0131,3.0432,3.0608,3.0854,3.1129,3.1304,3.1083,3.0836,3.0753,3.0157,2.9733,2.9729,2.8953,2.8421,2.8207,2.7747,2.7535,2.7631,2.7357,2.7262,2.7262,2.7262,2.7262,2.7262,2.7262,2.7262,2.7262,2.7262,2.7262,2.7262,2.7262,2.7169,2.7044,0.0,0.0,0.0,0.0,0.0,0.0,0.0,0.0,0.0,0.0,0.0,0.0,0.0,0.0,0.0,0.0,0.0,0.0,2.4512,2.4446,2.434,2.4227,2.486,2.5474,2.6087,2.6716,2.6889,2.663,2.6808,2.6725,2.6383,2.6063,2.5733,2.5378,2.4966,2.4726,2.4589,2.4333,2.4124,2.3982,2.364,2.3275,2.2844,0.0,0.0,0.0,0.0,0.0,0.0,0.0,1.999,1.9978,1.9862,1.9798,1.9798,1.9798,1.9798,1.9798,1.9798,1.9798,1.9798,1.9798,0.0,0.0,2.0539,2.1091,2.1644,2.2209,2.2761,2.3416,2.4607,2.482,2.5184,2.6276,2.6533,2.6653,2.7193,2.7745,2.8298,2.885,2.9428,2.9779,2.9779,2.9792,3.0018,3.057,3.0436,3.0499,3.1046,3.0658,3.0337,3.0074,2.9459,2.8958,2.881,2.7865,2.7238,2.6961,2.6525,2.6739,2.762,2.7347,2.7251,2.7251,2.7251,2.7251,2.7251,2.7251,2.7251,2.7251,2.7251,2.7251,2.7251,2.7251,2.6962,2.6558,0.0,0.0,0.0,0.0,0.0,0.0,0.0,0.0,0.0,0.0,0.0,0.0,0.0,0.0,0.0,0.0,0.0,0.0,2.458,2.4464,2.4339,2.421,2.5372,2.6055,2.6105,2.7014,2.7414,2.7225,2.7066,2.6809,2.6537,2.6295,2.5937,2.5524,2.5256,2.5021,2.4726,2.4302,2.4094,2.3982,2.3538,2.3172,2.2844,0.0,0.0,0.0,0.0,0.0,0.0,0.0,0.0,0.0,1.9798,1.9759,1.9656,1.9747,1.9759,1.9656,1.9656,1.9656,1.9656,1.9565,1.9617,1.9805,2.0445,2.1146,0.0,2.2888,2.3097,2.3416,2.4607,2.482,2.5184,2.6276,2.6396,2.632,2.6482,2.6968,2.7354,2.7516,2.8525,2.9189,2.9189,2.9374,2.9584,2.9745,2.9613,2.9438,2.9506,2.9209,2.8886,2.8526,2.8034,2.7638,2.7491,2.7072,2.6714,2.6525,2.6346,2.6313,2.637,2.6381,2.6289,2.6289,2.6289,2.6289,2.6289,2.6289,2.6289,2.6289,2.6289,2.6289,2.6289,2.6289,2.6196,2.6082,0.0,0.0,0.0,0.0,0.0,0.0,0.0,0.0,0.0,0.0,0.0,0.0,0.0,0.0,0.0,0.0,0.0,0.0,0.0,2.4462,2.4468,2.467,2.5774,2.6576,2.6943,2.7455,2.7612,2.7465,2.7169,2.6842,2.6589,2.64,2.6046,2.5621,2.5432,2.5162,2.4862,2.4385,2.4094,2.394,2.3494,2.3127,2.2799,0.0,0.0,0.0,0.0,0.0,0.0,0.0,0.0,0.0,1.9759,1.9656,1.9604,1.9708,1.9604,1.9512,1.9617,1.9565,1.9512,1.942,1.9473,1.9775,2.0774,2.1473,2.2242,2.3213,2.321,2.3367,2.4478,2.4626,2.4987,2.6071,2.6188,2.6062,2.6062,2.6507,2.6912,2.6912,2.7754,2.835,2.835,2.8709,2.8954,2.8954,2.8995,2.8882,2.8724,2.8327,2.7926,2.7568,2.7021,2.6601,2.648,2.6129,2.585,2.5711,2.5622,2.5534,2.5357,2.5709,2.5875,2.5875,2.5875,2.5875,2.5875,2.5875,2.5875,2.5875,2.5875,2.5875,2.5875,2.5875,2.5771,2.5616,0.0,0.0,0.0,0.0,0.0,0.0,0.0,0.0,0.0,0.0,0.0,0.0,0.0,0.0,0.0,0.0,0.0,0.0,0.0,0.0,2.469,2.5349,2.61,2.7007,2.8183,2.7876,2.76,2.7373,2.7137,2.6842,2.6589,2.6417,2.6118,2.5738,2.553,2.5262,2.5005,2.4523,2.4177,2.3982,2.3494,2.3083,2.2709,2.2509,0.0,0.0,0.0,0.0,0.0,0.0,0.0,0.0,1.9656,1.9617,1.9617,1.9617,1.9512,1.942,1.9565,1.946,1.9368,1.9368,1.9368,1.9797,2.1357,2.1958,2.2468,2.3263,2.315,2.3232,2.4275,2.4381,2.4632,2.5664,2.5873,2.584,2.584,2.6257,2.6564,2.6564,2.709,2.741,2.741,2.7914,2.8182,2.8182,2.8468,2.85,2.8287,2.7705,2.7233,2.7035,2.6235,2.5863,2.5728,2.5211,2.4861,2.4775,2.4529,2.4454,2.4485,2.5388,2.5761,2.5761,2.5761,2.5761,2.5761,2.5761,2.5761,2.5761,2.5761,2.5761,2.5761,2.5761,2.5502,2.5171,0.0,0.0,0.0,0.0,0.0,0.0,0.0,0.0,0.0,0.0,0.0,0.0,0.0,0.0,0.0,0.0,0.0,0.0,0.0,0.0,2.4616,2.5291,2.6431,2.7366,2.8109,2.7847,2.7552,2.7261,2.7087,2.6842,2.6606,2.6503,2.6277,2.5937,2.5738,2.5492,2.5217,2.471,2.4385,2.4036,2.3625,2.3275,2.2994,2.2555,2.2137,0.0,0.0,0.0,0.0,0.0,0.0,0.0,1.9811,1.9656,1.9604,1.9759,1.9656,1.9565,1.9473,1.942,1.9368,1.9158,1.9263,1.9645,2.069,2.1322,2.2002,2.3306,2.321,2.3107,2.3778,2.4134,2.4509,2.5173,2.5477,2.5676,2.5676,2.5773,2.5859,2.5859,2.6478,2.6869,2.6869,2.7213,2.7456,2.7456,2.7351,2.7184,2.6789,2.6469,2.6186,2.5876,2.5491,2.5171,2.4796,2.4625,2.4358,2.4013,2.4013,2.3927,2.3937,2.4563,2.483,2.483,2.483,2.483,2.483,2.483,2.483,2.483,2.483,2.483,2.483,2.483,2.4767,2.4695,0.0,0.0,0.0,0.0,0.0,0.0,0.0,0.0,0.0,0.0,0.0,0.0,0.0,0.0,0.0,0.0,0.0,0.0,0.0,0.0,2.5312,2.6253,2.7229,2.7843,2.8081,2.7864,2.7612,2.7293,2.7152,2.6876,2.6554,2.652,2.6293,2.5954,2.5828,2.5621,2.5294,2.4871,2.4451,2.4078,2.3668,2.3319,2.2994,2.2646,2.2278,2.1949,2.1616,0.0,0.0,0.0,0.0,0.0,0.0,0.0,1.9823,1.9875,1.9811,1.9656,1.9617,1.9512,1.9316,1.9052,1.921,1.9621,2.0486,2.1091,2.1844,2.2994,2.2975,2.296,2.3504,2.3646,2.3904,2.4682,2.4966,2.5163,2.5417,2.5465,2.5465,2.5465,2.5778,2.6019,2.6019,2.6433,2.6662,2.6662,2.6692,2.6609,2.6306,2.5923,2.5574,2.5214,2.4745,2.4296,2.3867,2.3804,2.3553,2.3227,2.3227,2.3227,2.3237,2.3907,2.4186,2.4196,2.4282,2.4378,2.4368,2.4454,2.454,2.454,2.454,2.454,2.454,2.454,2.454,2.454,0.0,0.0,0.0,0.0,0.0,0.0,0.0,0.0,0.0,0.0,0.0,0.0,0.0,0.0,0.0,0.0,0.0,0.0,0.0,0.0,0.0,2.7296,2.7949,2.8219,2.8099,2.7893,2.7689,2.7404,2.7198,2.6908,2.6537,2.652,2.6293,2.5934,2.5897,2.5659,2.5294,2.4989,2.4574,2.412,2.3754,2.3363,2.2994,2.2737,2.2463,2.2184,2.1793,2.1471,2.118,2.0822,0.0,0.0,0.0,0.0,2.008,2.008,2.0029,1.9952,1.9862,1.9668,1.9316,1.9105,1.921,1.9584,2.036,2.0953,2.1592,2.2342,2.2636,2.2874,2.333,2.3174,2.332,2.4109,2.4326,2.4542,2.4987,2.5119,2.5168,2.5168,2.5252,2.5312,2.5312,2.5709,2.5961,2.5961,2.616,2.6186,2.596,2.544,2.4936,2.4547,2.3939,2.3412,2.3062,2.2849,2.2706,2.2471,2.2471,2.2471,2.2491,2.3203,2.3564,2.373,2.3993,2.411,2.411,2.4368,2.4454,2.4454,2.4454,2.454,2.454,2.4454,2.4454,2.4454,0.0,0.0,0.0,0.0,0.0,0.0,0.0,0.0,0.0,0.0,0.0,0.0,0.0,0.0,0.0,0.0,0.0,0.0,2.4412,0.0,0.0,2.7115,2.7896,2.8219,2.8014,2.7864,2.7689,2.7404,2.7261,2.7021,2.6674,2.6537,2.6329,2.5974,2.5934,2.5696,2.5378,2.513,2.4831,2.4416,2.4067,2.3726,2.3363,2.2844,2.2586,2.2324,2.1949,2.1616,2.1326,2.1033,2.0871,0.0,0.0,0.0,2.051,2.051,2.051,2.0459,2.022,1.9772,1.9368,1.9223,1.9275,1.9433,1.9703,2.0388,2.1044,2.1268,2.2166,2.2873,2.2947,2.3095,2.3207,2.3341,2.37,2.3893,2.3965,2.435,2.4626,2.4626,2.5035,2.5312,2.5312,2.5372,2.5349,2.5218,2.529,2.5038,2.4542,2.409,2.376,2.3578,2.2977,2.2611,2.2594,2.2369,2.2205,2.1967,2.1967,2.1967,2.1967,2.2085,2.2591,2.3297,2.368,2.3841,2.3841,2.411,2.4206,2.4292,2.4454,2.454,2.4454,2.4282,2.4206,2.4206,0.0,0.0,0.0,0.0,0.0,0.0,0.0,0.0,0.0,0.0,0.0,0.0,0.0,0.0,0.0,2.4534,2.4429,2.469,2.5415,2.6281,2.7033,2.7683,2.7986,2.8053,2.7946,2.79,2.7736,2.7496,2.7386,2.7198,2.6923,2.6708,2.64,2.599,2.5917,2.5696,2.5317,2.5185,2.4871,2.4457,2.4109,2.3769,2.3319,2.2889,2.2526,2.2231,2.1949,2.1664,2.1471,2.118,2.1082,2.1019,2.0871,0.0,0.0,0.0,2.0822,2.0723,2.0334,1.9875,1.9473,1.9223,1.9328,1.942,1.9565,2.021,2.0851,2.0957,2.1562,2.2193,2.2505,2.2775,2.3008,2.3174,2.3353,2.3555,2.3791,2.3965,2.4097,2.4097,2.4302,2.4446,2.4446,2.4699,2.4809,2.4682,2.4826,2.4706,2.42,2.3677,2.3323,2.3015,2.2405,2.1978,2.1778,2.1551,2.1392,2.1143,2.1143,2.1143,2.1152,2.1406,2.184,2.2512,2.2774,2.2938,2.2938,2.32,2.3436,2.3659,2.3744,2.3886,2.41,2.4024,2.4024,2.3937,0.0,0.0,0.0,0.0,0.0,0.0,0.0,0.0,0.0,0.0,0.0,0.0,0.0,0.0,0.0,0.0,2.4266,2.4772,2.6113,2.6738,2.7388,2.8119,2.8071,2.7957,2.7888,2.7888,2.7783,2.7587,2.7496,2.7324,2.7117,2.6875,2.6538,2.617,2.599,2.5696,2.5371,2.5185,2.4926,2.4539,2.4193,2.3797,2.3304,2.2934,2.2572,2.2278,2.1949,2.1746,2.1616,2.1326,2.1229,2.1229,2.1131,2.1082,0.0,0.0,0.0,2.0885,2.0435,2.0029,1.9617,1.9328,1.9328,1.942,1.9512,1.9992,2.0451,2.057,2.0957,2.135,2.1763,2.2238,2.2653,2.2994,2.3016,2.3098,2.3381,2.3484,2.3568,2.3568,2.3688,2.3773,2.3773,2.4109,2.427,2.4065,2.4236,2.4166,2.3667,2.3223,2.2703,2.2273,2.168,2.1292,2.1034,2.0924,2.0741,2.0566,2.0566,2.0566,2.0576,2.0908,2.124,2.1562,2.1942,2.2122,2.2122,2.2379,2.2651,2.2942,2.3026,2.3227,2.3529,2.3553,2.3594,2.3604,0.0,0.0,0.0,0.0,0.0,0.0,0.0,0.0,0.0,0.0,0.0,0.0,2.294,2.3732,2.4191,2.4113,2.4056,2.4566,2.5835,2.6542,2.7236,2.7979,2.7996,0.0,2.7888,2.7888,2.7783,2.7587,2.7526,2.7386,2.7181,2.7007,2.6775,2.6537,2.617,2.5844,2.5578,2.5371,2.51,2.4742,2.4441,2.3994,2.3508,2.3068,2.2768,2.2509,2.1996,2.1793,2.1746,2.1471,2.1375,2.1375,2.1375,2.1375,2.1375,0.0,0.0,0.0,2.0673,2.0271,1.9888,1.9473,1.9368,1.942,1.942,1.9537,1.9706,1.9849,2.0207,2.0565,2.0603,2.1418,2.2266,2.2628,2.2592,2.2407,2.227,2.2702,2.3015,2.3015,2.346,2.3773,2.3773,2.3797,2.3664,2.3317,2.3273,2.2947,2.2262,2.1985,2.1647,2.1105,2.0514,2.0285,2.0571,2.0602,2.0644,2.0566,2.0566,2.0566,2.0566,2.0586,2.0605,2.0684,2.1523,2.1885,2.1967,2.2122,2.2215,2.2234,2.2501,2.2675,2.2664,2.2918,2.2983,2.2948,0.0,0.0,0.0,0.0,0.0,0.0,0.0,0.0,0.0,0.0,0.0,0.0,0.0,2.3697,2.384,2.3795,2.4626,2.5548,2.6488,2.7164,2.7646,2.7929,2.7853,2.7806,2.7777,2.7777,2.7736,2.7587,2.7526,2.7434,2.7327,2.7072,2.6909,2.6775,2.6329,2.597,2.5642,2.547,2.5162,2.4782,2.4441,2.3952,2.3421,2.3068,2.2678,2.2324,2.1949,2.1746,2.1664,2.1471,2.1423,2.1423,2.1423,2.1423,2.1375,2.1277,2.1131,2.0934,2.0673,2.0321,1.9939,1.9617,1.9473,1.9368,1.9198,1.9251,1.9344,1.9291,1.9409,1.9653,1.9995,2.0846,2.1592,2.1956,2.1862,2.1801,2.2013,2.2103,2.2159,2.2159,2.2337,2.2443,2.2443,2.274,2.2864,2.2601,2.2905,2.2809,2.2332,2.2114,2.1779,2.1361,2.0797,2.0319,1.9909,1.992,1.9905,1.9746,2.0019,2.0146,2.0156,2.0439,2.0566,2.0586,2.0898,2.1035,2.1035,2.1115,2.1371,2.1546,2.1627,2.1885,2.2152,2.2227,2.2286,2.2306,0.0,0.0,0.0,0.0,0.0,0.0,0.0,0.0,0.0,2.1598,0.0,0.0,0.0,0.0,2.3634,2.3825,2.4953,2.595,2.6674,2.7373,2.7771,2.7771,2.7659,2.7612,2.7612,2.7612,2.76,2.7557,2.7448,2.7373,2.7327,2.7072,2.6942,2.6893,2.6485,2.6151,2.5828,2.5584,2.5278,2.4942,2.4523,2.4051,2.3551,2.3113,2.2709,2.231,2.1983,2.1793,2.1664,2.1471,2.1423,2.1375,2.1375,2.1277,2.1229,2.118,2.1046,2.0898,2.0673,2.0321,1.9978,1.9668,1.9512,1.9316,1.8999,1.8987,1.904,1.8881,1.8881,1.8988,1.9335,1.9872,2.0467,2.1124,2.1127,2.1141,2.1293,2.1372,2.1428,2.1428,2.1592,2.1698,2.1698,2.2004,2.2139,2.1934,2.2236,2.2301,2.1901,2.1756,2.1486,2.1011,2.0631,2.0163,1.9595,1.9601,1.9598,1.9433,1.9728,1.9791,1.9801,2.0085,2.0137,2.0146,2.0283,2.043,2.0566,2.0566,2.0742,2.1016,2.1016,2.1191,2.1465,2.1611,2.167,2.1689,0.0,0.0,0.0,0.0,0.0,0.0,0.0,0.0,2.0415,2.1976,0.0,0.0,0.0,0.0,0.0,2.4251,2.4944,2.5642,2.6382,2.7091,2.7496,2.7496,2.7496,2.7496,2.7496,2.7496,2.7496,2.7496,2.7293,2.7181,2.7181,2.699,2.6893,2.6893,2.6623,2.638,2.6184,2.5766,2.5502,2.5256,2.4742,2.4291,2.394,2.3348,2.2934,2.2663,2.217,2.1902,2.1746,2.1471,2.1375,2.1375,2.1229,2.1082,2.0997,2.0997,2.0974,2.0838,0.0,0.0,0.0,1.972,1.9512,1.9263,1.8905,1.8798,1.8744,1.8614,1.8614,1.8614,1.8614,1.8614,1.8955,2.0141,2.032,2.0344,2.0205,2.0558,2.0864,2.0864,2.1334,2.1663,2.1675,2.1675,2.16,2.1388,2.1388,2.1273,2.0903,2.0903,2.0582,1.9933,1.9995,1.9817,1.954,1.9687,1.9755,1.9755,1.965,1.9598,1.9588,1.936,1.9287,1.9307,1.9717,2.0146,2.0624,2.0634,2.0566,2.0566,2.0566,2.0566,2.0615,2.1055,2.1211,2.1279,0.0,0.0,0.0,0.0,0.0,1.9216,1.9408,2.0383,2.1255,0.0,0.0,0.0,2.285,2.3328,2.3971,2.475,2.5438,2.6199,2.6943,2.7172,2.7276,2.7276,2.7276,2.7276,2.7276,2.7276,2.7261,2.7198,2.7149,2.7103,2.7055,2.6942,2.6842,2.6742,2.6572,2.6415,2.6241,2.5828,2.5546,2.5256,2.4766,2.4343,2.394,2.3451,2.3038,2.2663,2.217,2.1902,2.1746,2.1375,2.1277,2.1229,2.1082,2.1033,2.0997,2.0924,2.0888,2.0838,2.0612,0.0,0.0,0.0,0.0,0.0,1.8732,1.8572,1.8476,1.8302,1.8247,1.8247,1.8247,1.8247,1.834,1.8684,1.9132,1.9562,1.9901,2.0029,2.0003,2.0003,2.0141,2.0372,2.0719,2.0754,2.0904,2.1262,2.1285,2.1221,2.1094,2.0967,2.0764,2.0442,2.0325,2.0072,1.9607,1.9655,1.9515,1.9322,1.9453,1.9545,1.9555,1.9655,1.965,1.965,1.977,2.0078,2.0516,2.0594,2.0566,2.0566,2.0566,2.0566,2.0576,2.0703,2.0752,2.0762,0.0,0.0,0.0,0.0,0.0,1.9286,1.9877,2.0738,2.1447,0.0,0.0,0.0,2.2948,2.3369,2.4057,2.5159,2.5644,2.6202,2.6937,2.6989,2.6989,2.6989,2.6989,2.7038,2.707,2.7038,2.7006,2.7023,2.6925,2.6859,2.6842,2.6759,2.6657,2.6521,2.6434,2.6293,2.6154,2.5848,2.5589,2.5394,2.4871,2.4467,2.4067,2.3581,2.3172,2.2799,2.2356,2.2044,2.1793,2.1423,2.1193,2.1059,2.0961,2.0861,2.0799,2.0725,2.0625,2.0474,2.0309,2.0144,1.9875,1.95,0.0,0.0,1.8625,1.841,1.8247,1.803,1.7975,1.7931,1.7931,1.7931,1.7931,1.7931,1.8269,1.8678,1.9102,1.9275,1.9356,1.9356,1.9551,1.9792,1.9935,1.9969,2.0095,2.033,2.0597,2.0928,2.1221,2.1094,2.0903,2.07,2.0582,2.0335,1.9944,1.9868,1.966,1.9407,1.9479,1.9479,1.9421,1.9402,1.9384,1.9394,1.9576,1.9808,1.9965,2.0502,2.0718,2.0731,2.0644,2.0566,2.0566,2.0566,2.0566,2.0566,0.0,0.0,1.8103,1.8725,1.8876,1.9361,2.0627,2.095,2.129,0.0,2.2147,2.25,2.3231,2.3392,2.3986,2.5379,2.5581,2.5899,2.659,2.6624,2.6624,2.6624,2.6624,2.6708,2.6809,2.6725,2.6708,2.6809,2.664,2.6554,2.6537,2.6485,2.6364,2.626,2.6187,2.6079,2.5937,2.5738,2.5626,2.553,2.5013,2.463,2.4219,2.3711,2.3363,2.3038,2.2555,2.2231,2.1949,2.152,2.1158,2.0888,2.0838,2.0675,2.0461,2.0461,2.0195,1.9939,1.9939,1.9772,1.9512,1.9186,1.904,0.0,1.841,1.8193,1.803,1.7909,1.7755,1.7711,1.7711,1.7711,1.7711,1.7711,1.7711,1.7767,1.803,1.8473,1.8759,1.8759,1.9171,1.941,1.9315,1.9315,1.929,1.9179,1.9765,2.0403,2.1055,2.1078,2.1037,2.0967,2.0764,2.0582,2.0464,2.0313,2.0107,2.0009,1.9802,1.9615,1.9417,1.9075,1.8942,1.8962,1.9305,1.9451,1.9424,2.0349,2.0757,2.0837,2.0712,2.0644,2.0566,2.0566,2.0566,2.0566,0.0,1.8077,1.8245,1.8859,1.9414,1.9897,2.028,2.0847,2.1362,2.1721,2.1797,2.2096,2.2762,2.3324,2.3984,2.4804,2.5483,2.595,2.6101,2.6154,2.6189,2.6295,2.6295,2.6312,2.6347,2.6312,2.6312,2.6347,2.6312,2.6277,2.6277,2.617,2.6063,2.5954,2.5864,2.577,2.5675,2.553,2.5432,2.5333,2.5084,2.471,2.4261,2.3882,2.348,2.3038,2.2555,2.2231,2.1902,2.1277,2.0947,2.0712,2.0625,2.0448,2.0233,2.0144,1.9875,1.9668,1.9577,1.9408,1.9186,1.8827,1.8602,0.0,1.8073,1.7865,1.7767,1.7755,1.7711,1.7711,1.7711,1.7711,1.7711,1.7711,1.7711,1.7711,1.7767,1.7845,1.7913,1.7913,1.8058,1.8216,1.8656,1.8701,1.8812,1.9157,1.9448,1.9829,2.0527,2.0561,2.0745,2.1146,2.1094,2.0967,2.0775,2.0764,2.0711,2.054,2.0335,2.0205,2.014,1.9868,1.9671,1.9671,1.9634,1.9754,2.0065,2.0174,2.0237,2.0335,2.069,2.0731,2.0566,2.0566,2.0566,2.0566,1.7709,1.8059,1.8492,1.9072,1.9467,1.9862,2.0273,2.0751,2.1087,2.123,2.1568,2.207,2.2781,2.332,2.3975,2.4719,2.5094,2.5379,2.5551,2.554,2.5652,2.5791,2.5791,2.5864,2.5974,2.5937,2.5901,2.5974,2.5901,2.5864,2.5791,2.5717,2.5589,2.54,2.5346,2.5269,2.5201,2.5146,2.5068,2.506,2.4942,2.4645,2.4261,2.3925,2.3566,2.3127,2.2723,2.217,2.1616,2.1068,2.0785,2.0562,2.0398,2.0182,1.9965,1.9823,1.9525,1.9146,1.904,1.8827,1.8614,1.8344,1.8182,0.0,0.0,1.77,1.759,1.759,1.7545,1.749,1.749,1.749,1.749,1.749,1.749,1.749,1.7357,1.7534,1.7711,1.7711,1.7711,1.7812,1.7991,1.8014,1.8226,1.867,1.8868,1.9258,1.9878,1.9984,2.0274,2.0768,2.0791,2.0905,2.1031,2.1031,2.0978,2.0786,2.0722,2.0593,2.054,2.027,2.0064,1.9977,1.9922,1.9865,1.9988,2.0222,2.0167,2.0,2.0537,2.0708,2.0731,2.0644,2.0566,2.0566,1.7576,1.8099,1.8686,1.9335,1.9458,1.9677,2.0249,2.0512,2.066,2.0834,2.1355,2.2035,2.2834,2.321,2.3685,2.4505,2.4523,2.4571,2.4792,2.4847,2.498,2.5208,2.5208,2.5285,2.546,2.5438,2.5438,2.5513,2.5438,2.5339,2.5262,2.5224,2.5052,2.4799,2.4744,2.4679,2.4655,2.4655,2.463,2.4645,2.4605,2.4482,2.4219,2.3882,2.3566,2.3231,2.2754,2.2063,2.1326,2.0908,2.0686,2.0461,2.0233,1.9978,1.9759,1.9552,1.9146,1.8691,1.8518,1.8236,1.7975,1.7799,1.7744,1.7689,0.0,0.0,0.0,1.7368,1.7267,1.7211,1.7211,1.7211,1.7211,1.7211,1.7211,1.7145,1.6955,1.7245,1.749,1.7545,1.7545,1.7479,1.7412,1.7423,1.7634,1.8032,1.8248,1.8564,1.9236,1.941,1.9769,2.0262,2.0274,2.0469,2.0934,2.0974,2.0946,2.0819,2.0921,2.0914,2.0797,2.0593,2.0388,2.0237,2.0172,2.0053,1.9834,2.0299,2.029,1.9958,2.0398,2.0687,2.0787,2.0702,2.0644,2.0566,1.8244,1.8455,1.8743,1.9521,1.9677,1.9728,1.9859,1.9894,2.0178,2.0901,2.0981,2.144,2.2622,2.263,2.2763,2.3332,2.3507,2.3634,2.3865,2.3971,2.4184,2.4511,2.4502,2.4574,2.4695,2.471,2.471,2.4695,2.471,2.471,2.467,2.4508,2.4385,2.4343,2.4177,2.4109,2.4109,2.4109,2.4109,2.4067,2.3967,2.3994,2.4078,2.3767,2.348,2.3231,2.2495,2.1793,2.118,2.0908,2.0686,2.0461,2.0144,1.9823,1.9552,1.9344,1.8881,1.8422,1.8193,1.7865,1.7534,1.7379,1.7256,1.7067,1.692,0.0,1.6864,1.6864,0.0,1.6864,1.7011,0.0,0.0,1.7011,1.7011,1.6955,1.6684,1.6684,1.6751,1.6874,1.692,1.692,1.7067,1.72,1.7401,1.7556,1.7612,1.7947,1.8748,1.8782,1.9125,1.9757,1.9769,1.9803,1.9861,2.0285,2.0492,2.043,2.0951,2.1158,2.1169,2.0903,2.0839,2.0764,2.0464,2.0475,2.054,2.027,2.0335,2.0722,2.0969,2.071,2.0295,2.0681,2.0741,2.0566,1.7825,1.8346,1.8841,1.9192,1.931,1.9347,1.9384,1.9693,2.0017,2.033,2.0881,2.1391,2.1744,2.1928,2.2121,2.2289,2.242,2.2606,2.2878,2.3113,2.3334,2.3696,2.3852,2.3979,2.412,2.4219,2.4261,2.4261,2.4261,2.4219,2.412,2.3952,2.3782,2.361,2.3436,2.3304,2.3246,2.3246,2.329,2.3348,2.3304,2.3334,2.3421,2.3523,2.3304,2.2889,2.2356,2.1793,2.1277,2.0809,2.0523,2.0296,1.9978,1.972,1.946,1.9239,1.8721,1.8193,1.8018,1.7634,1.719,1.7134,1.7022,1.6864,1.6807,1.6818,1.6818,1.6818,0.0,0.0,0.0,0.0,0.0,0.0,1.6797,1.6673,1.6343,1.6228,1.6285,1.6467,1.6524,1.6581,1.674,1.692,1.7088,1.7179,1.7312,1.7578,1.8003,1.8126,1.8532,1.9114,1.9171,1.9378,1.9688,1.9895,1.9998,1.9998,2.0492,2.0733,2.0733,2.0957,2.1031,2.0903,2.0658,2.054,2.0475,2.0216,2.0194,2.029,2.0706,2.0803,2.07,2.0526,2.0602,2.0741,1.7009,0.0,1.863,1.8669,1.8745,1.8893,1.9012,1.949,1.989,1.9963,2.0552,2.0941,2.0923,2.1172,2.1286,2.1232,2.1286,2.1513,2.1881,2.2142,2.2427,2.2809,2.3053,2.329,2.3377,2.3523,2.3566,2.3566,2.3566,2.3523,2.3421,2.3334,2.3113,2.2904,2.2723,2.2618,2.2526,2.248,2.2526,2.2618,2.2618,2.2618,2.2709,2.3187,2.3038,2.2572,2.231,2.1841,2.1326,2.0759,2.0422,2.0131,1.9862,1.9604,1.9368,1.9186,1.8667,1.803,1.7854,1.7401,1.6965,1.6899,1.6797,1.6705,1.6705,1.6705,1.6705,1.6705,1.6705,0.0,0.0,0.0,1.6751,1.6705,0.0,1.641,1.5999,1.5816,1.5826,1.6056,1.6114,1.6228,1.64,1.6581,1.6751,1.6899,1.7032,1.7267,1.7423,1.7689,1.8024,1.8464,1.8634,1.8873,1.9264,1.9413,1.947,1.9482,1.9975,2.0217,2.0228,2.0733,2.0888,2.0773,2.073,2.0722,2.0593,2.0335,2.0205,2.0172,2.0378,2.0674,2.0917,2.0589,2.0591,2.0661,1.5964,1.7021,1.7868,1.7988,1.8135,1.8342,1.8768,1.9198,1.9692,2.0134,1.9885,1.9882,2.038,2.0219,2.0042,2.0042,2.0181,2.0421,2.0841,2.1113,2.145,2.1842,2.2099,2.2263,2.236,2.2466,2.2558,2.2558,2.2558,2.2558,2.2558,2.2495,2.2417,2.2417,2.2137,2.2044,2.203,2.1888,2.1841,2.1841,2.1841,2.1888,2.2077,2.2709,2.2723,2.237,2.2231,2.1841,2.1326,2.0759,2.0422,2.0131,1.9862,1.9604,1.9368,1.9093,1.8572,1.803,1.7634,1.7145,1.6751,1.6627,1.6534,1.6431,1.6431,1.6431,1.6431,1.6431,1.6431,1.6431,1.6581,1.6637,1.6581,1.6431,1.6431,0.0,0.0,1.541,1.541,1.541,1.57,1.5931,1.5931,1.6171,1.641,1.657,1.6751,1.6987,1.7278,1.7545,1.7755,1.7931,1.8052,1.8118,1.8141,1.8678,1.8919,1.8919,1.9459,1.9711,1.9734,2.0217,2.0435,2.0458,2.0751,2.0967,2.1169,2.0797,2.0669,2.0669,2.0259,2.0313,2.0672,2.0938,2.069,2.0256,1.4664,1.5431,1.6287,1.7076,1.7613,1.8104,1.8537,1.8763,1.89,1.8882,1.8869,1.8803,1.8696,1.8703,1.8727,1.8727,1.8939,1.9242,1.9684,2.008,2.0398,2.0729,2.1059,2.1334,2.1417,2.1561,2.1718,2.1921,2.1921,2.1921,2.1921,2.1793,2.1636,2.1479,2.1299,2.1104,2.0957,2.0908,2.0809,2.0772,2.0908,2.1153,2.1444,2.2156,2.2356,2.2231,2.2137,2.1793,2.1326,2.0759,2.0372,2.0029,1.9759,1.9408,1.9105,1.8893,1.8356,1.7822,1.7579,1.7078,1.6637,1.6627,1.6477,1.6384,1.6384,1.6306,1.6181,1.6181,1.6134,1.6087,1.6134,1.6181,1.6239,1.6087,1.6087,1.5856,0.0,1.4902,1.4606,1.4478,1.4951,1.5313,1.5439,1.573,1.5951,1.6104,1.6353,1.6648,1.6931,1.7368,1.7645,1.7755,1.7975,1.8084,1.8084,1.8421,1.8568,1.8568,1.9146,1.9401,1.931,1.9807,2.0162,2.0423,2.0421,2.0671,2.0967,2.0797,2.0669,2.0669,2.0529,2.0423,2.0346,2.067,2.0855,2.0815,1.3552,1.4111,1.4875,1.6175,1.7148,1.7803,1.8006,1.8099,1.8064,1.7688,1.7603,1.7412,1.7147,1.7213,1.7346,1.7523,1.7754,1.8093,1.8643,1.8951,1.9251,1.9571,1.9926,2.0219,2.0434,2.0584,2.0795,2.1055,2.1055,2.1118,2.1118,2.1019,2.0871,2.0709,2.0597,2.0396,2.0156,2.0118,2.0029,1.9926,2.0169,2.0409,2.0696,2.1348,2.1698,2.1902,2.1841,2.1554,2.1118,2.061,2.022,1.9875,1.9552,1.9198,1.8893,1.8625,1.8127,1.7534,1.7245,1.6864,1.6477,1.6353,1.6306,1.6202,1.6202,1.6077,1.5951,1.5951,1.5836,1.573,1.573,1.5836,1.5894,1.573,1.5788,1.5624,0.0,1.4556,1.4139,1.401,1.4428,1.4734,1.4852,1.5147,1.542,1.5642,1.5999,1.6353,1.6694,1.72,1.759,1.7711,1.8041,1.8205,1.8205,1.8422,1.853,1.8541,1.8967,1.912,1.899,1.9504,1.9843,1.9943,2.019,2.0472,2.0717,2.0835,2.0862,2.0786,2.0786,2.0582,2.0347,2.0662,2.0862,2.1102,1.2501,1.3067,1.3841,1.5315,1.6658,1.7416,1.7179,1.7211,1.7102,1.6634,1.6012,1.5688,1.5688,1.5688,1.5861,1.6327,1.6574,1.6955,1.7579,1.7733,1.8007,1.8394,1.8655,1.898,1.9319,1.9579,1.9798,1.994,2.0067,2.0131,2.0131,2.0182,2.0182,2.0118,2.0003,1.9888,1.9747,1.9604,1.946,1.9368,1.946,1.9695,1.9991,2.0258,2.0772,2.1313,2.1506,2.1202,2.0709,2.0321,2.0016,1.9695,1.9291,1.8987,1.8679,1.8213,1.7788,1.7301,1.674,1.6477,1.6316,1.5972,1.5914,1.5914,1.5914,1.5798,1.5682,1.5682,1.5488,1.5352,1.5352,1.5546,1.5614,1.541,1.5546,1.543,1.4775,1.424,1.395,1.395,1.407,1.413,1.4189,1.4478,1.4824,1.5108,1.5642,1.6104,1.657,1.7134,1.7534,1.7711,1.815,1.8367,1.8422,1.8691,1.8798,1.8851,1.8946,1.8946,1.881,1.9285,1.9344,1.9146,2.0157,2.0499,2.0446,2.0951,2.1094,2.0903,2.0903,2.0786,2.0736,2.0819,2.0973,2.1102,1.0949,1.2128,1.3108,1.3479,1.4934,1.605,1.6144,1.5656,1.5148,1.4662,1.42,1.3811,1.3708,1.3939,1.4236,1.4601,1.5041,1.5505,1.6083,1.6368,1.6751,1.7231,1.7423,1.7699,1.8147,1.8321,1.8578,1.9032,1.9226,1.9344,1.9448,1.9565,1.9565,1.9448,1.9436,1.9291,1.9052,1.8762,1.8494,1.8278,1.8429,1.8762,1.9146,1.954,1.985,2.0156,2.0759,2.0809,2.0472,2.0131,1.9759,1.9291,1.8999,1.8572,1.8018,1.7567,1.7134,1.674,1.6343,1.6134,1.6039,1.5914,1.5856,1.573,1.573,1.5439,1.5147,1.5147,1.4951,1.4765,1.4883,1.502,1.5147,1.5088,1.4951,1.4656,1.424,1.3881,1.3519,1.3285,1.3285,1.3528,1.401,1.4359,1.4588,1.4647,1.5371,1.5894,1.6228,1.6786,1.7301,1.7711,1.803,1.8302,1.8572,1.8827,1.9052,1.9263,1.9356,1.9356,1.9275,1.9279,1.9329,1.9415,1.9855,2.0236,2.0557,2.1014,2.1158,2.1094,2.0967,2.0722,2.0575,2.1136,2.1403,2.1618,0.9441,1.0863,1.1871,1.1676,1.2419,1.3368,1.4273,1.3835,1.3176,1.2692,1.2219,1.1935,1.1881,1.2181,1.2602,1.3064,1.3605,1.41,1.4678,1.4982,1.54,1.5846,1.5979,1.6358,1.6877,1.7101,1.7435,1.7972,1.8267,1.8536,1.875,1.8881,1.8934,1.8922,1.8881,1.8667,1.841,1.7897,1.7623,1.7412,1.7623,1.7952,0.0,1.8685,1.9016,1.9303,1.9759,1.9965,1.9914,1.972,1.9344,1.8869,1.8506,1.8073,1.7634,1.7078,1.6751,1.642,1.6009,1.5846,1.5798,1.573,1.5556,1.5449,1.5381,1.5029,1.4606,1.4547,1.43,1.4112,1.43,1.4428,1.4556,1.4616,1.4419,1.4121,1.3761,1.339,1.3078,1.2797,1.2736,1.292,1.3407,1.3812,1.4172,1.4359,1.502,1.5556,1.5999,1.656,1.7134,1.759,1.803,1.8356,1.8679,1.8999,1.9303,1.9565,1.972,1.9733,1.9681,1.95,1.945,1.9389,1.9604,1.9948,2.0294,2.068,2.0963,2.1031,2.0914,2.0658,2.0499,2.1105,2.1409,2.161,0.7963,0.9301,1.0153,0.9958,0.956,0.9857,1.1352,1.1374,1.1023,1.053,1.0116,0.9945,1.0066,1.0445,1.092,1.1544,1.2097,1.2634,1.313,1.3494,1.3906,1.4373,1.4551,1.4972,1.5565,1.5843,1.6244,1.6775,1.7213,1.76,1.7929,1.8182,1.8356,1.8452,1.8302,1.8018,1.7623,1.7,1.6729,1.6637,1.6853,1.7179,1.7556,1.782,1.8213,1.8583,1.8625,1.8946,1.9263,1.9133,1.8815,1.8398,1.7952,1.7634,1.7245,1.6684,1.642,1.6202,1.5788,1.5672,1.5604,1.542,1.5254,1.5098,1.4911,1.4497,1.407,1.389,1.364,1.3511,1.364,1.383,1.395,1.407,1.395,1.37,1.3208,1.2834,1.2528,1.2359,1.2174,0.0,1.2621,1.3155,1.364,1.4061,1.4606,1.5196,1.5758,1.64,1.692,1.7412,1.7975,1.8476,1.8744,1.9158,1.9512,1.9798,1.9978,2.0042,1.999,1.9862,1.9592,1.921,1.9364,1.9629,1.9936,2.0266,2.0586,2.0839,2.0733,2.054,2.039,2.0798,2.1057,2.129,0.6415,0.7182,0.7733,0.8376,0.727,0.6116,0.5776,0.7347,0.835,0.7852,0.7733,0.7807,0.7941,0.8393,0.8907,0.9476,1.0129,1.0766,1.1392,1.1926,1.2359,1.287,1.3183,1.3537,1.3888,1.4373,1.4855,1.5439,1.5901,1.6415,1.7045,1.7457,1.7689,1.7689,1.7689,1.7123,1.6218,1.5864,1.5642,1.5642,1.57,1.6036,1.6585,1.6877,1.7224,1.7523,1.7788,1.8278,1.8721,1.8721,1.8344,1.781,1.7634,1.719,1.6684,1.6285,1.6009,1.5788,1.5536,1.5478,1.542,1.5264,1.5147,1.4911,1.4437,1.413,1.3769,1.3285,1.3103,1.3103,1.3103,1.3398,1.3571,1.345,1.3199,1.2834,1.229,1.1856,1.149,1.1303,1.124,1.1428,1.1934,1.2674,1.3216,1.3571,1.4231,1.4824,1.5294,1.5874,1.6513,1.7067,1.759,1.8084,1.8625,1.9028,1.9448,1.9798,2.008,2.0131,1.999,1.9862,1.9592,1.921,1.9278,1.9527,1.9947,2.0156,2.0347,2.0464,2.0475,2.0346,2.0161,2.0238,2.0577,2.1112,0.3904,0.4235,0.4361,0.4298,0.3364,0.2371,0.1451,0.23,0.3682,0.557,0.5847,0.5851,0.5774,0.6229,0.6755,0.7298,0.8016,0.8661,0.9372,0.9882,1.0445,1.0996,1.1308,1.168,1.2181,1.2594,1.3141,1.387,1.4473,1.5129,1.5833,1.6368,1.6662,1.6595,1.6301,1.5728,1.4982,1.4678,1.451,1.4519,1.4688,1.504,1.5507,1.5921,1.6265,1.656,1.6775,1.7056,1.739,1.7843,1.7689,1.72,1.7088,1.6684,1.6285,1.5884,1.5652,1.5488,1.5254,1.5196,1.5196,1.5088,1.4911,1.4606,1.4189,1.3821,1.3398,1.2928,1.2736,1.2613,1.2613,1.2789,1.2781,1.2536,1.2228,1.1787,1.1219,1.0787,1.0471,1.0218,1.0218,1.0408,1.0975,1.1545,1.2236,1.3155,1.3821,1.435,1.4824,1.541,1.5979,1.6595,1.7179,1.7689,1.8224,1.8655,1.9081,1.9488,1.9759,1.9926,1.999,1.9862,1.9604,1.9263,1.9114,1.9186,1.9379,1.9799,2.0083,2.0259,2.0205,2.0009,1.9813,1.9813,2.0247,2.0823,0.0795,0.0859,0.066,-0.0132,-0.0725,-0.1516,-0.264,-0.2645,-0.1123,0.2786,0.3394,0.3462,0.3392,0.3848,0.4378,0.4995,0.58,0.6593,0.7111,0.7742,0.8313,0.889,0.9209,0.9597,1.0236,1.06,1.121,1.2028,1.289,1.3631,1.4355,1.5021,1.5255,1.5177,1.4591,1.4058,1.3597,1.3287,1.3235,1.3252,1.3545,1.3914,1.4341,1.4756,1.5157,1.5449,1.5633,1.569,1.5816,1.6606,1.674,1.6534,1.64,1.6171,1.5826,1.542,1.5294,1.5177,1.4961,1.4902,1.4911,1.4852,1.4606,1.43,1.3941,1.3519,1.3033,1.2621,1.2313,1.2182,1.2182,1.212,1.1996,1.1615,1.1303,1.0793,1.0148,0.9703,0.9326,0.9128,0.9128,0.932,0.9894,1.0345,1.1108,1.2351,1.3094,1.3761,1.4291,1.4815,1.5459,1.6026,1.6606,1.7179,1.7678,1.817,1.8602,1.9028,1.9291,1.9565,1.9772,1.9656,1.9448,1.9158,1.8786,1.8771,1.8953,1.9427,1.9819,2.0042,1.9857,1.9736,1.9605,1.9605,1.9905,2.0504,-0.2703,-0.2829,-0.3087,-0.3612,-0.4333,-0.5462,-0.7423,-0.6542,-0.4549,-0.1457,-0.0598,-0.0133,0.0333,0.1062,0.1726,0.2398,0.3747,0.4553,0.4659,0.5512,0.6106,0.6429,0.6945,0.7335,0.7728,0.8361,0.9064,0.9775,1.0781,1.1658,1.2456,1.3141,1.3374,1.3159,1.2692,1.2166,1.1757,1.1578,1.1578,1.1703,1.195,1.2389,1.3009,1.3312,1.3597,1.3948,1.4264,1.4392,1.4451,1.4697,1.5245,1.5788,1.571,1.5488,1.5264,1.5088,1.4902,1.4706,1.4597,1.4529,1.4478,1.4309,1.413,1.3941,1.345,1.3094,1.2736,1.2251,1.1872,1.1685,1.1802,1.1615,1.1303,1.0926,1.0471,0.9894,0.9204,0.8565,0.8112,0.7902,0.7902,0.8096,0.8613,0.939,1.0148,1.0703,1.1911,1.2911,1.3571,1.4034,1.4628,1.5284,1.5758,1.6322,1.6888,1.749,1.7995,1.8387,1.8827,1.9093,1.9093,1.9093,1.8815,1.8387,1.8247,1.8464,1.8917,1.9262,1.9639,1.9933,1.9671,1.9605,1.9605,1.9605,1.9637,1.9743,-0.6286,-0.6407,-0.6664,-0.7255,-0.784,-0.8573,-0.9603,-0.9191,-0.8255,-0.6806,-0.4677,-0.3253,-0.3199,-0.2534,-0.1668,-0.0534,0.0466,0.133,0.186,0.2523,0.3253,0.3848,0.4177,0.4907,0.5913,0.6025,0.6538,0.7459,0.8409,0.9237,0.9939,1.0622,1.0871,1.0746,1.0316,0.9951,0.9648,0.9476,0.9609,0.9857,1.0242,1.0759,1.1337,1.1888,1.2189,1.2427,1.274,1.2862,1.287,1.2992,1.3786,1.4815,1.4756,1.4647,1.4428,1.4309,1.4249,1.4121,1.3932,1.3932,1.3872,1.3821,1.358,1.3346,1.3042,1.2674,1.2251,1.1872,1.1435,1.1122,1.1185,1.08,1.0421,1.0098,0.9384,0.8678,0.8042,0.7386,0.6929,0.6671,0.6666,0.6924,0.7386,0.8096,0.8801,0.9372,1.1087,1.2297,1.272,1.3321,1.3863,1.4282,1.4874,1.54,1.5853,1.6436,1.6944,1.739,1.7941,1.8321,1.8483,1.8548,1.8344,1.7909,1.7579,1.7742,1.8235,1.8531,1.889,1.9233,1.9378,1.9274,1.9142,1.9142,1.9142,1.9214,-0.9631,-0.9762,-1.0019,-1.0546,-1.094,-1.1334,-1.1658,-1.1534,-1.1293,-1.0996,-0.8728,-0.6876,-0.621,-0.5617,-0.4683,-0.3476,-0.2722,-0.1985,-0.1129,-0.0731,-0.0,0.1063,0.1396,0.2128,0.3396,0.339,0.3916,0.4844,0.6021,0.6802,0.7251,0.8014,0.834,0.8292,0.7911,0.7653,0.7459,0.7414,0.7548,0.7931,0.8382,0.8907,0.9494,1.0053,1.0431,1.062,1.0927,1.1058,1.1128,1.1183,1.192,1.2967,1.3476,1.3614,1.3511,1.3398,1.3346,1.3338,1.3208,1.3147,1.3147,1.3208,1.2972,1.2744,1.2613,1.2243,1.1747,1.131,1.087,1.0548,1.0421,0.9977,0.9536,0.9139,0.8361,0.7582,0.6933,0.6338,0.5877,0.5557,0.562,0.5811,0.6141,0.6793,0.7437,0.8086,0.9685,1.1031,1.1794,1.2405,1.2834,1.3191,1.3734,1.4282,1.4697,1.5342,1.5911,1.6415,1.6989,1.7435,1.771,1.7831,1.7744,1.7423,1.7022,1.712,1.7531,1.7817,1.8166,1.8593,1.8909,1.8885,1.8674,1.8674,1.8607,1.859,-1.2676,-1.2753,-1.2951,-1.3399,-1.3588,-1.3708,-1.3906,-1.3657,-1.3381,-1.3169,-1.2545,-1.108,-0.8452,-0.7707,-0.7107,-0.6396,-0.5679,-0.4944,-0.4257,-0.4268,-0.3602,-0.2132,-0.1535,-0.0935,-0.0267,0.0467,0.1201,0.1931,0.3727,0.459,0.4578,0.5436,0.5767,0.5643,0.5657,0.5526,0.5325,0.5325,0.5588,0.5986,0.6314,0.6837,0.7493,0.7802,0.8195,0.8527,0.8709,0.8849,0.9052,0.9215,0.947,1.0046,1.1757,1.2389,1.2512,1.2359,1.2305,1.2305,1.2305,1.2305,1.2367,1.2482,1.2428,1.2243,1.212,1.1685,1.1115,1.0428,1.0174,0.9919,0.9582,0.9145,0.8641,0.8117,0.7391,0.6662,0.6005,0.5481,0.502,0.4625,0.4625,0.4688,0.4815,0.5474,0.6133,0.6654,0.7567,0.8854,1.071,1.117,1.1545,1.2012,1.232,1.2818,1.3502,1.4323,1.4963,1.5429,1.6016,1.6472,1.6821,1.6944,1.6965,1.6818,1.6637,1.6775,1.7116,1.7328,1.7726,1.8196,1.8445,1.8414,1.8337,1.8337,1.8212,1.8008,-1.5032,-1.5041,-1.5109,-1.5235,-1.5361,-1.5477,-1.5545,-1.5323,-1.5059,-1.484,-1.4378,-1.3606,-1.2533,-1.0774,-0.9439,-0.8891,-0.8201,-0.751,-0.6811,-0.6294,-0.5701,-0.4844,-0.432,-0.3727,-0.306,-0.2463,-0.1931,-0.1599,-0.0066,0.113,0.1997,0.2462,0.2795,0.2863,0.2871,0.2806,0.2806,0.3411,0.3678,0.3737,0.4066,0.4728,0.546,0.5844,0.624,0.6576,0.6833,0.6967,0.7033,0.7219,0.7543,0.7867,0.8436,0.9724,1.1017,1.0968,1.1101,1.1303,1.1303,1.1365,1.1428,1.1483,1.1365,1.124,1.1247,1.0807,1.0231,0.9722,0.9408,0.9087,0.8877,0.8301,0.7782,0.7321,0.6535,0.5811,0.5087,0.442,0.3887,0.3558,0.3355,0.3355,0.3556,0.4079,0.4607,0.5137,0.6059,0.7367,0.9238,0.9818,1.0262,1.064,1.108,1.164,1.2328,1.3061,1.3777,1.4433,1.508,1.5613,1.6208,1.6104,1.5989,1.5999,1.5826,1.5838,1.5949,1.6387,1.6773,1.7209,1.7448,1.76,1.7657,1.7579,1.7451,1.7254,-1.6856,-1.68,-1.6754,-1.6754,-1.681,-1.681,-1.681,-1.6595,-1.6446,-1.6316,-1.5914,-1.5526,-1.5332,-1.3714,-1.2292,-1.1287,-1.0615,-0.9964,-0.9382,-0.8676,-0.8099,-0.7593,-0.701,-0.6359,-0.5636,-0.5107,-0.4584,-0.4259,-0.2926,-0.193,-0.1199,-0.0466,-0.0,0.02,0.0401,0.0535,0.0535,0.1206,0.1541,0.1605,0.1938,0.2606,0.334,0.3668,0.3997,0.4331,0.4866,0.4935,0.4932,0.5127,0.5456,0.5789,0.5789,0.6954,0.8377,0.9175,0.964,0.9837,1.0091,1.0218,1.0275,1.0408,1.0351,1.0288,1.0091,0.9716,0.9274,0.8753,0.8436,0.8177,0.7772,0.7251,0.6728,0.6268,0.5547,0.4755,0.4159,0.3692,0.3224,0.2891,0.2622,0.2554,0.269,0.2883,0.3145,0.3611,0.4478,0.5599,0.6967,0.8071,0.8854,0.9244,0.9691,1.0262,1.1017,1.1764,1.2512,1.3252,1.4145,1.4855,1.5342,1.5362,1.5303,1.5245,1.5177,1.5059,1.498,1.5467,1.5823,1.6166,1.6459,1.6745,1.689,1.6751,1.6542,1.6342,-1.8255,-1.8104,-1.8007,-1.8007,-1.7897,-1.7831,-1.7831,-1.7655,-1.7545,-1.749,-1.7153,-1.6917,-1.6881,-1.6371,-1.5367,-1.3628,-1.2813,-1.2235,-1.1905,-1.1224,-1.0669,-1.0236,-0.9533,-0.889,-0.8184,-0.7529,-0.688,-0.6298,-0.5114,-0.4596,-0.474,-0.3332,-0.2534,-0.2339,-0.1803,-0.1535,-0.1536,-0.1138,-0.0804,-0.0469,-0.0134,0.0469,0.1072,0.1273,0.1607,0.1939,0.2678,0.2813,0.2744,0.2947,0.3349,0.3813,0.3813,0.414,0.4995,0.7167,0.7902,0.8161,0.8667,0.8796,0.8924,0.9256,0.9326,0.9192,0.8672,0.8479,0.8231,0.7521,0.7391,0.7125,0.64,0.6005,0.5609,0.5087,0.4425,0.3761,0.3226,0.3092,0.2891,0.2423,0.2154,0.2018,0.2018,0.1813,0.1811,0.208,0.2883,0.3618,0.4154,0.5932,0.7177,0.7832,0.8161,0.8742,0.964,1.0451,1.1212,1.1981,1.3243,1.4034,1.441,1.4647,1.4715,1.4588,1.4588,1.441,1.4156,1.4585,1.4853,1.5115,1.5495,1.5746,1.5956,1.5754,1.5559,1.5355,-1.9423,-1.9279,-1.9186,-1.904,-1.904,-1.8987,-1.8987,-1.8857,-1.875,-1.8655,-1.8294,-1.8009,-1.7838,-1.7467,-1.7036,-1.6465,-1.4983,-1.3999,-1.3614,-1.2951,-1.2525,-1.2289,-1.1673,-1.1114,-1.0656,-1.0084,-0.9325,-0.8313,-0.7464,-0.682,-0.6363,-0.5709,-0.5186,-0.4731,-0.4392,-0.4127,-0.3931,-0.3407,-0.2941,-0.2538,-0.2611,-0.2074,-0.1136,-0.0938,-0.0603,-0.0268,0.0201,0.0536,0.0736,0.0938,0.1272,0.1606,0.1741,0.2075,0.2808,0.513,0.6121,0.651,0.6915,0.7107,0.7233,0.7442,0.7637,0.7632,0.7237,0.7242,0.712,0.64,0.6141,0.5877,0.5276,0.4882,0.4486,0.3954,0.3489,0.3092,0.2693,0.2017,0.1412,0.0941,0.0672,0.0538,0.0538,0.0605,0.0873,0.1344,0.1814,0.2216,0.2683,0.3618,0.4812,0.633,0.6724,0.7312,0.8156,0.8924,1.0002,1.1469,1.232,1.2879,1.3191,1.3373,1.3433,1.3373,1.3373,1.3373,1.326,1.3291,1.3489,1.3808,1.3892,1.4122,1.4407,1.4458,1.441,1.4194,-2.0346,-2.0258,-2.0105,-1.9965,-1.9926,-1.9823,-1.9772,-1.9708,-1.9656,-1.9552,-1.9275,-1.9064,-1.8886,-1.8584,-1.8317,-1.8159,-1.662,-1.5593,-1.5409,-1.4876,-1.4396,-1.4227,-1.3631,-1.3149,-1.2761,-1.2212,-1.1465,-1.0461,-0.9832,-0.9255,-0.8612,-0.8115,-0.7733,-0.7339,-0.6811,-0.6485,-0.6298,-0.565,-0.5124,-0.4722,-0.4737,-0.4204,-0.3465,-0.3336,-0.3004,-0.2603,-0.207,-0.1736,-0.147,-0.1472,-0.107,-0.0468,-0.0335,-0.0,0.0536,0.2,0.3533,0.4869,0.5067,0.5266,0.5463,0.5731,0.5862,0.5924,0.5661,0.5661,0.5602,0.5216,0.509,0.4894,0.4628,0.4298,0.3758,0.2883,0.2417,0.1949,0.1546,0.1008,0.0403,-0.0067,-0.047,-0.0739,-0.0739,-0.047,-0.0202,0.0067,0.0605,0.1075,0.1477,0.2083,0.3153,0.4882,0.5345,0.5935,0.6715,0.7827,0.8982,1.0255,1.0947,1.1392,1.1764,1.195,1.2074,1.2074,1.2074,1.2074,1.2012,1.1896,1.21,1.236,1.2336,1.2562,1.3001,1.2956,1.2898,1.2806,-2.1202,-2.1042,-2.0944,-2.0759,-2.0673,-2.0523,-2.0372,-2.0372,-2.0372,-2.0334,-2.0156,-1.9965,-1.9938,-1.9606,-1.9337,-1.9174,-1.7972,-1.7202,-1.6989,-1.6585,-1.6177,-1.5901,-1.5429,-1.5012,-1.4582,-1.4058,-1.3451,-1.2639,-1.215,-1.1658,-1.1155,-1.0481,-1.0097,-0.9895,-0.9191,-0.8809,-0.8628,-0.7991,-0.7474,-0.7015,-0.6763,-0.631,-0.5844,-0.5778,-0.545,-0.492,-0.4323,-0.3931,-0.3737,-0.388,-0.3345,-0.2606,-0.241,-0.2076,-0.1674,-0.1272,0.0602,0.2676,0.3008,0.3276,0.3544,0.3941,0.401,0.401,0.3875,0.3875,0.3877,0.3756,0.3761,0.3763,0.3701,0.3433,0.2891,0.1677,0.1141,0.0672,0.0134,-0.0134,-0.047,-0.0941,-0.1479,-0.1748,-0.1748,-0.1479,-0.1276,-0.1276,-0.0605,-0.0,0.0336,0.0874,0.1813,0.3153,0.3889,0.4616,0.5401,0.6907,0.7957,0.8667,0.9308,0.9818,1.0129,1.0508,1.0634,1.0634,1.0634,1.0571,1.0451,1.0451,1.054,1.064,1.0686,1.0999,1.1359,1.123,1.1275,1.1273,-2.1888,-2.1841,-2.1746,-2.1506,-2.141,-2.1361,-2.1215,-2.1215,-2.1166,-2.1082,-2.1028,-2.0832,-2.05,-2.0434,-2.0268,-2.0029,-1.9619,-1.8939,-1.7984,-1.76,-1.7379,-1.7146,-1.6708,-1.6404,-1.6146,-1.5593,-1.5061,-1.4622,-1.4159,-1.3725,-1.3236,-1.2708,-1.2342,-1.2028,-1.1465,-1.1023,-1.0718,-1.0223,-0.9717,-0.9215,-0.9012,-0.8756,-0.8377,-0.8045,-0.7723,-0.7339,-0.6824,-0.6302,-0.5851,-0.5657,-0.5328,-0.4998,-0.4466,-0.4204,-0.3875,-0.3072,-0.2473,-0.1672,0.0401,0.1272,0.1607,0.1741,0.1941,0.2009,0.1808,0.1874,0.1876,0.1407,0.1339,0.1273,0.094,0.0873,0.0604,-0.0067,-0.0201,-0.0403,-0.0807,-0.1276,-0.1812,-0.2485,-0.2552,-0.2552,-0.2552,-0.235,-0.2149,-0.2013,-0.1478,-0.1076,-0.1076,-0.0269,0.0336,0.0604,0.1878,0.3215,0.4483,0.5467,0.6318,0.7042,0.7747,0.8205,0.8592,0.8784,0.8913,0.8913,0.8913,0.8843,0.8849,0.8656,0.8619,0.8668,0.8743,0.8867,0.898,0.9389,0.9416,0.9259,-2.2324,-2.2324,-2.2278,-2.2091,-2.2044,-2.1996,-2.1841,-2.1841,-2.1793,-2.1746,-2.1684,-2.1527,-2.1264,-2.1188,-2.1002,-2.0756,-2.0646,-2.0245,-1.9515,-1.8845,-1.8429,-1.8267,-1.7831,-1.749,-1.7135,-1.6754,-1.6461,-1.6203,-1.5803,-1.5458,-1.51,-1.4681,-1.4328,-1.4031,-1.3596,-1.3176,-1.2813,-1.2387,-1.1958,-1.1596,-1.1396,-1.1148,-1.0843,-1.0573,-1.014,-0.9642,-0.9197,-0.8692,-0.812,-0.7792,-0.7469,-0.7154,-0.6628,-0.6306,-0.5917,-0.5384,-0.427,-0.2947,-0.1806,-0.107,-0.0602,-0.0468,-0.0268,-0.0201,-0.0401,-0.0268,-0.0268,-0.0669,-0.0736,-0.1004,-0.1743,-0.1877,-0.2012,-0.2281,-0.2348,-0.2348,-0.2415,-0.2616,-0.2883,-0.3357,-0.3357,-0.3288,-0.3288,-0.3222,-0.3086,-0.2883,-0.2552,-0.2218,-0.2016,-0.1477,-0.1141,-0.0941,0.094,0.235,0.3082,0.3811,0.4538,0.5269,0.5858,0.6318,0.6645,0.6972,0.7102,0.7102,0.7102,0.7102,0.7102,0.6976,0.6976,0.6985,0.7012,0.7109,0.7219,0.7469,0.7535,0.7436,-2.2783,-2.2783,-2.2737,-2.2601,-2.254,-2.2509,-2.2402,-2.2356,-2.231,-2.231,-2.2217,-2.2109,-2.1974,-2.1827,-2.1698,-2.1472,-2.1417,-2.1251,-2.0957,-2.0144,-1.9592,-1.9239,-1.8815,-1.8387,-1.7995,-1.7831,-1.771,-1.7545,-1.7246,-1.6968,-1.6698,-1.6384,-1.6099,-1.5833,-1.5525,-1.5168,-1.469,-1.4446,-1.4091,-1.3751,-1.3622,-1.3374,-1.3072,-1.2882,-1.2448,-1.1835,-1.1465,-1.0913,-1.0355,-0.9971,-0.9654,-0.9279,-0.8762,-0.8388,-0.8006,-0.7678,-0.6102,-0.4463,-0.3877,-0.334,-0.2871,-0.2669,-0.2539,-0.2473,-0.2603,-0.2538,-0.2473,-0.2804,-0.2871,-0.3139,-0.4015,-0.4154,-0.4154,-0.4223,-0.4223,-0.4087,-0.3951,-0.3951,-0.402,-0.4223,-0.4289,-0.4289,-0.4289,-0.4223,-0.4156,-0.3954,-0.3689,-0.3355,-0.295,-0.2683,-0.235,-0.2017,0.0134,0.1412,0.1677,0.2144,0.2811,0.3682,0.4148,0.4547,0.4809,0.514,0.5342,0.5411,0.5411,0.5477,0.5543,0.5543,0.5411,0.5272,0.5272,0.5339,0.5508,0.5545,0.556,0.561,-2.3231,-2.3231,-2.3231,-2.3083,-2.3038,-2.2979,-2.2844,-2.274,-2.2649,-2.2649,-2.2586,-2.2526,-2.2381,-2.237,-2.2273,-2.2132,-2.1993,-2.1927,-2.1888,-2.1458,-2.0858,-1.994,-1.9565,-1.921,-1.8934,-1.8881,-1.8827,-1.8679,-1.8483,-1.8244,-1.7984,-1.771,-1.7435,-1.7213,-1.6989,-1.6641,-1.6327,-1.6177,-1.5833,-1.5429,-1.5429,-1.5177,-1.4866,-1.474,-1.4387,-1.3921,-1.3382,-1.289,-1.2411,-1.1935,-1.1571,-1.126,-1.0878,-1.0451,-1.0009,-0.9609,-0.9087,-0.8115,-0.5982,-0.5397,-0.5262,-0.4923,-0.4857,-0.4857,-0.4857,-0.4857,-0.4857,-0.5058,-0.5058,-0.5061,-0.5193,-0.5067,-0.5074,-0.5209,-0.5074,-0.5074,-0.5143,-0.5345,-0.5481,-0.5481,-0.562,-0.5756,-0.5756,-0.555,-0.5418,-0.5292,-0.4888,-0.455,-0.4154,-0.3685,-0.3153,-0.2619,-0.1141,-0.0067,0.0403,0.0805,0.1541,0.2618,0.2887,0.3153,0.3349,0.3416,0.3618,0.4025,0.4025,0.4161,0.4431,0.4431,0.4025,0.3416,0.3416,0.342,0.3437,0.3528,0.3635,0.3655,-2.3319,-2.3319,-2.3275,-2.3231,-2.3216,-2.3216,-2.3172,-2.3083,-2.3083,-2.3083,-2.3038,-2.2994,-2.2846,-2.2814,-2.2783,-2.2649,-2.2589,-2.2512,-2.237,-2.2231,-2.1636,-2.0396,-2.0067,-1.9811,-1.9643,-1.954,-1.9448,-1.9396,-1.9331,-1.9174,-1.8922,-1.8815,-1.8602,-1.8236,-1.8182,-1.7941,-1.7589,-1.7545,-1.7313,-1.7045,-1.7045,-1.681,-1.6507,-1.6291,-1.5985,-1.5573,-1.5129,-1.4601,-1.4118,-1.3819,-1.3408,-1.2984,-1.2671,-1.2312,-1.1888,-1.137,-1.1121,-1.0801,-0.9578,-0.8436,-0.7478,-0.7279,-0.7019,-0.6885,-0.7024,-0.6894,-0.6763,-0.6967,-0.6967,-0.6967,-0.6967,-0.6907,-0.6911,-0.6976,-0.6911,-0.6911,-0.6976,-0.7046,-0.7051,-0.692,-0.699,-0.6994,-0.6868,-0.6671,-0.6539,-0.6338,-0.6141,-0.5807,-0.5345,-0.4752,-0.4289,-0.3889,-0.3215,-0.2278,-0.1074,-0.0872,-0.0336,0.0671,0.094,0.1276,0.1543,0.1812,0.1946,0.1946,0.1946,0.1945,0.1942,0.1942,0.1877,0.1744,0.1744,0.1812,0.1882,0.197,0.1978,0.1986,-2.3392,-2.3392,-2.3392,-2.3392,-2.3392,-2.3392,-2.3392,-2.3363,-2.3363,-2.3363,-2.3319,-2.3275,-2.3172,-2.3157,-2.3127,-2.3008,-2.3038,-2.2979,-2.2814,-2.2678,-2.2109,-2.0957,-2.0673,-2.0422,-2.0245,-2.0105,-2.0055,-2.0055,-2.0055,-1.9965,-1.972,-1.9668,-1.946,-1.9146,-1.9146,-1.8987,-1.8709,-1.8655,-1.8494,-1.8278,-1.8278,-1.8061,-1.7831,-1.7611,-1.7313,-1.6957,-1.6595,-1.614,-1.5671,-1.5429,-1.5021,-1.456,-1.4314,-1.3957,-1.3485,-1.3053,-1.2931,-1.2879,-1.2435,-1.1293,-1.0097,-0.9418,-0.9029,-0.8832,-0.8913,-0.8715,-0.865,-0.8854,-0.8854,-0.8918,-0.8918,-0.8854,-0.879,-0.879,-0.8667,-0.8603,-0.8603,-0.8603,-0.8544,-0.835,-0.835,-0.8291,-0.8096,-0.7907,-0.7777,-0.7572,-0.7447,-0.7055,-0.64,-0.5939,-0.5481,-0.515,-0.4951,-0.4348,-0.3143,-0.2616,-0.1949,-0.1276,-0.094,-0.0604,-0.0336,-0.0,0.0067,0.0134,-0.0,-0.0268,-0.067,-0.067,-0.0469,-0.0134,-0.0134,0.0134,0.0403,0.0403,0.0403,0.0404,-2.3595,-2.3595,-2.3595,-2.3595,-2.3595,-2.3595,-2.3595,-2.3538,-2.3509,-2.3509,-2.3363,-2.3319,-2.3319,-2.329,-2.3304,-2.3319,-2.3275,-2.3319,-2.3319,-2.292,-2.2388,-2.165,-2.1375,-2.1068,-2.0809,-2.066,-2.061,-2.061,-2.061,-2.056,-2.0422,-2.0283,-2.0118,-1.9991,-1.985,-1.9759,-1.9617,-1.9473,-1.9356,-1.9186,-1.904,-1.8946,-1.8798,-1.8679,-1.8387,-1.8093,-1.7831,-1.739,-1.7,-1.6888,-1.6436,-1.5931,-1.5931,-1.5449,-1.4855,-1.4579,-1.4529,-1.4469,-1.4094,-1.3855,-1.3252,-1.1329,-1.0836,-1.0773,-1.0577,-1.0514,-1.0577,-1.0773,-1.0836,-1.0829,-1.1017,-1.0766,-1.0514,-1.0514,-1.0268,-1.0015,-1.0015,-1.0015,-0.9958,-0.9837,-0.9837,-0.9709,-0.9518,-0.9396,-0.9198,-0.9058,-0.8801,-0.835,-0.7451,-0.712,-0.6793,-0.6396,-0.6207,-0.6075,-0.5939,-0.4348,-0.3286,-0.2889,-0.2619,-0.235,-0.208,-0.208,-0.1878,-0.1408,-0.1676,-0.2348,-0.3226,-0.3226,-0.2753,-0.208,-0.208,-0.1678,-0.1143,-0.1143,-0.1143,-0.1143,-2.3882,-2.3882,-2.3839,-2.3739,-2.3739,-2.3696,-2.3595,-2.3551,-2.3566,-2.3566,-2.3523,-2.3523,-2.3523,-2.3508,-2.3508,-2.3494,-2.3523,-2.3465,-2.3436,-2.3216,-2.2994,-2.2663,-2.2077,-2.1698,-2.1636,-2.141,-2.1313,-2.1313,-2.1215,-2.1068,-2.0983,-2.0934,-2.0772,-2.0547,-2.0497,-2.0459,-2.0308,-2.0258,-2.0118,-1.9914,-1.9862,-1.972,-1.95,-1.9251,-1.9093,-1.8975,-1.8614,-1.8224,-1.7886,-1.7765,-1.7368,-1.6933,-1.6719,-1.6436,-1.6036,-1.5853,-1.569,-1.5526,-1.5206,-1.504,-1.451,-1.294,-1.2389,-1.2205,-1.2143,-1.2012,-1.195,-1.2143,-1.2205,-1.2266,-1.2389,-1.2258,-1.2143,-1.2143,-1.1888,-1.1764,-1.1764,-1.1655,-1.1538,-1.1392,-1.1281,-1.1108,-1.0793,-1.0591,-1.0465,-1.0281,-0.9831,-0.9384,-0.8753,-0.8479,-0.8215,-0.7902,-0.7707,-0.7577,-0.7512,-0.5804,-0.4749,-0.4217,-0.4015,-0.3682,-0.3286,-0.3153,-0.3084,-0.3084,-0.3153,-0.3487,-0.3956,-0.3956,-0.3689,-0.3286,-0.3286,-0.3017,-0.2547,-0.2547,-0.2547,-0.2547,-2.4109,-2.4094,-2.4009,-2.3909,-2.3824,-2.3782,-2.3696,-2.3638,-2.3595,-2.3595,-2.3595,-2.3595,-2.3595,-2.3595,-2.3595,-2.3595,-2.3595,-2.3551,-2.3538,-2.3451,-2.3319,-2.3275,-2.2768,-2.2449,-2.2296,-2.203,-2.1949,-2.1949,-2.1793,-2.1664,-2.1616,-2.1568,-2.141,-2.1251,-2.1153,-2.1055,-2.1006,-2.0871,-2.0723,-2.0586,-2.0523,-2.0409,-2.0156,-1.9965,-1.9823,-1.9668,-1.9408,-1.9081,-1.8804,-1.875,-1.8429,-1.7929,-1.7556,-1.7335,-1.7168,-1.6933,-1.6821,-1.6662,-1.6415,-1.6187,-1.5901,-1.4963,-1.4145,-1.3554,-1.3494,-1.3425,-1.3416,-1.3597,-1.3666,-1.3786,-1.3906,-1.3846,-1.3726,-1.3657,-1.3476,-1.3347,-1.3304,-1.3199,-1.3078,-1.281,-1.2704,-1.2528,-1.2104,-1.1896,-1.171,-1.1428,-1.0975,-1.0534,-1.0098,-0.9888,-0.9621,-0.9314,-0.9186,-0.9058,-0.8935,-0.7887,-0.6841,-0.5796,-0.5599,-0.5206,-0.468,-0.4547,-0.455,-0.4616,-0.4616,-0.4815,-0.5143,-0.5014,-0.4885,-0.4616,-0.4553,-0.4287,-0.3951,-0.3951,-0.3882,-0.3816,-2.4343,-2.4245,-2.4162,-2.412,-2.3952,-2.3839,-2.3839,-2.3696,-2.3595,-2.3638,-2.3638,-2.3595,-2.3638,-2.3653,-2.3653,-2.3653,-2.3653,-2.3653,-2.3653,-2.3581,-2.3553,-2.3553,-2.3407,-2.3172,-2.283,-2.2586,-2.2463,-2.2463,-2.2324,-2.2263,-2.2263,-2.2123,-2.2077,-2.203,-2.1793,-2.1664,-2.1664,-2.1423,-2.1277,-2.1277,-2.1153,-2.0993,-2.0858,-2.0709,-2.0523,-2.0271,-2.0144,-1.9901,-1.9708,-1.9668,-1.9408,-1.8987,-1.8429,-1.8255,-1.8147,-1.7941,-1.7831,-1.7776,-1.76,-1.7424,-1.7313,-1.7157,-1.6083,-1.4991,-1.4756,-1.4796,-1.4904,-1.508,-1.5216,-1.54,-1.5526,-1.5459,-1.5274,-1.5148,-1.4963,-1.4855,-1.4697,-1.4647,-1.4519,-1.4204,-1.4145,-1.3965,-1.3502,-1.326,-1.2956,-1.2482,-1.2112,-1.1802,-1.149,-1.1274,-1.1017,-1.064,-1.0647,-1.0521,-1.0212,-1.0142,-0.9302,-0.7558,-0.7246,-0.6785,-0.6252,-0.6129,-0.6067,-0.6067,-0.6067,-0.6264,-0.6531,-0.6338,-0.6203,-0.6067,-0.5877,-0.555,-0.5286,-0.5286,-0.515,-0.5014,-2.4846,-2.4726,-2.4605,-2.4441,-2.4317,-2.4135,-2.3982,-2.3839,-2.3797,-2.3882,-2.3839,-2.3797,-2.3882,-2.3925,-2.3925,-2.3925,-2.3885,-2.39,-2.3925,-2.39,-2.39,-2.3897,-2.3855,-2.3797,-2.3711,-2.3216,-2.2949,-2.2949,-2.2799,-2.2754,-2.2754,-2.2709,-2.2663,-2.2526,-2.2449,-2.2324,-2.2231,-2.2044,-2.1949,-2.1841,-2.1793,-2.1698,-2.1554,-2.1313,-2.1166,-2.1118,-2.0845,-2.0597,-2.0359,-2.0118,-1.9862,-1.9592,-1.9475,-1.9226,-1.8963,-1.891,-1.8804,-1.8709,-1.8655,-1.8525,-1.8394,-1.834,-1.8015,-1.7401,-1.6461,-1.6224,-1.6337,-1.6539,-1.6606,-1.6652,-1.681,-1.6708,-1.6606,-1.6539,-1.6404,-1.6234,-1.6083,-1.5968,-1.5796,-1.5507,-1.5323,-1.508,-1.4619,-1.4204,-1.3855,-1.3674,-1.3321,-1.3017,-1.2642,-1.2512,-1.2274,-1.1919,-1.1919,-1.1794,-1.1538,-1.1483,-1.0584,-0.8854,-0.8667,-0.8275,-0.7752,-0.7632,-0.7442,-0.7312,-0.7312,-0.7451,-0.7657,-0.7591,-0.7456,-0.7312,-0.7125,-0.6933,-0.6741,-0.6601,-0.6465,-0.6396,-2.5262,-2.5162,-2.4982,-2.4806,-2.4589,-2.4385,-2.4177,-2.4051,-2.3967,-2.3982,-2.3967,-2.3952,-2.4051,-2.4094,-2.4151,-2.4151,-2.4124,-2.4166,-2.4116,-2.4151,-2.4139,-2.4151,-2.4151,-2.4193,-2.425,-2.3925,-2.3653,-2.3436,-2.329,-2.3246,-2.3246,-2.3246,-2.3157,-2.3083,-2.3038,-2.2904,-2.2814,-2.2768,-2.2632,-2.254,-2.254,-2.2402,-2.2203,-2.2063,-2.1921,-2.1827,-2.1623,-2.1396,-2.1153,-2.0921,-2.0709,-2.056,-2.0396,-2.0194,-1.994,-1.9901,-1.9798,-1.9747,-1.9747,-1.9631,-1.9515,-1.9515,-1.9423,-1.8992,-1.7852,-1.7622,-1.7677,-1.7809,-1.7875,-1.7995,-1.8038,-1.7984,-1.7941,-1.7809,-1.7743,-1.7567,-1.7413,-1.7302,-1.7135,-1.6821,-1.6641,-1.6348,-1.5718,-1.5264,-1.4923,-1.4688,-1.446,-1.4163,-1.3743,-1.3674,-1.3442,-1.3094,-1.3094,-1.3025,-1.2834,-1.265,-1.2151,-1.119,-1.0375,-0.9748,-0.9424,-0.9111,-0.8924,-0.8801,-0.8737,-0.8807,-0.8941,-0.8877,-0.8748,-0.8549,-0.8425,-0.8172,-0.7782,-0.7707,-0.7582,-0.7391,-2.5642,-2.5508,-2.5317,-2.5224,-2.495,-2.467,-2.4467,-2.4287,-2.4162,-2.4177,-2.4177,-2.4204,-2.4245,-2.4343,-2.4426,-2.4426,-2.4426,-2.4436,-2.443,-2.4446,-2.4436,-2.4467,-2.4451,-2.4508,-2.4605,-2.4605,-2.44,-2.3925,-2.3824,-2.3739,-2.3739,-2.3724,-2.3696,-2.3625,-2.3551,-2.3465,-2.3451,-2.3407,-2.3363,-2.326,-2.326,-2.3113,-2.292,-2.2889,-2.274,-2.2558,-2.2434,-2.2263,-2.1983,-2.1841,-2.1698,-2.1554,-2.1286,-2.114,-2.0993,-2.0858,-2.0809,-2.0809,-2.0809,-2.0709,-2.061,-2.0623,-2.0523,-2.0207,-1.9202,-1.8992,-1.898,-1.898,-1.9121,-1.9251,-1.9251,-1.9251,-1.9239,-1.9044,-1.898,-1.8874,-1.8608,-1.8555,-1.8405,-1.8038,-1.7875,-1.7545,-1.6821,-1.6368,-1.6036,-1.569,-1.5459,-1.5177,-1.4765,-1.4706,-1.4538,-1.4181,-1.4181,-1.4121,-1.3932,-1.3743,-1.3631,-1.3511,-1.2197,-1.1384,-1.1017,-1.0577,-1.0332,-1.0268,-1.0085,-1.0148,-1.0212,-1.0091,-0.9901,-0.9709,-0.9588,-0.9204,-0.8812,-0.8807,-0.8554,-0.8306,-2.586,-2.5754,-2.5626,-2.5567,-2.5355,-2.5162,-2.5029,-2.4751,-2.463,-2.4846,-2.467,-2.463,-2.4831,-2.4886,-2.4926,-2.4926,-2.4958,-2.5005,-2.5004,-2.5067,-2.5102,-2.5068,-2.5091,-2.5075,-2.5114,-2.5114,-2.4879,-2.4508,-2.44,-2.4374,-2.4374,-2.4261,-2.4219,-2.4177,-2.4078,-2.3979,-2.3994,-2.3925,-2.3897,-2.3897,-2.3897,-2.3855,-2.3797,-2.3711,-2.3653,-2.3566,-2.3319,-2.3113,-2.2904,-2.2663,-2.2466,-2.2328,-2.2175,-2.2002,-2.1841,-2.1841,-2.1746,-2.165,-2.165,-2.1602,-2.1602,-2.1458,-2.141,-2.1361,-2.1055,-2.0459,-2.0016,-2.0016,-2.0118,-2.022,-2.022,-2.0321,-2.0359,-2.0207,-2.0156,-2.0105,-1.9837,-1.9683,-1.9475,-1.9214,-1.8738,-1.8255,-1.7929,-1.749,-1.7112,-1.6775,-1.6275,-1.5874,-1.57,-1.5468,-1.5177,-1.505,-1.505,-1.4942,-1.4715,-1.4588,-1.4529,-1.4469,-1.3992,-1.3191,-1.2081,-1.1826,-1.1571,-1.1267,-1.1163,-1.1115,-1.1115,-1.0919,-1.0793,-1.0793,-1.0485,-1.0295,-1.0161,-0.9894,-0.9703,-0.9518,-2.6222,-2.6134,-2.5994,-2.5937,-2.577,-2.5584,-2.5416,-2.5185,-2.5068,-2.5107,-2.5052,-2.5107,-2.5185,-2.5339,-2.5416,-2.5416,-2.5476,-2.5546,-2.5551,-2.5572,-2.5577,-2.5584,-2.5605,-2.5589,-2.5663,-2.5663,-2.561,-2.5535,-2.513,-2.491,-2.4926,-2.4871,-2.4775,-2.4735,-2.4719,-2.4704,-2.4704,-2.4679,-2.4679,-2.4695,-2.4614,-2.4574,-2.4477,-2.4436,-2.442,-2.4379,-2.4173,-2.3921,-2.3739,-2.3551,-2.3406,-2.326,-2.3084,-2.292,-2.2754,-2.2678,-2.2572,-2.2526,-2.2434,-2.2342,-2.2296,-2.217,-2.2091,-2.1996,-2.1888,-2.1541,-2.1251,-2.0921,-2.097,-2.1068,-2.1068,-2.1118,-2.1166,-2.1068,-2.1019,-2.0871,-2.0709,-2.061,-2.0409,-2.0003,-1.9488,-1.9016,-1.8738,-1.8321,-1.7886,-1.7512,-1.7123,-1.674,-1.64,-1.6171,-1.5999,-1.5816,-1.5758,-1.5642,-1.5594,-1.5362,-1.5254,-1.5254,-1.501,-1.4341,-1.3321,-1.3009,-1.2757,-1.2573,-1.229,-1.2112,-1.212,-1.1926,-1.174,-1.1615,-1.1428,-1.124,-1.0926,-1.0661,-1.0534,-1.0478]},{"header":{"parameterUnit":"m.s-1","parameterCategory":1,"la1":30.6,"la2":28.766,"lo1":-90.7593,"lo2":-88.6598,"dy":0.0162,"dx":0.0183,"nx":116,"ny":114,"refTime":"2023-09-04T00:00:00:Z","depth":0,"parameterNumber":3,"parameterNumberName":"V-component_of_WINDS"},"data":[0.0,0.0,0.0,0.0,0.0,0.0,0.0,0.0,0.0,0.0,0.0,0.0,0.0,0.0,0.0,0.0,0.0,0.0,0.0,0.0,0.0,0.0,0.0,0.0,0.0,0.0,0.0,0.0,0.0,0.0,0.0,0.0,0.0,0.0,0.0,0.0,0.0,0.0,0.0,0.0,0.0,0.0,0.0,0.0,0.0,0.0,0.0,0.0,0.0,0.0,0.0,0.0,0.0,0.0,0.0,0.0,0.0,0.0,0.0,0.0,0.0,0.0,0.0,0.0,0.0,0.0,0.0,0.0,0.0,0.0,0.0,0.0,0.0,0.0,0.0,0.0,0.0,0.0,0.0,0.0,0.0,0.0,0.0,0.0,0.0,0.0,0.0,0.0,0.0,0.0,0.0,0.0,0.0,0.0,0.0,0.0,0.0,0.0,0.0,0.0,0.0,0.0,0.0,0.0,0.0,0.0,0.0,0.0,0.0,0.0,0.0,0.0,0.0,0.0,0.0,0.0,0.0,0.0,0.0,0.0,0.0,0.0,0.0,0.0,0.0,0.0,0.0,0.0,0.0,0.0,0.0,0.0,0.0,0.0,0.0,0.0,0.0,0.0,0.0,0.0,0.0,0.0,0.0,0.0,0.0,0.0,0.0,0.0,0.0,0.0,0.0,0.0,0.0,0.0,0.0,0.0,0.0,0.0,0.0,0.0,0.0,0.0,0.0,0.0,0.0,0.0,0.0,0.0,0.0,0.0,0.0,0.0,0.0,0.0,0.0,0.0,0.0,0.0,0.0,0.0,0.0,0.0,0.0,0.0,0.0,0.0,0.0,0.0,0.0,0.0,0.0,0.0,0.0,0.0,0.0,0.0,0.0,0.0,0.0,0.0,0.0,0.0,0.0,0.0,0.0,0.0,0.0,0.0,0.0,0.0,0.0,0.0,0.0,0.0,0.0,0.0,0.0,0.0,0.0,0.0,0.0,0.0,0.0,0.0,0.0,0.0,0.0,0.0,0.0,0.0,0.0,0.0,0.0,0.0,0.0,0.0,0.0,0.0,0.0,0.0,0.0,0.0,0.0,0.0,0.0,0.0,0.0,0.0,0.0,0.0,0.0,0.0,0.0,0.0,0.0,0.0,0.0,0.0,0.0,0.0,0.0,0.0,0.0,0.0,0.0,0.0,0.0,0.0,0.0,0.0,0.0,0.0,0.0,0.0,0.0,0.0,0.0,0.0,0.0,0.0,0.0,0.0,0.0,0.0,0.0,0.0,0.0,0.0,0.0,0.0,0.0,0.0,0.0,0.0,0.0,0.0,0.0,0.0,0.0,0.0,0.0,0.0,0.0,0.0,0.0,0.0,0.0,0.0,0.0,0.0,0.0,0.0,0.0,0.0,0.0,0.0,0.0,0.0,0.0,0.0,0.0,0.0,0.0,0.0,0.0,0.0,0.0,0.0,0.0,0.0,0.0,0.0,0.0,0.0,0.0,0.0,0.0,0.0,0.0,0.0,0.0,0.0,0.0,0.0,0.0,0.0,0.0,0.0,0.0,0.0,0.0,0.0,0.0,0.0,0.0,0.0,0.0,0.0,0.0,0.0,0.0,0.0,0.0,0.0,0.0,0.0,0.0,0.0,0.0,0.0,0.0,0.0,0.0,0.0,0.0,0.0,0.0,0.0,0.0,0.0,0.0,0.0,0.0,0.0,0.0,0.0,0.0,0.0,0.0,0.0,0.0,0.0,0.0,0.0,0.0,0.0,0.0,0.0,0.0,0.0,0.0,0.0,0.0,0.0,0.0,0.0,0.0,0.0,0.0,0.0,0.0,0.0,0.0,0.0,0.0,0.0,0.0,0.0,0.0,0.0,0.0,0.0,0.0,0.0,0.0,0.0,0.0,0.0,0.0,0.0,0.0,0.0,0.0,0.0,0.0,0.0,0.0,0.0,0.0,0.0,0.0,0.0,0.0,0.0,0.0,0.0,0.0,0.0,0.0,0.0,0.0,0.0,0.0,0.0,0.0,0.0,0.0,0.0,0.0,0.0,0.0,0.0,0.0,0.0,0.0,0.0,0.0,0.0,0.0,0.0,0.0,0.0,0.0,0.0,0.0,0.0,0.0,0.0,0.0,0.0,0.0,0.0,0.0,0.0,0.0,0.0,0.0,0.0,0.0,0.0,0.0,0.0,0.0,0.0,0.0,0.0,0.0,0.0,0.0,0.0,0.0,0.0,0.0,0.0,0.0,0.0,0.0,0.0,0.0,0.0,0.0,0.0,0.0,0.0,0.0,0.0,0.0,0.0,0.0,0.0,0.0,0.0,0.0,0.0,0.0,0.0,0.0,0.0,0.0,0.0,0.0,0.0,0.0,0.0,0.0,0.0,0.0,0.0,0.0,0.0,0.0,0.0,0.0,0.0,0.0,0.0,0.0,0.0,0.0,0.0,0.0,0.0,0.0,0.0,0.0,0.0,0.0,0.0,0.0,0.0,0.0,0.0,0.0,0.0,0.0,0.0,0.0,0.0,0.0,0.0,0.0,0.0,0.0,0.0,0.0,0.0,0.0,0.0,0.0,0.0,0.0,0.0,0.0,0.0,0.0,0.0,0.0,0.0,0.0,0.0,0.0,0.0,0.0,0.0,0.0,0.0,0.0,0.0,0.0,0.0,0.0,0.0,0.0,0.0,0.0,0.0,0.0,0.0,0.0,0.0,0.0,0.0,0.0,0.0,0.0,0.0,0.0,0.0,0.0,0.0,0.0,0.0,0.0,0.0,0.0,0.0,0.0,0.0,0.0,0.0,0.0,0.0,0.0,0.0,0.0,0.0,0.0,0.0,0.0,0.0,0.0,0.0,0.0,0.0,0.0,0.0,0.0,0.0,0.0,0.0,0.0,0.0,0.0,0.0,0.0,0.0,0.0,0.0,0.0,0.0,0.0,0.0,0.0,0.0,0.0,0.0,0.0,0.0,0.0,0.0,0.0,0.0,0.0,0.0,0.0,0.0,0.0,0.0,0.0,0.0,0.0,0.0,0.0,0.0,0.0,0.0,0.0,0.0,0.0,0.0,0.0,0.0,0.0,0.0,0.0,0.0,0.0,0.0,0.0,0.0,0.0,0.0,0.0,0.0,0.0,0.0,0.0,0.0,0.0,0.0,0.0,0.0,0.0,0.0,0.0,0.0,0.0,0.0,0.0,0.0,0.0,0.0,0.0,0.0,0.0,0.0,0.0,0.0,0.0,0.0,0.0,0.0,0.0,0.0,0.0,0.0,0.0,0.0,0.0,0.0,0.0,0.0,0.0,0.0,0.0,0.0,0.0,0.0,0.0,0.0,0.0,0.0,0.0,0.0,0.0,0.0,0.0,0.0,0.0,0.0,0.0,0.0,0.0,0.0,0.0,0.0,0.0,0.0,0.0,0.0,0.0,0.0,0.0,0.0,0.0,0.0,0.0,0.0,0.0,0.0,0.0,0.0,0.0,0.0,0.0,0.0,0.0,0.0,0.0,0.0,0.0,0.0,0.0,0.0,0.0,0.0,0.0,0.0,0.0,0.0,0.0,0.0,0.0,0.0,0.0,0.0,0.0,0.0,0.0,0.0,0.0,0.0,0.0,0.0,0.0,0.0,0.0,0.0,0.0,0.0,0.0,0.0,0.0,0.0,0.0,0.0,0.0,0.0,0.0,0.0,0.0,0.0,0.0,0.0,0.0,0.0,0.0,0.0,0.0,0.0,0.0,0.0,0.0,0.0,0.0,0.0,0.0,0.0,0.0,0.0,0.0,0.0,0.0,0.0,0.0,0.0,0.0,0.0,0.0,0.0,0.0,0.0,0.0,0.0,0.0,0.0,0.0,0.0,0.0,0.0,0.0,0.0,0.0,0.0,0.0,0.0,0.0,0.0,0.0,0.0,0.0,0.0,0.0,0.0,0.0,0.0,0.0,0.0,0.0,0.0,0.0,0.0,0.0,0.0,0.0,0.0,0.0,0.0,0.0,0.0,0.0,0.0,0.0,0.0,0.0,0.0,0.0,0.0,0.0,0.0,0.0,0.0,0.0,0.0,0.0,0.0,0.0,0.0,0.0,0.0,0.0,0.0,0.0,0.0,0.0,0.0,0.0,0.0,0.0,0.0,0.0,0.0,0.0,0.0,0.0,0.0,0.0,0.0,0.0,0.0,0.0,0.0,0.0,0.0,0.0,0.0,0.0,0.0,0.0,0.0,0.0,0.0,0.0,0.0,0.0,0.0,0.0,0.0,0.0,0.0,0.0,0.0,0.0,0.0,0.0,0.0,0.0,0.0,0.0,0.0,0.0,0.0,0.0,0.0,0.0,0.0,0.0,0.0,0.0,0.0,0.0,0.0,0.0,0.0,0.0,0.0,0.0,0.0,0.0,0.0,0.0,0.0,0.0,0.0,0.0,0.0,0.0,0.0,0.0,0.0,0.0,0.0,0.0,0.0,0.0,0.0,0.0,0.0,0.0,0.0,0.0,0.0,0.0,0.0,0.0,0.0,0.0,0.0,0.0,0.0,0.0,0.0,0.0,0.0,0.0,0.0,0.0,0.0,0.0,0.0,0.0,0.0,0.0,0.0,0.0,0.0,0.0,0.0,0.0,0.0,0.0,0.0,0.0,0.0,0.0,0.0,0.0,0.0,0.0,0.0,0.0,0.0,0.0,0.0,0.0,0.0,0.0,0.0,0.0,0.0,0.0,0.0,0.0,0.0,0.0,0.0,0.0,0.0,0.0,0.0,0.0,0.0,0.0,0.0,0.0,0.0,0.0,0.0,0.0,0.0,0.0,0.0,0.0,0.0,0.0,0.0,0.0,0.0,0.0,0.0,0.0,0.0,0.0,0.0,0.0,0.0,0.0,0.0,0.0,0.0,0.0,0.0,0.0,0.0,0.0,0.0,0.0,0.0,0.0,0.0,0.0,0.0,0.0,0.0,0.0,0.0,0.0,0.0,0.0,0.0,0.0,0.0,0.0,0.0,0.0,0.0,0.0,0.0,0.0,0.0,0.0,0.0,0.0,0.0,0.0,0.0,0.0,0.0,0.0,0.0,0.0,0.0,0.0,0.0,0.0,0.0,0.0,0.0,0.0,0.0,0.0,0.0,0.0,0.0,0.0,0.0,0.0,0.0,0.0,0.0,0.0,0.0,0.0,0.0,0.0,0.0,0.0,0.0,0.0,0.0,0.0,0.0,0.0,0.0,0.0,0.0,0.0,0.0,0.0,0.0,0.0,0.0,0.0,0.0,0.0,0.0,0.0,0.0,0.0,0.0,0.0,0.0,0.0,0.0,0.0,0.0,0.0,0.0,0.0,0.0,0.0,0.0,0.0,0.0,0.0,0.0,0.0,0.0,0.0,0.0,0.0,0.0,0.0,0.0,0.0,0.0,0.0,0.0,0.0,0.0,0.0,0.0,0.0,0.0,0.0,0.0,0.0,0.0,0.0,0.0,0.0,0.0,0.0,0.0,0.0,0.0,0.0,0.0,0.0,0.0,0.0,0.0,0.0,0.0,0.0,0.0,0.0,0.0,0.0,0.0,0.0,0.0,0.0,0.0,0.0,0.0,0.0,0.0,0.0,0.0,0.0,0.0,0.0,0.0,0.0,0.0,0.0,0.0,0.0,0.0,0.0,0.0,0.0,0.0,0.0,0.0,0.0,0.0,0.0,0.0,0.0,0.0,0.0,0.0,0.0,0.0,0.0,0.0,0.0,0.0,0.0,0.0,0.0,0.0,0.0,0.0,0.0,0.0,0.0,0.0,0.0,0.0,0.0,0.0,0.0,0.0,0.0,0.0,0.0,0.0,0.0,0.0,0.0,0.0,0.0,0.0,0.0,0.0,0.0,0.0,0.0,0.0,0.0,0.0,0.0,0.0,0.0,0.0,0.0,0.0,0.0,0.0,0.0,0.0,0.0,0.0,0.0,0.0,0.0,0.0,0.0,0.0,0.0,0.0,0.0,0.0,0.0,0.0,0.0,0.0,0.0,0.0,0.0,0.0,0.0,0.0,0.0,0.0,0.0,0.0,0.0,0.0,0.0,0.0,0.0,0.0,0.0,0.0,0.0,0.0,0.0,0.0,0.0,0.0,0.0,0.0,0.0,0.0,0.0,0.0,-1.6953,-1.6171,0.0,0.0,0.0,0.0,0.0,0.0,0.0,0.0,0.0,0.0,0.0,0.0,0.0,0.0,0.0,0.0,0.0,0.0,0.0,0.0,0.0,0.0,0.0,0.0,0.0,0.0,0.0,0.0,0.0,0.0,0.0,0.0,0.0,0.0,0.0,0.0,0.0,0.0,-1.1578,-1.1968,-1.2462,-1.2131,-1.2,-1.2115,0.0,0.0,0.0,0.0,0.0,0.0,0.0,0.0,0.0,0.0,0.0,0.0,0.0,0.0,0.0,0.0,0.0,0.0,0.0,0.0,0.0,0.0,0.0,0.0,0.0,0.0,0.0,0.0,0.0,0.0,0.0,0.0,0.0,0.0,0.0,0.0,0.0,0.0,0.0,0.0,0.0,0.0,0.0,0.0,0.0,0.0,0.0,0.0,0.0,0.0,0.0,0.0,0.0,0.0,0.0,0.0,0.0,0.0,0.0,0.0,0.0,0.0,0.0,0.0,0.0,0.0,0.0,0.0,0.0,0.0,-1.7927,-1.7349,0.0,0.0,0.0,0.0,0.0,0.0,0.0,0.0,0.0,0.0,0.0,0.0,0.0,0.0,0.0,0.0,0.0,0.0,0.0,0.0,0.0,0.0,0.0,0.0,-0.6923,-0.7345,-0.7756,0.0,0.0,0.0,0.0,0.0,0.0,0.0,0.0,0.0,0.0,-1.1326,-1.179,-1.2393,-1.3086,-1.3162,-1.3072,-1.2768,-1.2936,0.0,0.0,0.0,0.0,0.0,0.0,0.0,0.0,0.0,0.0,0.0,0.0,0.0,0.0,0.0,0.0,0.0,0.0,0.0,0.0,0.0,0.0,0.0,0.0,0.0,0.0,0.0,0.0,0.0,0.0,0.0,0.0,0.0,0.0,0.0,0.0,0.0,0.0,0.0,0.0,0.0,0.0,0.0,0.0,0.0,0.0,0.0,0.0,0.0,0.0,0.0,0.0,0.0,0.0,0.0,0.0,0.0,0.0,0.0,0.0,0.0,0.0,0.0,-1.9137,-1.9242,-1.9373,-1.9331,-1.9481,-1.9632,-1.9243,-1.8855,-1.8394,-1.7873,0.0,0.0,0.0,0.0,0.0,0.0,0.0,0.0,0.0,0.0,0.0,0.0,0.0,0.0,0.0,0.0,0.0,0.0,0.0,0.0,0.0,-0.7336,-0.7544,-0.8022,-0.8446,-0.8805,0.0,0.0,0.0,0.0,0.0,0.0,0.0,-1.082,-1.1023,-1.1326,-1.216,-1.2772,-1.3096,-1.3474,-1.3725,-1.3895,-1.4073,-1.4232,-1.4308,0.0,0.0,0.0,0.0,0.0,0.0,0.0,0.0,0.0,0.0,0.0,0.0,0.0,0.0,0.0,0.0,0.0,0.0,0.0,0.0,0.0,0.0,0.0,0.0,0.0,0.0,0.0,0.0,0.0,0.0,0.0,0.0,0.0,0.0,0.0,0.0,0.0,0.0,0.0,0.0,0.0,-1.4656,-1.4656,0.0,0.0,0.0,0.0,0.0,0.0,0.0,0.0,0.0,0.0,0.0,0.0,0.0,-1.8248,-1.8687,-1.8999,-1.913,-1.919,-1.9605,-1.9857,-2.0064,-2.0443,-2.1012,-2.1564,-2.1499,0.0,-1.8868,-1.8495,0.0,0.0,0.0,0.0,0.0,0.0,0.0,0.0,0.0,0.0,0.0,0.0,0.0,0.0,0.0,0.0,0.0,0.0,0.0,0.0,0.0,-0.7727,-0.7985,-0.8481,-0.8765,-0.902,-0.9249,0.0,0.0,0.0,0.0,-1.0162,-1.047,-1.0765,-1.1328,-1.2007,-1.26,-1.3067,-1.3505,-1.37,-1.3941,-1.4329,-1.4396,-1.458,-1.4782,-1.5021,0.0,0.0,0.0,0.0,0.0,0.0,0.0,0.0,0.0,0.0,0.0,0.0,0.0,0.0,0.0,0.0,0.0,0.0,0.0,0.0,0.0,0.0,0.0,0.0,0.0,0.0,0.0,0.0,0.0,0.0,0.0,0.0,0.0,0.0,0.0,0.0,0.0,0.0,0.0,-1.4547,-1.4656,-1.4616,-1.481,-1.4888,0.0,0.0,0.0,0.0,0.0,0.0,0.0,0.0,0.0,-1.7955,-1.8659,-1.9361,-2.0209,-2.0627,-2.0967,-2.1172,-2.1376,-2.1544,-2.1621,-2.1838,-2.2067,-2.2352,-2.2352,-2.1907,-2.1202,-2.0459,-1.9788,-1.9306,0.0,0.0,0.0,0.0,-1.9668,-2.0299,0.0,0.0,0.0,0.0,0.0,0.0,0.0,0.0,0.0,0.0,0.0,0.0,-0.7897,-0.8069,-0.83,-0.8784,-0.8962,-0.9061,-0.9211,-0.9309,0.0,0.0,0.0,-1.0023,-1.0285,-1.084,-1.1532,-1.2398,-1.277,-1.3132,-1.3579,-1.3678,-1.3884,-1.4231,-1.4231,-1.4478,-1.4911,-1.4911,-1.5264,-1.5788,0.0,0.0,0.0,0.0,0.0,0.0,0.0,0.0,0.0,0.0,0.0,0.0,0.0,0.0,0.0,0.0,0.0,0.0,0.0,0.0,0.0,0.0,0.0,0.0,0.0,0.0,0.0,0.0,0.0,0.0,0.0,0.0,0.0,0.0,0.0,0.0,0.0,-1.4639,-1.4823,-1.4722,-1.5072,-1.5249,0.0,0.0,0.0,0.0,0.0,0.0,-1.6731,-1.7207,-1.7926,-1.8823,-1.9586,-2.0396,-2.1419,-2.1787,-2.2183,-2.2537,-2.2605,-2.2674,-2.28,-2.288,-2.3018,-2.3247,-2.3247,-2.3398,-2.3491,-2.2218,-2.1485,-2.1039,-2.0753,-2.0808,-2.1059,-2.0928,-2.132,-2.1836,0.0,0.0,0.0,0.0,0.0,0.0,0.0,0.0,0.0,0.0,0.0,-0.7847,-0.8296,-0.8349,-0.8567,-0.8956,-0.9008,-0.9061,-0.9211,-0.9211,-0.9263,-0.9413,-0.986,-1.0129,-1.0292,-1.1082,-1.1616,-1.1913,-1.2471,-1.2763,-1.2963,-1.3314,-1.3554,-1.3563,-1.3563,-1.3992,-1.4715,-1.4715,-1.5001,-1.541,-1.541,0.0,0.0,0.0,0.0,0.0,0.0,0.0,0.0,0.0,0.0,0.0,0.0,0.0,0.0,0.0,0.0,0.0,0.0,0.0,0.0,0.0,0.0,0.0,0.0,0.0,0.0,0.0,0.0,0.0,0.0,0.0,0.0,0.0,0.0,0.0,0.0,0.0,0.0,-1.526,-1.5612,0.0,0.0,0.0,0.0,-1.6505,-1.6533,-1.709,-1.8254,-1.8705,-1.9244,-1.9961,-2.0582,-2.1096,-2.1527,-2.1688,-2.1907,-2.2114,-2.2332,-2.265,-2.3115,-2.3267,-2.3913,-2.4797,-2.4797,-2.4969,-2.5024,-2.3317,-2.2763,-2.2875,-2.2638,-2.2694,-2.2907,-2.3042,-2.3375,-2.3706,0.0,0.0,0.0,0.0,0.0,0.0,0.0,0.0,-0.7306,-0.7413,-0.7521,-0.7783,-0.8315,-0.8421,-0.8586,-0.8956,-0.891,-0.8991,-0.9336,-0.9241,-0.9378,-0.9681,-0.9855,-1.0229,-1.0777,-1.1252,-1.1721,-1.2178,-1.2426,-1.2603,-1.2663,-1.2785,-1.2911,-1.3042,-1.3042,-1.3338,-1.3812,-1.4121,-1.4606,-1.5137,-1.5245,-1.5526,0.0,0.0,0.0,0.0,0.0,0.0,0.0,0.0,0.0,0.0,0.0,0.0,0.0,0.0,0.0,0.0,0.0,0.0,0.0,0.0,0.0,0.0,0.0,0.0,0.0,0.0,0.0,0.0,0.0,0.0,0.0,0.0,0.0,0.0,0.0,0.0,0.0,-1.5605,-1.5965,0.0,-1.6092,-1.6551,-1.6987,-1.7353,-1.7736,-1.8161,-1.8774,-1.9154,-1.9573,-1.9929,-2.0937,-2.1692,-2.2049,-2.3036,-2.3578,-2.3805,-2.4179,-2.4419,-2.46,-2.4751,-2.5096,-2.5429,-2.5558,-2.5721,-2.5913,-2.5436,-2.4613,-2.3604,-2.3332,-2.3349,-2.3549,-2.3737,-2.4013,-2.4353,0.0,0.0,0.0,0.0,0.0,0.0,0.0,0.0,-0.7139,-0.7365,-0.7467,-0.7735,-0.8268,-0.8368,-0.8533,-0.8903,-0.8944,-0.9086,-0.9384,-0.9388,-0.9529,-0.984,-1.0007,-1.0377,-1.1109,-1.1291,-1.1585,-1.1988,-1.212,-1.2174,-1.2182,-1.2289,-1.2414,-1.2609,-1.2727,-1.3027,-1.3405,-1.3718,-1.4188,-1.4675,-1.4883,-1.5284,-1.5758,0.0,0.0,0.0,0.0,0.0,0.0,0.0,0.0,0.0,0.0,0.0,0.0,0.0,0.0,0.0,0.0,0.0,0.0,0.0,0.0,0.0,0.0,0.0,0.0,0.0,0.0,0.0,0.0,0.0,0.0,0.0,0.0,0.0,0.0,-1.6057,-1.6327,-1.6206,-1.6585,-1.689,-1.6908,-1.7403,-1.7779,-1.8078,-1.8458,-1.8963,-1.9483,-1.9895,-2.0173,-2.0601,-2.1568,-2.2263,-2.264,-2.3498,-2.4136,-2.4533,-2.4915,-2.5318,-2.5565,-2.5812,-2.606,-2.6288,-2.6433,-2.6656,-2.6966,-2.6878,-2.6265,-2.5194,-2.4883,-2.4888,-2.5038,-2.5289,-2.5506,-2.5777,0.0,0.0,0.0,0.0,0.0,0.0,0.0,-0.7085,-0.7192,-0.7467,-0.7521,-0.7681,-0.8168,-0.8321,-0.8487,-0.8765,-0.9024,-0.9245,-0.9425,-0.959,-0.9699,-0.9771,-1.0159,-1.0636,-1.1115,-1.1247,-1.1303,-1.1303,-1.1498,-1.1567,-1.1582,-1.1889,-1.2108,-1.2333,-1.258,-1.2998,-1.3557,-1.3616,-1.3727,-1.4045,-1.4378,-1.4843,-1.543,0.0,0.0,0.0,0.0,0.0,0.0,0.0,0.0,0.0,0.0,0.0,0.0,0.0,0.0,0.0,0.0,0.0,0.0,0.0,0.0,0.0,0.0,0.0,0.0,0.0,0.0,0.0,0.0,0.0,0.0,0.0,0.0,0.0,-1.637,-1.6478,-1.6824,-1.7157,-1.7417,-1.7669,-1.8082,-1.8146,-1.8304,-1.873,-1.8748,-1.9343,-2.0557,-2.0858,-2.1332,-2.2175,-2.2379,-2.2696,-2.3103,-2.3113,-2.3458,-2.4121,-2.4577,-2.5147,-2.5889,-2.6371,-2.6955,-2.7569,-2.7569,-2.7812,-2.8179,-2.768,-2.7633,-2.7741,-2.7366,-2.736,-2.752,-2.7717,-2.7938,-2.8034,0.0,0.0,0.0,0.0,0.0,0.0,0.0,-0.7031,-0.7139,-0.7311,-0.7413,-0.7681,-0.8168,-0.8221,-0.8463,-0.8893,-0.9033,-0.9369,-1.0082,-1.0192,-1.0335,-1.0677,-1.0829,-1.1037,-1.124,-1.1185,-1.1185,-1.1303,-1.1247,-1.1361,-1.1517,-1.1472,-1.1699,-1.2253,-1.2272,-1.2654,-1.3199,-1.3483,-1.3761,-1.4123,-1.4355,-1.498,-1.566,0.0,0.0,0.0,0.0,0.0,0.0,0.0,0.0,0.0,0.0,0.0,0.0,0.0,0.0,0.0,0.0,0.0,0.0,0.0,0.0,0.0,0.0,0.0,0.0,0.0,0.0,0.0,0.0,0.0,0.0,0.0,-1.8697,-1.8654,-1.7909,-1.7729,-1.7746,-1.8015,-1.7954,-1.7999,-1.8109,-1.8641,-1.9058,-1.9291,-2.008,-2.0757,-2.126,-2.1523,-2.1722,-2.1958,-2.2512,-2.2932,-2.3172,-2.3834,-2.4577,-2.5423,-2.61,-2.6763,-2.7413,-2.7912,-2.8341,-2.8649,-2.8806,-2.907,-2.9332,-2.9331,-2.9354,-2.935,-2.7956,-2.7446,-2.752,-2.7889,-2.8024,-2.8084,0.0,0.0,0.0,0.0,0.0,0.0,0.0,-0.7036,-0.7192,-0.7365,-0.7467,-0.7628,-0.8008,-0.8267,-0.8507,-0.8893,-0.9188,-0.9642,-1.0342,-1.0662,-1.087,-1.1178,-1.1185,-1.1247,-1.1303,-1.1185,-1.1122,-1.1247,-1.1185,-1.121,-1.1383,-1.137,-1.1655,-1.2172,-1.2305,-1.2711,-1.3354,-1.37,-1.4106,-1.4544,-1.4652,-1.5015,-1.5548,-1.591,-1.6335,-1.6751,-1.6987,-1.7155,-1.7278,-1.7278,0.0,0.0,0.0,0.0,0.0,0.0,0.0,0.0,0.0,0.0,0.0,0.0,0.0,0.0,0.0,0.0,0.0,0.0,0.0,0.0,0.0,0.0,0.0,0.0,-1.9817,-1.9899,-1.9439,-1.8879,-1.8566,-1.877,-1.8665,-1.8687,-1.8861,-1.9448,-1.9896,-2.0058,-2.0743,-2.1351,-2.1803,-2.1981,-2.2314,-2.2666,-2.3189,-2.3677,-2.4022,-2.4712,-2.5497,-2.6376,-2.6987,-2.7565,-2.8192,-2.8626,-2.8981,-2.9238,-2.9494,-2.9676,-2.9941,-3.0013,-3.017,-3.0096,0.0,0.0,0.0,0.0,-2.8812,-2.8775,0.0,0.0,0.0,0.0,0.0,0.0,0.0,-0.6982,-0.7192,-0.7467,-0.7467,-0.7586,-0.789,-0.8318,-0.8652,-0.8877,-0.9525,-1.008,-1.0471,-1.1029,-1.1373,-1.1365,-1.1365,-1.1365,-1.1365,-1.1247,-1.1122,-1.1122,-1.1166,-1.1265,-1.1247,-1.1534,-1.1813,-1.2216,-1.2483,-1.3046,-1.379,-1.4065,-1.4561,-1.518,-1.5083,-1.5195,-1.548,-1.5869,-1.6306,-1.6701,-1.6772,-1.7043,-1.7278,-1.7278,0.0,0.0,0.0,0.0,0.0,0.0,0.0,0.0,0.0,0.0,0.0,0.0,0.0,0.0,0.0,0.0,0.0,0.0,0.0,0.0,0.0,0.0,0.0,0.0,-2.0855,-2.0967,-2.0913,-2.0014,-1.936,-1.943,-1.9437,-1.9586,-1.9962,-2.0356,-2.067,-2.0913,-2.1249,-2.173,-2.2303,-2.2619,0.0,0.0,0.0,-2.4606,-2.5361,-2.5795,-2.6357,-2.7125,-2.7657,-2.813,-2.8646,-2.9092,-2.9414,-2.9659,-2.9853,-3.0109,-3.035,-3.035,-3.0386,-3.0516,-3.0155,-3.0028,-3.0047,-2.9986,-2.993,-2.9817,0.0,0.0,0.0,0.0,0.0,0.0,0.0,-0.6933,-0.7041,-0.7311,-0.7311,-0.7498,-0.8034,-0.8155,-0.8528,-0.9436,-0.9643,-1.0104,-1.0892,-1.1344,-1.156,-1.1677,-1.1872,-1.1872,-1.1677,-1.156,-1.1435,-1.124,-1.136,-1.1508,-1.1621,-1.1774,-1.1991,-1.2291,-1.2498,-1.2973,-1.3564,-1.4137,-1.4633,-1.5196,-1.55,-1.5883,-1.6244,-1.6071,-1.6477,-1.7063,-1.6981,-1.7088,-1.7278,-1.7278,-1.7278,-1.7278,-1.7267,0.0,0.0,0.0,0.0,0.0,0.0,0.0,0.0,0.0,0.0,0.0,0.0,0.0,0.0,0.0,0.0,0.0,0.0,0.0,0.0,-2.1627,-2.1822,-2.194,-2.16,-2.1373,-2.1027,-2.04,-2.029,-2.0319,-2.0393,-2.0939,-2.1342,-2.1342,-2.2397,-2.3003,-2.3178,-2.3677,-2.4222,-2.4572,-2.4846,-2.534,-2.6087,-2.6425,-2.7054,-2.8164,-2.8623,0.0,-2.9839,-3.04,-3.0755,-3.0909,-3.1009,-3.1285,-3.1634,-3.1634,-3.1626,-3.1596,-3.1051,-3.1004,-3.1142,-3.1122,-3.0821,-3.0444,0.0,0.0,0.0,0.0,0.0,0.0,0.0,-0.6874,-0.6987,-0.7263,-0.7317,-0.746,-0.7925,-0.8183,-0.8651,-0.9474,-1.0076,-1.0588,-1.1052,-1.156,-1.1872,-1.1934,-1.212,-1.212,-1.2058,-1.1934,-1.1747,-1.1553,-1.1682,-1.1808,-1.1983,-1.2011,-1.224,-1.2599,-1.2826,-1.3266,-1.3848,-1.4281,-1.4856,-1.5355,-1.5576,-1.6018,-1.6496,-1.6201,-1.6363,-1.6845,-1.6785,-1.6965,-1.7145,-1.7278,-1.7278,-1.7278,-1.7278,-1.777,-1.8392,0.0,0.0,0.0,0.0,0.0,0.0,0.0,0.0,0.0,0.0,0.0,0.0,0.0,0.0,-2.1774,-2.2281,0.0,-2.2685,-2.2987,-2.3123,-2.309,-2.2797,-2.2623,-2.2096,-2.098,-2.0988,-2.0985,-2.0985,-2.1627,-2.2167,-2.2264,-2.32,-2.3736,-2.3736,-2.4307,-2.4799,-2.5305,-2.5849,-2.6412,-2.7123,-2.7672,-2.8338,-2.9138,-2.9489,-2.9986,-3.0601,-3.096,-3.1318,-3.1484,-3.1584,-3.1849,-3.2213,-3.2288,-3.2302,-3.2288,-3.2184,-3.1805,-3.1386,-3.1386,-3.1223,-3.0997,0.0,0.0,0.0,0.0,0.0,0.0,0.0,-0.6766,-0.6933,-0.7209,-0.7257,-0.7422,-0.7818,-0.8207,-0.8747,-0.9488,-1.0477,-1.1059,-1.1185,-1.1747,-1.2058,-1.2182,-1.2313,-1.2428,-1.2428,-1.2251,-1.212,-1.1926,-1.2003,-1.2131,-1.2255,-1.2284,-1.2527,-1.2973,-1.3193,-1.3622,-1.4201,-1.4641,-1.507,-1.5638,-1.5638,-1.6018,-1.6482,-1.6225,-1.6316,-1.6618,-1.6597,-1.6786,-1.7011,-1.7211,-1.7278,-1.7278,-1.7278,-1.7923,-1.8687,-1.8687,-1.9375,0.0,0.0,0.0,0.0,0.0,0.0,0.0,0.0,-2.136,-2.1766,-2.2302,-2.2549,-2.2845,-2.3352,-2.3652,-2.3943,-2.433,-2.4314,-2.4183,-2.4009,-2.3598,-2.2844,-2.1824,-2.1759,-2.1792,-2.1792,-2.2556,-2.3089,-2.3281,-2.3938,-2.4272,-2.4375,-2.4815,-2.5405,-2.6131,-2.6879,-2.7615,-2.8362,-2.9024,-2.96,-3.0159,-3.0318,-3.0679,-3.1062,-3.1318,-3.1572,-3.1749,-3.2025,-3.23,-3.2475,-3.2723,-3.281,-3.281,-3.2982,-3.2516,-3.1712,-3.1712,-3.165,-3.1549,0.0,0.0,0.0,0.0,0.0,0.0,0.0,0.0,-0.6761,-0.6933,-0.7036,-0.7312,-0.7768,-0.8128,-0.8812,-1.0077,-1.0598,-1.1059,-1.1498,-1.1747,-1.2058,-1.2498,-1.2683,-1.2744,-1.2744,-1.2621,-1.2436,-1.2243,-1.2393,-1.2467,-1.2458,-1.2786,-1.2963,-1.3193,-1.355,-1.4057,-1.4569,-1.5141,-1.5638,-1.6061,-1.6132,-1.6276,-1.6331,-1.6132,-1.649,-1.6959,-1.6711,-1.6786,-1.7011,-1.7211,-1.7278,-1.7278,-1.7278,-1.7923,-1.8687,-1.8687,0.0,-2.0085,-2.0085,-2.041,-2.0733,-2.0839,-2.1083,-2.1452,0.0,-2.225,-2.2521,-2.305,-2.3223,-2.3376,-2.3802,-2.419,-2.456,-2.4985,-2.5051,-2.4925,-2.4757,-2.4136,-2.3703,-2.3486,-2.3166,-2.2924,-2.2924,-2.3534,-2.3986,-2.3986,-2.4568,-2.5094,-2.5293,-2.5944,-2.6652,-2.7369,-2.7934,-2.8713,-2.9703,-2.9954,-3.0318,-3.0894,-3.105,-3.1217,-3.1306,-3.1761,-3.1937,-3.2025,-3.2463,-3.2624,-3.2723,-3.2982,-3.3081,-3.3081,-3.3081,-3.3006,-3.2893,-3.2893,-3.2566,-3.2127,0.0,0.0,0.0,0.0,0.0,0.0,0.0,0.0,0.0,0.0,-0.7085,-0.7323,-0.7924,-0.8769,-0.9662,-1.0528,-1.1052,-1.1553,-1.1872,-1.2182,-1.249,-1.2683,-1.2867,-1.2981,-1.3094,-1.3033,-1.2972,-1.2903,-1.2819,-1.2822,-1.2775,-1.2846,-1.3127,-1.3547,-1.3979,-1.4584,-1.5346,-1.578,-1.6079,-1.6219,-1.6287,-1.6245,-1.6169,-1.6075,-1.6461,-1.6981,-1.6686,-1.6786,0.0,0.0,-1.7278,-1.7322,-1.7606,-1.8152,-1.8742,-1.9026,-1.9604,0.0,-2.041,-2.0658,-2.0918,-2.1537,-2.1735,-2.2069,-2.2659,-2.2975,-2.325,-2.3771,-2.3946,-2.4253,-2.5075,-2.5205,-2.5495,-2.6165,-2.5913,-2.5665,-2.5431,-2.4829,-2.4402,-2.4444,-2.4386,-2.417,-2.3702,-2.4169,-2.4607,-2.4898,-2.5395,-2.5823,-2.63,-2.6863,-2.7441,-2.8019,-2.8861,-2.9508,-3.0045,-3.051,-3.0871,-3.1139,-3.1217,-3.1395,-3.1673,-3.1937,-3.2113,-3.2463,-3.281,-3.2896,-3.2896,-3.3068,-3.3081,-3.3081,-3.3081,-3.3081,-3.3081,-3.3081,-3.2918,-3.2717,0.0,0.0,0.0,0.0,0.0,0.0,0.0,0.0,0.0,0.0,-0.7085,-0.7433,-0.827,-0.9334,-1.0273,-1.0919,-1.1553,-1.2058,-1.2313,-1.2736,-1.2981,-1.3042,-1.3224,-1.3346,-1.3511,-1.3631,-1.3631,-1.3571,-1.3398,-1.3285,-1.326,-1.3196,-1.3386,-1.3958,-1.4307,-1.4993,-1.5799,-1.6082,-1.6269,-1.6402,-1.6402,-1.629,-1.6191,-1.6253,-1.6527,-1.6905,-1.6743,-1.6853,0.0,0.0,-1.7422,-1.754,-1.789,-1.8414,-1.896,-1.931,-1.9856,-2.0501,-2.0973,-2.1257,-2.1533,-2.2252,-2.2476,-2.2737,-2.34,-2.3708,-2.3907,-2.4443,-2.4785,-2.5192,-2.5961,-2.621,-2.6451,-2.7066,-2.6724,-2.6276,-2.6091,-2.5656,-2.5228,-2.519,-2.5462,-2.54,-2.4952,-2.5059,-2.5339,-2.5729,-2.6114,-2.6572,-2.7051,-2.7536,-2.8113,-2.8768,-2.96,-3.0148,-3.0487,-3.096,-3.1318,-3.1484,-3.1584,-3.1761,-3.2125,-3.2213,-3.2376,-3.281,-3.2982,-3.3081,-3.3081,-3.3081,-3.3081,-3.3081,-3.3081,-3.3081,-3.3081,-3.3154,-3.3154,-3.3081,0.0,0.0,0.0,0.0,0.0,0.0,0.0,0.0,0.0,0.0,0.0,0.0,0.0,-0.9648,-1.0486,-1.1392,-1.1988,-1.249,-1.2928,-1.3155,-1.345,-1.3769,-1.389,-1.401,-1.4189,-1.435,-1.4359,-1.4189,-1.4163,-1.4118,-1.395,-1.395,-1.4098,-1.4272,-1.4649,-1.5106,-1.5643,-1.5983,-1.6303,-1.6602,-1.6602,-1.6537,-1.6518,-1.6787,-1.6911,-1.6976,-1.7011,0.0,0.0,-1.7423,-1.7687,-1.7988,-1.7999,-1.8643,0.0,-1.9408,-2.0226,-2.1274,-2.1878,-2.2355,-2.2707,-2.2933,-2.3203,-2.3601,-2.4124,-2.4369,-2.465,-2.518,-2.5697,-2.6057,-2.6093,-2.6808,-2.7359,-2.7394,-2.7254,-2.6999,-2.6528,-2.6352,-2.6139,-2.5934,-2.6289,-2.663,-2.6778,-2.6552,-2.6476,-2.6476,-2.6764,-2.7051,-2.7536,-2.8113,-2.8861,-2.9794,-3.0045,-3.0578,-3.1306,-3.1572,-3.1761,-3.1937,-3.2213,-3.2388,-3.2388,-3.255,-3.281,-3.3081,-3.3081,-3.3081,-3.3081,-3.3081,-3.3081,-3.3081,-3.3081,-3.3081,-3.3167,-3.3313,-3.324,-3.3081,0.0,0.0,0.0,0.0,0.0,0.0,0.0,0.0,0.0,0.0,0.0,0.0,0.0,0.0,0.0,0.0,-1.2583,-1.3277,-1.3649,-1.3941,-1.4172,-1.4419,-1.4419,-1.4656,-1.5001,-1.5059,-1.5177,-1.5352,-1.5108,-1.4949,-1.4782,-1.455,-1.4637,-1.4953,-1.5142,-1.5675,-1.6319,-1.6636,-1.673,-1.6769,-1.6941,-1.6855,-1.6754,-1.7145,-1.7433,-1.7623,0.0,0.0,-1.7545,-1.7601,-1.7924,-1.8391,-1.8725,-1.9149,-1.9739,-2.039,-2.123,-2.2049,-2.2423,-2.2673,-2.3038,-2.3718,-2.3937,-2.4205,-2.5009,-2.5199,-2.5414,-2.5948,-2.6202,-2.6481,-2.7043,-2.7399,-2.7669,-2.7858,-2.7752,-2.7452,-2.688,-2.6881,-2.6931,-2.6818,-2.7291,-2.7753,-2.8028,-2.7421,-2.7146,-2.7431,-2.762,-2.7987,-2.8839,-2.9231,-2.9783,-3.051,-3.0937,-3.1383,-3.1725,-3.2025,-3.2213,-3.23,-3.2463,-3.2636,-3.2636,-3.281,-3.2982,-3.3081,-3.3081,-3.3081,-3.3081,-3.324,-3.3313,-3.3313,-3.3484,-3.3471,-3.3471,-3.3556,-3.3556,-3.3471,0.0,0.0,0.0,0.0,0.0,0.0,0.0,0.0,0.0,0.0,0.0,0.0,0.0,0.0,0.0,0.0,0.0,-1.3782,-1.43,-1.4606,-1.4834,-1.501,-1.5059,-1.5294,-1.569,-1.5816,-1.5999,-1.6228,-1.5999,-1.5816,-1.5565,-1.5342,-1.5321,-1.5511,-1.5641,-1.5977,-1.6495,-1.6799,-1.6927,-1.6894,-1.7127,-1.7177,-1.7145,-1.7634,-1.7909,0.0,0.0,0.0,-1.803,-1.7865,-1.8272,-1.8823,-1.9089,-1.97,-2.0473,-2.1286,-2.2139,-2.2845,-2.3167,-2.3502,-2.3849,-2.4457,-2.4692,-2.4903,-2.5463,-2.5834,-2.6066,-2.642,-2.6785,-2.7112,-2.7738,-2.7873,-2.8114,-2.8359,-2.8191,-2.7869,-2.7464,-2.7698,-2.782,-2.7711,-2.8332,-2.8945,-2.905,-2.8631,-2.8269,-2.8373,-2.8549,-2.9002,-2.9669,-3.0045,-3.051,-3.1128,-3.1572,-3.1925,-3.2176,-3.2376,-3.2562,-3.2649,-3.2896,-3.297,-3.297,-3.3227,-3.3313,-3.3313,-3.3313,-3.3313,-3.3313,-3.3484,-3.3471,-3.3556,-3.3641,-3.3713,-3.3713,-3.381,-3.3894,-3.3894,0.0,0.0,0.0,0.0,0.0,0.0,0.0,0.0,0.0,0.0,0.0,0.0,0.0,0.0,0.0,0.0,0.0,0.0,-1.4914,-1.5137,-1.5381,-1.5652,-1.5874,-1.6093,-1.6368,-1.6684,-1.6807,-1.6874,-1.6807,-1.6684,-1.6368,-1.6208,-1.6104,-1.5989,-1.6104,-1.6228,-1.6353,-1.6581,-1.6797,-1.7011,-1.719,-1.7423,-1.7755,-1.8182,0.0,0.0,0.0,-1.8732,-1.856,-1.8247,-1.8646,-1.9261,-1.9306,-2.0317,-2.1565,-2.2048,-2.2844,-2.3651,-2.4135,-2.4694,-2.5123,-2.5111,-2.5324,-2.5618,-2.5606,-2.6149,-2.6685,-2.6746,-2.7409,-2.7977,-2.8037,-2.8319,-2.8578,-2.8803,-2.8486,-2.8259,-2.8247,-2.8739,-2.8884,-2.8441,-2.9507,-3.0204,-2.9909,-3.0114,-3.0034,-2.9301,-2.9646,-3.0011,-3.0306,-3.0668,-3.1217,-3.1749,-3.1913,-3.2176,-3.2388,-3.2636,-3.2896,-3.3154,-3.3313,-3.3398,-3.3398,-3.3641,-3.3713,-3.3713,-3.3713,-3.3713,-3.3713,-3.3713,-3.3713,-3.3713,-3.3797,-3.3797,-3.381,-3.4076,-3.4243,-3.4397,0.0,0.0,0.0,0.0,0.0,0.0,0.0,0.0,0.0,0.0,0.0,0.0,0.0,0.0,0.0,0.0,0.0,0.0,-1.4951,-1.5656,-1.6181,-1.6467,-1.6616,-1.6888,-1.7179,-1.7301,-1.7368,-1.7479,-1.7368,-1.7301,-1.7179,-1.6899,-1.6729,-1.6729,-1.6627,-1.6637,-1.6694,-1.6987,-1.7155,-1.7267,0.0,-1.7963,-1.8182,0.0,0.0,0.0,0.0,-1.9146,-1.8975,-1.8614,-1.9086,-1.9958,-2.065,-2.1742,-2.2759,-2.2775,-2.3595,-2.4542,-2.4802,-2.4969,-2.5182,-2.5394,-2.5535,-2.5688,-2.598,-2.6173,-2.6565,-2.7383,-2.7693,-2.805,-2.8697,-2.8888,-2.8973,-2.9052,-2.8973,-2.8803,-2.8645,-2.947,-2.9978,-2.9652,-3.0664,-3.1294,-3.1205,-3.1371,-3.1448,-3.127,-3.0836,-3.0925,-3.1548,-3.1637,-3.1913,-3.245,-3.2537,-3.2624,-3.2909,-3.3142,-3.3313,-3.3556,-3.3641,-3.3641,-3.3641,-3.3713,-3.3713,-3.3713,-3.3894,-3.3992,-3.3979,-3.4301,-3.4468,-3.4468,-3.4647,-3.4743,-3.4743,-3.4825,-3.499,-3.5141,0.0,0.0,0.0,0.0,0.0,0.0,0.0,0.0,0.0,0.0,0.0,0.0,0.0,0.0,0.0,0.0,0.0,0.0,0.0,-1.5797,-1.6416,-1.7078,-1.7245,-1.7468,-1.7865,-1.7865,-1.792,-1.7986,0.0,0.0,-1.7689,-1.7412,-1.7301,-1.7301,-1.7256,-1.7211,-1.7211,-1.7379,0.0,0.0,0.0,0.0,0.0,0.0,0.0,0.0,-1.946,-1.9408,-1.9287,-1.9305,-1.9777,-2.0463,-2.1457,-2.2497,-2.3404,-2.3349,-2.4163,-2.5206,-2.5265,-2.5394,-2.5477,-2.5688,-2.5828,-2.591,-2.6131,-2.6457,-2.6864,-2.7488,-2.7667,-2.8015,-2.8768,-2.8774,-2.8848,-2.916,-2.9131,-2.9131,-2.9028,-2.9682,-3.0223,-3.0396,-3.1162,-3.1758,-3.2001,-3.2101,-3.2189,-3.2264,-3.1837,-3.1749,-3.2189,-3.2264,-3.2438,-3.2896,-3.297,-3.3142,-3.3398,-3.3471,-3.3556,-3.3713,-3.381,-3.3894,-3.3966,-3.4147,-3.423,-3.4314,-3.4481,-3.4494,-3.4577,-3.4895,-3.4977,-3.5059,-3.5236,-3.5399,-3.5399,-3.5399,-3.5548,-3.5763,0.0,0.0,0.0,0.0,0.0,0.0,0.0,0.0,0.0,0.0,0.0,0.0,0.0,0.0,0.0,0.0,0.0,0.0,0.0,0.0,0.0,-1.7467,-1.7722,-1.803,-1.8422,-1.8422,-1.8422,-1.8422,-1.8247,-1.8084,0.0,0.0,0.0,0.0,0.0,0.0,0.0,0.0,0.0,0.0,0.0,0.0,0.0,0.0,0.0,0.0,-1.9617,-1.9617,-1.9611,-2.0155,-2.0477,-2.08,-2.1825,-2.2862,-2.3706,-2.3779,-2.4582,-2.5521,-2.5594,-2.5758,-2.591,-2.591,-2.605,-2.6201,-2.627,-2.6771,-2.7264,-2.7339,-2.7598,-2.7952,-2.8475,-2.8436,-2.8622,-2.9297,-2.9241,-2.9279,-2.9496,-2.9824,-3.0313,-3.0881,-3.14,-3.1944,-3.25,-3.2562,-3.2636,-3.2797,-3.2636,-3.2562,-3.2562,-3.2723,-3.297,-3.3154,-3.3313,-3.3556,-3.3713,-3.3797,-3.3797,-3.3894,-3.4076,-3.4327,-3.4481,-3.4756,-3.4921,-3.5154,-3.5154,-3.5154,-3.5236,-3.548,-3.5562,-3.5562,-3.579,-3.5871,-3.5871,-3.5871,-3.6177,-3.6466,0.0,0.0,0.0,0.0,0.0,0.0,0.0,0.0,0.0,0.0,-0.8474,-0.9263,0.0,0.0,0.0,0.0,0.0,0.0,0.0,0.0,0.0,0.0,-1.807,-1.8506,-1.856,-1.856,-1.856,-1.856,-1.841,-1.8367,0.0,0.0,0.0,0.0,0.0,0.0,0.0,0.0,0.0,0.0,0.0,0.0,0.0,0.0,0.0,0.0,-2.0029,-2.008,-2.0169,-2.0754,-2.0932,-2.1027,-2.1663,-2.2616,-2.3646,-2.41,-2.4676,-2.5264,-2.5718,-2.584,-2.591,-2.6131,-2.6245,-2.6427,-2.6589,-2.6802,-2.7143,-2.7659,-2.7755,-2.7984,-2.8473,-2.8575,-2.8766,-2.9351,-2.944,-2.9605,-3.0139,-3.0687,-3.1182,-3.1767,-3.2326,-3.2873,-3.342,-3.3471,-3.3471,-3.3543,-3.3471,-3.3386,-3.3227,-3.3386,-3.3556,-3.3556,-3.3641,-3.381,-3.3992,-3.423,-3.4397,-3.459,-3.4825,-3.4908,-3.499,-3.5003,-3.5154,-3.5399,-3.5562,-3.571,-3.5871,-3.6138,-3.6298,-3.6508,-3.6508,-3.6665,-3.6822,-3.6978,-3.7134,-3.7366,0.0,0.0,0.0,0.0,0.0,0.0,0.0,-0.6495,-0.6977,-0.7515,-0.8209,-0.9047,-0.9909,-1.0702,-1.1469,0.0,0.0,0.0,0.0,0.0,0.0,0.0,0.0,0.0,-1.8827,-1.8827,-1.8774,-1.8679,0.0,-1.853,-1.8422,-1.8247,-1.8073,-1.8018,-1.792,-1.7986,-1.8096,0.0,0.0,-1.8518,-1.8934,-1.9239,0.0,0.0,0.0,0.0,0.0,-2.0182,-2.022,-2.0501,-2.0815,-2.1217,-2.2046,-2.3075,-2.4092,-2.4632,-2.5184,-2.5749,-2.6314,-2.6465,-2.6465,-2.6615,-2.6658,-2.6726,-2.6794,-2.6943,-2.7088,-2.7344,-2.7396,-2.7562,-2.8113,-2.8216,-2.8408,-2.8912,-2.933,-2.9625,-2.9894,-3.0407,-3.0983,-3.156,-3.2137,-3.27,-3.3251,-3.3559,-3.3725,-3.3894,-3.3979,-3.3894,-3.3556,-3.3894,-3.405,-3.405,-3.4314,-3.4481,-3.466,-3.4743,-3.4825,-3.4921,-3.5086,-3.5236,-3.5399,-3.5399,-3.5629,-3.6111,-3.6191,-3.635,-3.6508,-3.6929,-3.7084,-3.7226,-3.7366,-3.7519,-3.7672,-3.7839,-3.8052,-3.8277,0.0,0.0,0.0,0.0,0.0,0.0,0.0,-0.6327,-0.6815,-0.7354,-0.7943,-0.8672,-0.971,-1.0549,-1.1368,0.0,0.0,0.0,0.0,0.0,0.0,0.0,0.0,0.0,0.0,0.0,0.0,-1.8851,-1.8798,0.0,0.0,0.0,0.0,0.0,-1.8139,-1.8259,-1.8422,-1.8422,-1.8583,0.0,0.0,-1.9408,0.0,0.0,0.0,0.0,0.0,-2.0385,-2.0385,-2.0385,-2.0772,-2.1443,-2.245,-2.3354,-2.4182,-2.4922,-2.5435,-2.5935,-2.6706,-2.6899,-2.6925,-2.7053,-2.7146,-2.7108,-2.6992,-2.7033,-2.7007,-2.6878,-2.6852,-2.702,-2.7562,-2.7666,-2.7885,-2.8582,-2.9073,-2.9473,-2.9718,-3.0206,-3.0737,-3.1358,-3.1952,-3.2533,-3.3114,-3.3656,-3.4063,-3.4327,-3.4494,-3.4397,-3.4063,-3.4314,-3.4564,-3.4564,-3.4908,-3.5086,-3.5086,-3.5154,-3.5236,-3.5236,-3.5318,-3.5562,-3.5871,-3.5871,-3.627,-3.69,-3.69,-3.707,-3.7366,-3.7687,-3.7839,-3.7915,-3.8277,-3.8427,-3.8486,-3.8723,-3.8929,-3.9075,0.0,0.0,0.0,0.0,0.0,0.0,0.0,-0.6069,-0.6445,-0.7031,-0.761,-0.8302,-0.9152,-1.0182,-1.1158,0.0,0.0,0.0,0.0,0.0,0.0,0.0,0.0,0.0,0.0,0.0,0.0,-1.8999,-1.8851,0.0,0.0,0.0,0.0,0.0,0.0,-1.8367,-1.8422,-1.8518,0.0,0.0,0.0,0.0,0.0,0.0,0.0,0.0,0.0,-2.0934,-2.0934,-2.0934,-2.1332,-2.1928,-2.2591,-2.2897,-2.3154,-2.417,-2.4638,-2.5094,-2.6142,-2.6544,-2.6778,-2.7326,-2.759,-2.7578,-2.7051,-2.7024,-2.7006,-2.6449,-2.6343,-2.6529,-2.7125,-2.7245,-2.7603,-2.8716,-2.8942,-2.934,-3.0472,-3.0658,-3.1037,-3.215,-3.2787,-3.3462,-3.3993,-3.4658,-3.499,-3.499,-3.5003,-3.499,-3.499,-3.499,-3.5003,-3.5003,-3.5086,-3.5086,-3.5086,-3.548,-3.5642,-3.5642,-3.6058,-3.6377,-3.6587,-3.6587,-3.69,-3.7534,-3.7534,-3.7839,-3.8366,-3.8366,-3.8664,-3.8958,-3.9031,-3.9162,-3.9364,-3.9621,-3.9778,-3.9879,0.0,0.0,0.0,0.0,0.0,0.0,-0.5664,-0.5896,-0.6277,-0.6815,-0.7348,-0.7937,-0.8732,-0.9562,-1.0541,-1.1778,0.0,0.0,0.0,0.0,0.0,0.0,0.0,0.0,0.0,0.0,-1.8674,-1.8987,-1.8946,0.0,0.0,0.0,0.0,0.0,0.0,-1.8422,-1.8518,-1.856,0.0,0.0,0.0,0.0,0.0,0.0,0.0,0.0,0.0,0.0,-2.0997,-2.0997,-2.1143,-2.1435,-2.2085,-2.2525,-2.307,-2.4577,-2.5069,-2.5301,-2.6117,-2.639,-2.6506,-2.6744,-2.681,-2.6807,-2.6569,-2.6591,-2.6587,-2.6347,-2.6294,-2.6374,-2.6614,-2.6667,-2.6947,-2.7773,-2.812,-2.8812,-2.9997,-3.0463,-3.0996,-3.1835,-3.2741,-3.3381,-3.3634,-3.4526,-3.5236,-3.548,-3.5575,-3.575,-3.5898,-3.548,-3.5318,-3.548,-3.5656,-3.575,-3.5898,-3.6125,-3.627,-3.627,-3.6601,-3.6915,-3.7226,-3.7366,-3.7734,-3.8337,-3.8546,-3.8855,-3.925,-3.9436,-3.9651,-3.9793,-3.9879,-4.0021,-4.0091,-4.0355,-4.0424,-4.0509,0.0,0.0,0.0,0.0,0.0,-0.5112,-0.5457,-0.5649,-0.599,-0.648,-0.6977,-0.7568,-0.8256,-0.8988,-0.9917,-1.1099,-1.203,0.0,0.0,0.0,0.0,0.0,0.0,0.0,0.0,0.0,-1.8076,-1.8653,-1.8694,-1.8725,0.0,0.0,-1.8637,-1.8422,0.0,0.0,0.0,0.0,0.0,0.0,0.0,0.0,0.0,0.0,0.0,0.0,0.0,0.0,0.0,0.0,0.0,-2.1336,-2.1965,-2.2412,-2.3071,-2.45,-2.5042,-2.5354,-2.5942,-2.6163,-2.6203,-2.6377,-2.643,-2.6377,-2.6203,-2.6163,-2.6109,-2.5935,-2.5908,-2.5949,-2.6123,-2.6163,-2.6478,-2.7256,-2.7712,-2.845,-2.99,-3.0521,-3.1074,-3.1856,-3.2987,-3.3702,-3.3702,-3.4793,-3.5575,-3.5884,-3.6072,-3.6246,-3.6405,-3.5978,-3.5723,-3.5884,-3.6138,-3.6391,-3.6549,-3.6836,-3.7056,-3.7134,-3.7366,-3.7672,-3.8066,-3.8248,-3.862,-3.9147,-3.9406,-3.9707,-4.0036,-4.0301,-4.0439,-4.0509,-4.0593,-4.0677,-4.0677,-4.0867,-4.0919,-4.1003,0.0,0.0,0.0,0.0,0.0,0.0,-0.5271,-0.5301,-0.5523,-0.615,-0.6608,-0.709,-0.767,-0.8508,-0.9287,-0.9961,-1.1266,0.0,0.0,0.0,0.0,0.0,0.0,0.0,0.0,0.0,-1.719,-1.7796,-1.7938,-1.8199,-1.8614,-1.8744,-1.8637,-1.8422,0.0,0.0,0.0,0.0,0.0,0.0,0.0,0.0,0.0,0.0,0.0,0.0,0.0,0.0,0.0,0.0,0.0,0.0,0.0,-2.2705,0.0,0.0,-2.4222,-2.4926,-2.5563,-2.5783,-2.605,-2.6674,-2.6823,-2.666,-2.6036,-2.59,-2.5738,-2.5154,-2.5018,-2.5208,-2.5792,-2.59,-2.634,-2.7646,-2.7913,-2.8606,-3.0579,-3.0908,-3.135,-3.2566,-3.3822,-3.4596,-3.4596,-3.5687,-3.6405,-3.6405,-3.6405,-3.6405,-3.6405,-3.6405,-3.6405,-3.6405,-3.6615,-3.6822,-3.6978,-3.738,-3.7763,-3.8202,-3.8366,-3.8664,-3.9104,-3.919,-3.9478,-3.9879,-4.0076,-4.0439,-4.0799,-4.0799,-4.0882,-4.1117,-4.1117,-4.1117,-4.1102,-4.1272,-4.1323,-4.1323,0.0,0.0,0.0,0.0,0.0,0.0,0.0,-0.5161,-0.5423,-0.569,-0.6187,-0.6761,-0.7241,-0.7877,-0.856,-0.9361,-1.0677,0.0,0.0,0.0,0.0,0.0,0.0,0.0,0.0,0.0,-1.6607,-1.7669,-1.7721,-1.8043,-1.8614,-1.8614,-1.8572,-1.8422,-1.8422,-1.8422,0.0,0.0,0.0,0.0,0.0,0.0,-2.066,0.0,0.0,0.0,0.0,0.0,0.0,0.0,0.0,0.0,0.0,0.0,0.0,-2.2971,-2.3767,-2.4669,-2.4847,-2.5272,-2.5643,-2.5848,-2.5903,-2.5848,-2.5643,-2.5658,-2.5547,-2.5354,-2.5313,-2.5368,-2.556,-2.5658,-2.6057,-2.7313,-2.7506,-2.8291,-3.0591,-3.0894,-3.135,-3.2566,-3.3822,-3.4913,-3.5756,-3.6184,-3.6484,-3.6563,-3.6642,-3.6707,-3.7007,-3.7007,-3.6915,-3.6836,-3.6993,-3.7366,-3.7825,-3.8352,-3.8708,-3.8972,-3.9262,-3.9565,-3.9864,-4.006,-4.027,-4.0509,-4.0836,-4.1107,-4.1323,-4.1488,-4.162,-4.1801,-4.1801,-4.1801,-4.1801,-4.1851,-4.1851,-4.1851,0.0,0.0,0.0,0.0,0.0,0.0,0.0,-0.4808,-0.5081,-0.5375,-0.5813,-0.6294,-0.6912,-0.7456,-0.8096,-0.889,-0.9925,0.0,0.0,0.0,0.0,0.0,0.0,0.0,0.0,-1.5012,-1.5631,-1.6734,-1.6979,-1.7451,-1.8077,-1.8305,-1.8356,-1.8313,-1.8313,-1.8313,0.0,0.0,0.0,0.0,0.0,0.0,-2.066,0.0,0.0,0.0,0.0,0.0,0.0,0.0,0.0,0.0,0.0,0.0,0.0,0.0,-2.3214,-2.4066,-2.4417,-2.4777,-2.5204,-2.5439,-2.5494,-2.5494,-2.5494,-2.5494,-2.5494,-2.5494,-2.5494,-2.5494,-2.5494,-2.5494,-2.5895,-2.7142,-2.7409,-2.8255,-3.0776,-3.1124,-3.1735,-3.3417,-3.4321,-3.5356,-3.6582,-3.6772,-3.685,-3.7021,-3.7021,-3.7162,-3.738,-3.7534,-3.7519,-3.7443,-3.7672,-3.8052,-3.8649,-3.9162,-3.958,-3.996,-4.0255,-4.0478,-4.0768,-4.0904,-4.1122,-4.1205,-4.1456,-4.1654,0.0,-4.1931,-4.1996,-4.2109,-4.2109,-4.2109,-4.2109,-4.2109,-4.2109,-4.2109,0.0,0.0,0.0,0.0,0.0,0.0,0.0,-0.4396,-0.4574,-0.5178,-0.544,-0.5834,-0.6568,-0.7139,-0.7729,-0.8468,0.0,0.0,0.0,0.0,0.0,0.0,0.0,0.0,-1.3915,-1.3926,-1.4376,-1.5277,-1.5925,-1.6582,-1.7206,-1.7801,-1.8084,-1.8084,-1.8084,-1.8084,0.0,0.0,0.0,0.0,0.0,0.0,0.0,0.0,0.0,0.0,0.0,0.0,0.0,0.0,0.0,0.0,0.0,0.0,0.0,0.0,0.0,0.0,0.0,-2.4445,-2.4638,-2.5273,-2.5481,-2.5495,-2.5536,-2.555,0.0,-2.555,-2.555,-2.555,-2.555,-2.555,-2.5994,-2.7349,-2.7544,-2.8484,-3.1134,-3.1622,-3.2551,-3.4888,-3.5198,-3.5765,-3.7119,-3.7275,-3.738,-3.7625,-3.7625,-3.7625,-3.7625,-3.7825,-3.8037,-3.8277,-3.8441,-3.887,-3.9436,-3.9793,-4.037,-4.1138,-4.1138,-4.1339,-4.1654,-4.1817,-4.1898,-4.1898,-4.2061,-4.2109,-4.2109,-4.2109,-4.2109,-4.2109,-4.2109,-4.2109,-4.2109,-4.2109,-4.2109,-4.2109,0.0,0.0,0.0,0.0,0.0,0.0,0.0,0.0,0.0,0.0,-0.4943,-0.5409,-0.5968,-0.6539,-0.7187,0.0,0.0,0.0,0.0,0.0,0.0,0.0,0.0,0.0,-1.3218,-1.3314,-1.3828,-1.474,-1.5473,-1.621,-1.6919,-1.7519,-1.7865,-1.7963,-1.7963,-1.8084,0.0,0.0,0.0,0.0,0.0,0.0,0.0,0.0,0.0,0.0,-2.2044,-2.2184,0.0,0.0,0.0,0.0,0.0,0.0,0.0,0.0,-2.2623,-2.2861,-2.3532,0.0,-2.4315,-2.4945,-2.5205,-2.5385,0.0,-2.6016,-2.6125,-2.6125,-2.6125,-2.6125,-2.6125,-2.6125,-2.6521,-2.7826,-2.8024,-2.8964,-3.1496,-3.2705,-3.3701,-3.4768,-3.5295,-3.5878,-3.675,-3.7263,-3.7534,-3.7625,-3.7625,-3.7701,-3.7853,-3.7991,-3.8352,-3.887,-3.925,-3.9538,-3.9793,-4.0301,-4.0919,-4.1456,-4.162,-4.1817,-4.198,-4.2061,-4.2061,-4.2061,-4.2109,-4.2174,-4.2318,-4.2318,-4.2381,-4.2492,-4.2492,-4.2492,-4.2492,-4.2492,-4.2492,-4.2492,0.0,0.0,0.0,0.0,0.0,0.0,0.0,0.0,0.0,0.0,0.0,-0.513,-0.5628,-0.6318,0.0,0.0,0.0,0.0,0.0,0.0,0.0,0.0,0.0,-1.2421,-1.2745,-1.2842,-1.3252,-1.3983,-1.486,-1.5624,-1.6313,-1.7147,-1.7601,-1.781,-1.7854,-1.8018,0.0,0.0,0.0,0.0,-1.9408,0.0,0.0,0.0,0.0,0.0,-2.2044,-2.2231,0.0,-2.237,-2.2417,-2.2509,0.0,0.0,0.0,0.0,-2.2615,-2.2686,-2.3016,-2.343,-2.3971,-2.4581,-2.5029,-2.5393,-2.5721,0.0,-2.6286,0.0,0.0,-2.6286,-2.6286,-2.6286,-2.674,-2.7997,-2.8197,-2.9083,-3.1625,-3.2825,-3.3782,-3.4711,-3.5339,-3.5968,-3.6773,-3.7404,-3.7839,-3.7991,-3.7991,-3.8066,-3.8292,-3.8501,-3.8723,-3.9104,-3.9553,-3.998,-4.0301,-4.073,-4.1205,-4.1851,-4.1931,-4.2125,-4.2302,-4.2302,-4.2302,-4.2302,-4.2302,-4.2381,-4.2508,-4.2571,-4.2696,-4.2759,-4.2821,-4.2805,-4.2805,-4.2805,-4.2805,-4.2805,0.0,0.0,0.0,0.0,0.0,0.0,0.0,0.0,0.0,0.0,0.0,0.0,0.0,0.0,0.0,0.0,0.0,0.0,0.0,0.0,0.0,0.0,-1.1578,-1.1877,-1.2323,-1.2382,-1.2637,-1.3173,-1.4205,-1.507,-1.5728,-1.6743,-1.7379,-1.7711,-1.7854,-1.7963,0.0,0.0,-1.8679,-1.8798,-1.9356,0.0,0.0,0.0,0.0,0.0,0.0,0.0,0.0,-2.2555,-2.2615,-2.2615,-2.2615,0.0,0.0,0.0,0.0,0.0,-2.2661,-2.3034,-2.356,-2.4126,-2.4697,-2.5169,-2.5369,0.0,0.0,0.0,0.0,-2.6394,-2.6394,-2.6447,-2.6849,-2.8111,-2.8613,-2.9604,-3.1846,-3.2709,-3.3475,-3.4679,-3.5339,-3.6043,-3.6924,-3.756,-3.804,-3.8501,-3.8516,-3.8649,-3.8782,-3.9017,-3.9104,-3.9104,-3.9696,-4.0277,-4.0799,-4.1034,-4.1421,-4.2109,-4.2109,-4.2302,-4.2634,-4.2634,-4.2634,-4.2696,-4.2696,-4.2696,-4.2696,-4.2883,-4.2961,-4.2961,-4.3052,-4.3113,-4.3113,-4.3113,-4.3113,-4.3113,0.0,0.0,0.0,0.0,0.0,0.0,0.0,0.0,0.0,0.0,0.0,0.0,0.0,0.0,0.0,0.0,0.0,0.0,0.0,0.0,0.0,-1.047,-1.1074,-1.1469,-1.1628,-1.1877,-1.2291,-1.2931,-1.3939,-1.4917,-1.5696,-1.6507,-1.7155,-1.7711,-1.7975,-1.8084,-1.8139,-1.8452,-1.8614,-1.8667,-1.921,0.0,0.0,0.0,0.0,0.0,0.0,0.0,0.0,-2.2555,-2.2675,-2.2749,-2.2749,0.0,0.0,0.0,0.0,0.0,-2.3037,-2.302,-2.31,-2.3531,-2.3808,-2.4215,-2.5322,-2.5726,0.0,0.0,0.0,0.0,-2.6899,-2.6989,-2.7489,-2.8726,-3.0324,-3.1731,-3.2683,-3.3436,-3.4112,-3.4794,-3.5453,-3.6168,-3.6858,-3.7474,-3.8062,-3.8679,-3.8708,-3.8782,-3.8782,-3.9017,-3.9177,-3.9337,-3.9783,-4.0277,-4.0799,-4.1034,-4.1421,-4.2109,-4.2109,-4.2365,-4.2837,-4.2837,-4.2945,-4.3035,-4.3035,-4.3035,-4.3052,-4.3052,-4.3052,-4.3052,-4.3113,-4.3113,-4.3113,-4.3113,-4.3113,-4.3113,0.0,0.0,0.0,0.0,0.0,0.0,0.0,0.0,0.0,0.0,0.0,0.0,0.0,0.0,0.0,0.0,0.0,0.0,0.0,0.0,-0.9718,-0.9888,-1.0352,-1.0812,-1.1267,-1.1477,-1.1966,-1.2767,-1.3662,-1.4518,-1.545,-1.6539,-1.7323,-1.7711,-1.792,-1.8084,-1.8259,-1.8506,-1.8614,-1.8732,0.0,0.0,0.0,0.0,0.0,0.0,0.0,0.0,0.0,0.0,-2.2812,-2.2872,-2.2917,0.0,0.0,0.0,0.0,0.0,-2.3201,-2.3157,-2.3171,-2.3327,-2.3676,-2.4185,-2.5165,-2.5696,0.0,0.0,0.0,-2.7093,-2.7093,-2.7181,-2.7594,-2.8891,-3.0468,-3.1869,-3.2871,-3.3269,-3.3814,-3.4817,-3.5495,-3.6026,-3.6335,-3.7249,-3.7942,-3.8396,-3.8751,-3.9017,-3.9104,-3.9192,-3.9265,-3.9424,-3.9783,-4.0207,-4.0662,-4.1003,-4.1538,-4.2109,-4.2302,-4.2571,-4.2899,-4.2945,-4.3052,-4.3113,-4.3113,-4.3113,-4.3113,-4.3235,-4.3235,-4.3235,-4.3355,-4.3372,-4.3372,-4.3372,-4.3372,-4.3372,0.0,0.0,0.0,0.0,0.0,0.0,0.0,0.0,0.0,0.0,0.0,0.0,0.0,0.0,0.0,0.0,0.0,0.0,0.0,0.0,-0.9465,-0.9562,-0.9784,-1.0249,-1.0922,-1.1209,-1.18,-1.2704,-1.3493,-1.4392,-1.5482,-1.6749,-1.749,-1.7711,-1.7909,-1.8139,-1.8422,-1.8572,-1.8732,-1.8893,0.0,0.0,0.0,0.0,0.0,0.0,0.0,0.0,0.0,0.0,0.0,0.0,0.0,0.0,0.0,-2.3334,-2.3363,-2.3363,-2.3363,-2.3319,-2.3319,-2.3319,-2.3613,-2.4112,-2.4776,-2.5486,-2.6164,0.0,-2.7129,-2.7233,-2.7233,-2.7536,-2.8113,-2.9252,-3.0421,-3.1649,-3.2951,-3.3129,-3.3617,-3.4919,-3.5511,-3.5881,-3.6029,-3.6931,-3.7641,-3.818,-3.8656,-3.9086,-3.9409,-3.9424,-3.9409,-3.9481,-3.9839,-4.0191,-4.0593,-4.1138,-4.1654,-4.2109,-4.2429,-4.2696,-4.2945,-4.3113,-4.3174,-4.3235,-4.3235,-4.3235,-4.3235,-4.3372,-4.3449,-4.3432,-4.3568,-4.3628,-4.3628,-4.3628,-4.3628,-4.3628,0.0,0.0,0.0,0.0,0.0,0.0,0.0,0.0,0.0,0.0,0.0,0.0,0.0,0.0,0.0,0.0,0.0,0.0,0.0,0.0,-0.9008,-0.9413,-0.9562,-0.9932,-1.0522,-1.1104,-1.1826,-1.2694,-1.3644,-1.4781,-1.6244,-1.7067,-1.759,-1.7711,-1.815,-1.8367,-1.8422,-1.8691,-1.8839,-1.8999,-1.9408,0.0,0.0,0.0,0.0,0.0,0.0,0.0,0.0,0.0,0.0,0.0,0.0,0.0,-2.3466,-2.3466,-2.3509,-2.3509,-2.3509,-2.3363,-2.3319,-2.3466,-2.3408,-2.3511,-2.4145,-2.4808,0.0,-2.6135,-2.687,-2.7401,-2.7401,-2.8502,-2.9654,-3.0272,-3.0989,-3.193,-3.3244,-3.3423,-3.3931,-3.5275,-3.5484,-3.5753,-3.6417,-3.6567,-3.712,-3.8302,-3.8437,-3.8736,-3.9394,-3.9424,-3.9496,-3.9696,-4.0021,-4.037,-4.0799,-4.1488,-4.1947,-4.2109,-4.2429,-4.2743,-4.3113,-4.3312,-4.3449,-4.3552,-4.3552,-4.3552,-4.3568,-4.3568,-4.3568,-4.3568,-4.3628,-4.3628,-4.3628,-4.3628,-4.3628,-4.3628,0.0,0.0,0.0,0.0,0.0,0.0,0.0,0.0,0.0,0.0,0.0,0.0,0.0,0.0,0.0,0.0,0.0,0.0,0.0,-0.854,-0.8857,-0.9008,-0.95,-0.9975,-1.0409,-1.0977,-1.1877,-1.2994,-1.4181,-1.5273,-1.6171,-1.6797,-1.7312,-1.7711,-1.8041,-1.8302,-1.8518,-1.8786,-1.8999,-1.9158,-1.9552,-1.9965,0.0,0.0,0.0,0.0,0.0,0.0,0.0,0.0,-2.3231,-2.3246,-2.3378,-2.3466,-2.3509,-2.3538,-2.3566,-2.3566,-2.3566,-2.3523,-2.348,-2.3566,-2.3523,0.0,0.0,-2.4982,-2.5637,-2.6307,-2.7026,-2.7658,-2.8092,-2.8913,-2.9789,-3.0402,-3.1091,-3.1795,-3.2766,-3.3245,-3.3829,-3.4756,-3.525,-3.5609,-3.5848,-3.6252,-3.6686,-3.7165,-3.7569,-3.7898,-3.8153,-3.8252,-3.8391,-3.8461,-3.8925,-3.9514,-4.0318,-4.0941,-4.163,-4.2429,-4.2743,-4.3052,-4.3295,-4.3432,-4.3568,-4.3628,-4.3628,-4.3628,-4.3628,-4.3628,-4.3628,-4.3628,-4.3628,-4.3628,-4.3628,-4.3628,-4.3628,-4.3628,0.0,0.0,0.0,0.0,0.0,0.0,0.0,0.0,0.0,0.0,0.0,0.0,0.0,0.0,0.0,0.0,0.0,0.0,-0.7788,-0.8328,-0.8646,-0.8804,-0.9458,-1.0046,-1.0542,-1.1146,-1.201,-1.3154,-1.4538,-1.5488,-1.6056,-1.6581,-1.7088,-1.7645,-1.803,-1.8356,-1.8614,-1.8946,-1.917,-1.9328,-1.972,-2.0105,0.0,0.0,0.0,0.0,0.0,0.0,0.0,0.0,-2.3363,-2.3363,-2.3494,-2.3538,-2.3538,-2.361,-2.3595,-2.3595,-2.3595,-2.3595,-2.3595,-2.3595,0.0,0.0,-2.4477,-2.5136,-2.5794,-2.6452,-2.7111,-2.7844,-2.8742,-2.928,-2.9864,-3.0687,-3.1225,-3.1706,-3.2422,-3.308,-3.3739,-3.4397,-3.5085,-3.5504,-3.5504,-3.5908,-3.6267,-3.6477,-3.6933,-3.7263,-3.7473,-3.7707,-3.791,-3.7977,-3.8427,-3.91,-3.9812,-4.0404,-4.116,-4.2015,-4.2321,-4.2807,-4.3372,-4.3568,-4.3628,-4.3628,-4.3628,-4.3628,-4.3628,-4.3628,-4.3628,-4.3628,-4.3628,-4.3628,-4.3628,-4.3628,-4.3479,-4.328,0.0,0.0,0.0,0.0,0.0,0.0,0.0,0.0,0.0,0.0,0.0,0.0,0.0,0.0,0.0,0.0,0.0,0.0,-0.767,-0.8002,-0.8381,-0.8758,-0.9357,-1.0099,-1.0872,-1.1686,-1.2396,-1.2988,-1.448,-1.543,-1.5931,-1.6524,-1.7032,-1.7523,-1.8139,-1.8464,-1.8614,-1.9011,-1.9275,-1.942,-1.9836,-2.0233,-2.066,0.0,0.0,0.0,0.0,0.0,0.0,0.0,-2.3509,-2.3494,-2.3566,-2.3595,-2.3595,-2.3595,-2.3595,-2.3595,-2.3595,-2.3595,-2.3595,-2.3595,0.0,0.0,-2.4477,-2.5136,-2.5794,-2.6467,-2.7126,-2.803,-2.9325,-2.9579,-3.0013,-3.1315,-3.1482,-3.1764,-3.2407,-3.3066,-3.3724,-3.4382,-3.507,-3.5489,-3.5489,-3.5504,-3.5774,-3.6432,-3.6595,-3.6999,-3.7662,-3.8029,-3.831,-3.8492,-3.8916,-3.9314,-3.9472,-4.0168,-4.0572,-4.0733,-4.1041,-4.1972,-4.3355,-4.3552,-4.3611,-4.3611,-4.3611,-4.3611,-4.3611,-4.3611,-4.3611,-4.3611,-4.3611,-4.3611,-4.3611,-4.3611,-4.3148,-4.2502,0.0,0.0,0.0,0.0,0.0,0.0,0.0,0.0,0.0,0.0,0.0,0.0,0.0,0.0,0.0,0.0,0.0,0.0,-0.7515,-0.7949,-0.8321,-0.8633,-0.9549,-1.0329,-1.088,-1.2311,-1.3297,-1.3723,-1.4619,-1.5323,-1.5788,-1.6114,-1.6684,-1.7379,-1.7767,-1.8096,-1.8464,-1.8987,-1.9251,-1.942,-1.9926,-2.0321,-2.066,0.0,0.0,0.0,0.0,0.0,0.0,0.0,0.0,0.0,-2.3595,-2.3653,-2.3739,-2.3638,-2.3653,-2.3739,-2.3739,-2.3739,-2.3739,-2.3839,-2.3797,-2.3919,-2.4582,-2.509,0.0,-2.6917,-2.7405,-2.803,-2.9325,-2.9579,-3.0013,-3.1315,-3.1597,-3.1787,-3.1983,-3.2569,-3.3036,-3.3231,-3.4145,-3.4786,-3.4786,-3.5319,-3.5729,-3.5924,-3.6084,-3.6353,-3.6599,-3.6886,-3.714,-3.7344,-3.7714,-3.8391,-3.9262,-3.9575,-4.017,-4.1041,-4.1157,-4.1502,-4.1997,-4.2014,-4.2071,-4.2071,-4.2071,-4.2071,-4.2071,-4.2071,-4.2071,-4.2071,-4.2071,-4.2071,-4.2071,-4.2071,-4.1922,-4.174,0.0,0.0,0.0,0.0,0.0,0.0,0.0,0.0,0.0,0.0,0.0,0.0,0.0,0.0,0.0,0.0,0.0,0.0,0.0,-0.7889,-0.8306,-0.8797,-0.9701,-1.0603,-1.1506,-1.2802,-1.3692,-1.407,-1.4675,-1.5264,-1.574,-1.5941,-1.6513,-1.72,-1.7479,-1.7865,-1.8313,-1.8881,-1.9251,-1.9473,-1.9978,-2.0372,-2.0709,0.0,0.0,0.0,0.0,0.0,0.0,0.0,0.0,0.0,-2.3653,-2.3739,-2.3782,-2.3696,-2.3782,-2.3882,-2.3797,-2.3839,-2.3882,-2.3982,-2.394,-2.4096,-2.4867,-2.5478,-2.6158,-2.7179,-2.7539,-2.8096,-2.9432,-2.9741,-3.0177,-3.1486,-3.1769,-3.1898,-3.1898,-3.2443,-3.2792,-3.2792,-3.3668,-3.4239,-3.4239,-3.4982,-3.5437,-3.5437,-3.5806,-3.6148,-3.6274,-3.6585,-3.6892,-3.7087,-3.7535,-3.8168,-3.8892,-3.9105,-3.9617,-4.0358,-4.0414,-4.0469,-4.058,-4.1143,-4.1409,-4.1409,-4.1409,-4.1409,-4.1409,-4.1409,-4.1409,-4.1409,-4.1409,-4.1409,-4.1409,-4.1409,-4.1243,-4.0994,0.0,0.0,0.0,0.0,0.0,0.0,0.0,0.0,0.0,0.0,0.0,0.0,0.0,0.0,0.0,0.0,0.0,0.0,0.0,0.0,-0.8321,-0.9101,-0.9888,-1.1049,-1.2474,-1.3147,-1.3761,-1.4249,-1.4734,-1.5264,-1.574,-1.5951,-1.64,-1.6955,-1.7301,-1.7689,-1.8084,-1.8732,-1.9146,-1.942,-1.9978,-2.0422,-2.0809,-2.1082,0.0,0.0,0.0,0.0,0.0,0.0,0.0,0.0,-2.3739,-2.3797,-2.3797,-2.3797,-2.3882,-2.3982,-2.3839,-2.3925,-2.4024,-2.4024,-2.4024,-2.423,-2.5116,-2.5938,-2.6658,-2.7238,-2.759,-2.8182,-2.9448,-2.9841,-3.0418,-3.1693,-3.1951,-3.2053,-3.2053,-3.257,-3.295,-3.295,-3.3454,-3.3848,-3.3848,-3.4471,-3.4957,-3.4957,-3.5629,-3.6152,-3.6369,-3.6765,-3.714,-3.7381,-3.7994,-3.8343,-3.8504,-3.8821,-3.9023,-3.9077,-3.9255,-3.9325,-3.9375,-4.063,-4.1226,-4.1226,-4.1226,-4.1226,-4.1226,-4.1226,-4.1226,-4.1226,-4.1226,-4.1226,-4.1226,-4.1226,-4.0812,-4.0282,0.0,0.0,0.0,0.0,0.0,0.0,0.0,0.0,0.0,0.0,0.0,0.0,0.0,0.0,0.0,0.0,0.0,0.0,0.0,0.0,-0.8596,-0.9205,-1.0545,-1.1757,-1.2736,-1.3208,-1.3812,-1.4419,-1.4784,-1.5264,-1.5672,-1.5846,-1.6181,-1.6684,-1.6955,-1.7357,-1.7822,-1.8452,-1.8881,-1.9291,-1.9823,-2.0233,-2.0523,-2.1033,-2.1471,0.0,0.0,0.0,0.0,0.0,0.0,0.0,-2.361,-2.3739,-2.3782,-2.3653,-2.3739,-2.3839,-2.394,-2.3982,-2.4024,-2.4193,-2.4109,-2.4152,-2.4657,-2.5299,-2.6105,-2.7047,-2.7539,-2.8032,-2.8845,-2.9539,-3.0266,-3.1086,-3.1744,-3.2135,-3.2135,-3.2257,-3.2364,-3.2364,-3.2844,-3.318,-3.318,-3.3907,-3.4363,-3.4363,-3.4695,-3.495,-3.5229,-3.5446,-3.6042,-3.7126,-3.7439,-3.803,-3.911,-3.9218,-3.9362,-3.9573,-3.9573,-3.9625,-3.9642,-3.9694,-3.9736,-3.9736,-3.9736,-3.9736,-3.9736,-3.9736,-3.9736,-3.9736,-3.9736,-3.9736,-3.9736,-3.9736,-3.9636,-3.952,0.0,0.0,0.0,0.0,0.0,0.0,0.0,0.0,0.0,0.0,0.0,0.0,0.0,0.0,0.0,0.0,0.0,0.0,0.0,0.0,-0.9088,-1.0143,-1.1279,-1.2179,-1.2797,-1.3216,-1.3692,-1.4359,-1.4666,-1.5205,-1.5798,-1.5856,-1.6192,-1.6694,-1.6853,-1.72,-1.7711,-1.8236,-1.8762,-1.9239,-1.9772,-2.0182,-2.0523,-2.0934,-2.1326,-2.1664,-2.1996,0.0,0.0,0.0,0.0,0.0,0.0,0.0,-2.3625,-2.3581,-2.361,-2.3739,-2.3797,-2.3882,-2.4067,-2.4276,-2.4151,-2.4122,-2.4522,-2.5136,-2.5804,-2.6568,-2.738,-2.8102,-2.8767,-2.9331,-3.0051,-3.1029,-3.1527,-3.1919,-3.2241,-3.2302,-3.2302,-3.2302,-3.2553,-3.271,-3.271,-3.338,-3.3821,-3.3821,-3.4318,-3.4678,-3.4909,-3.5194,-3.5689,-3.6516,-3.6859,-3.7412,-3.8195,-3.828,-3.8435,-3.8656,-3.8656,-3.8656,-3.8673,-3.9204,-3.9468,-3.9484,-3.9432,-3.9395,-3.9379,-3.9325,-3.9272,-3.9272,-3.9272,-3.9272,-3.9272,-3.9272,-3.9272,-3.9272,0.0,0.0,0.0,0.0,0.0,0.0,0.0,0.0,0.0,0.0,0.0,0.0,0.0,0.0,0.0,0.0,0.0,0.0,0.0,0.0,0.0,-1.1167,-1.1936,-1.249,-1.2805,-1.3155,-1.358,-1.4189,-1.4538,-1.5069,-1.5788,-1.5856,-1.6192,-1.6761,-1.6818,-1.7145,-1.7711,-1.8073,-1.8602,-1.9186,-1.9668,-2.0131,-2.0523,-2.0835,-2.1131,-2.1423,-2.1793,-2.2137,-2.2417,-2.2723,0.0,0.0,0.0,0.0,-2.3407,-2.3407,-2.3451,-2.3465,-2.3566,-2.3754,-2.4067,-2.4234,-2.4151,-2.4076,-2.4372,-2.4971,-2.5506,-2.5815,-2.6976,-2.8122,-2.8682,-2.9134,-2.9715,-3.0859,-3.1136,-3.1413,-3.1982,-3.2151,-3.2213,-3.2213,-3.2321,-3.2398,-3.2398,-3.2906,-3.3229,-3.3229,-3.3939,-3.4436,-3.4607,-3.5015,-3.5448,-3.5884,-3.6339,-3.675,-3.7086,-3.7286,-3.7419,-3.7584,-3.7584,-3.7584,-3.7617,-3.8807,-3.9411,-3.9493,-3.954,-3.9537,-3.9537,-3.9379,-3.9325,-3.9325,-3.9325,-3.9272,-3.9272,-3.9325,-3.9325,-3.9325,0.0,0.0,0.0,0.0,0.0,0.0,0.0,0.0,0.0,0.0,0.0,0.0,0.0,0.0,0.0,0.0,0.0,0.0,-0.8168,0.0,0.0,-1.165,-1.2057,-1.249,-1.2989,-1.3216,-1.358,-1.4189,-1.4419,-1.4824,-1.5478,-1.5788,-1.6134,-1.6627,-1.6761,-1.7088,-1.7523,-1.7843,-1.829,-1.8905,-1.9316,-1.9733,-2.0131,-2.066,-2.097,-2.1277,-2.1664,-2.1996,-2.2278,-2.2555,-2.2678,0.0,0.0,0.0,-2.2979,-2.2979,-2.2979,-2.3024,-2.326,-2.3668,-2.4024,-2.4166,-2.4124,-2.3997,-2.3902,-2.4298,-2.4639,-2.4574,-2.6299,-2.7871,-2.7961,-2.8647,-2.9307,-2.9475,-3.0063,-3.0582,-3.0674,-3.1166,-3.152,-3.152,-3.2044,-3.2398,-3.2398,-3.2475,-3.2592,-3.2717,-3.281,-3.3076,-3.3471,-3.3773,-3.441,-3.5454,-3.5893,-3.6538,-3.7418,-3.7599,-3.7696,-3.7858,-3.7858,-3.7858,-3.7858,-3.806,-3.8353,-3.8773,-3.941,-3.9677,-3.9677,-3.9537,-3.9501,-3.9448,-3.9325,-3.9272,-3.9325,-3.9432,-3.9501,-3.9501,0.0,0.0,0.0,0.0,0.0,0.0,0.0,0.0,0.0,0.0,0.0,0.0,0.0,0.0,0.0,-0.7794,-0.8055,-0.8562,-0.9376,-1.0552,-1.1544,-1.2253,-1.2533,-1.2858,-1.318,-1.3233,-1.3528,-1.401,-1.4181,-1.4538,-1.5001,-1.542,-1.5941,-1.6637,-1.6751,-1.7088,-1.7645,-1.7799,-1.8236,-1.8851,-1.9263,-1.9681,-2.0182,-2.061,-2.1006,-2.1375,-2.1664,-2.1949,-2.2137,-2.2417,-2.2509,-2.254,-2.2678,0.0,0.0,0.0,-2.2723,-2.2814,-2.3187,-2.3581,-2.394,-2.4166,-2.4082,-2.3982,-2.3839,-2.4192,-2.4521,-2.443,-2.5583,-2.6684,-2.706,-2.7875,-2.8667,-2.9134,-2.949,-2.9879,-3.0314,-3.0674,-3.0843,-3.0843,-3.1105,-3.1289,-3.1289,-3.1613,-3.1898,-3.2021,-3.2501,-3.2935,-3.3309,-3.3658,-3.4094,-3.4772,-3.5169,-3.569,-3.6245,-3.6404,-3.6498,-3.662,-3.662,-3.662,-3.6637,-3.7077,-3.7638,-3.8218,-3.8471,-3.8556,-3.8556,-3.8421,-3.8621,-3.8989,-3.8937,-3.917,-3.952,-3.959,-3.959,-3.9642,0.0,0.0,0.0,0.0,0.0,0.0,0.0,0.0,0.0,0.0,0.0,0.0,0.0,0.0,0.0,0.0,-0.8533,-0.92,-1.055,-1.1488,-1.2194,-1.2666,-1.2867,-1.3111,-1.3302,-1.3302,-1.3476,-1.383,-1.401,-1.43,-1.4647,-1.5128,-1.571,-1.6353,-1.6637,-1.7088,-1.7601,-1.7799,-1.8193,-1.8744,-1.9158,-1.9617,-2.0169,-2.056,-2.0957,-2.1326,-2.1664,-2.1841,-2.1996,-2.2278,-2.237,-2.237,-2.2463,-2.2509,0.0,0.0,0.0,-2.2692,-2.3098,-2.3451,-2.3797,-2.4082,-2.4082,-2.3982,-2.3882,-2.4145,-2.4373,-2.4298,-2.4866,-2.5556,-2.6051,-2.6977,-2.7974,-2.8778,-2.8935,-2.9169,-2.9792,-3.0058,-3.0166,-3.0166,-3.032,-3.0428,-3.0428,-3.0859,-3.1204,-3.1362,-3.2017,-3.251,-3.2875,-3.3166,-3.3501,-3.3811,-3.4195,-3.4575,-3.5006,-3.5345,-3.5566,-3.5622,-3.5622,-3.5622,-3.5639,-3.6214,-3.6789,-3.7347,-3.7624,-3.7745,-3.7745,-3.7616,-3.7885,-3.8371,-3.8321,-3.8656,-3.9158,-3.9394,-3.9461,-3.9478,0.0,0.0,0.0,0.0,0.0,0.0,0.0,0.0,0.0,0.0,0.0,0.0,-0.8123,-0.8404,-0.8685,-0.8956,-0.9054,-0.9739,-1.1166,-1.1887,-1.2484,-1.2972,-1.2981,0.0,-1.3302,-1.3302,-1.3476,-1.383,-1.395,-1.4181,-1.4529,-1.497,-1.5381,-1.5788,-1.6353,-1.6864,-1.7334,-1.7601,-1.7986,-1.8476,-1.8839,-1.9344,-1.9901,-2.0409,-2.0772,-2.1082,-2.1616,-2.1793,-2.1841,-2.2137,-2.2231,-2.2231,-2.2231,-2.2231,-2.2231,0.0,0.0,0.0,-2.2859,-2.3216,-2.3596,-2.394,-2.4024,-2.3982,-2.3982,-2.3912,-2.3799,-2.3655,-2.4297,-2.4837,-2.4882,-2.5982,-2.7131,-2.7944,-2.8149,-2.8296,-2.8504,-2.9058,-2.9458,-2.9458,-3.0027,-3.0428,-3.0428,-3.0458,-3.0562,-3.0803,-3.0885,-3.1152,-3.1646,-3.1839,-3.2093,-3.2498,-3.2829,-3.3428,-3.4236,-3.515,-3.5577,-3.5622,-3.5622,-3.5622,-3.5622,-3.5656,-3.569,-3.5825,-3.728,-3.7905,-3.7858,-3.7745,-3.7713,-3.7747,-3.7634,-3.7552,-3.7719,-3.8522,-3.8824,-3.8958,0.0,0.0,0.0,0.0,0.0,0.0,0.0,0.0,0.0,0.0,0.0,0.0,0.0,-0.9334,-0.9451,-0.9614,-1.0264,-1.1042,-1.1863,-1.2595,-1.3039,-1.3172,-1.3285,-1.3338,-1.3398,-1.3398,-1.3528,-1.383,-1.395,-1.413,-1.4378,-1.4852,-1.5147,-1.5381,-1.6134,-1.6705,-1.7134,-1.7423,-1.7865,-1.8422,-1.8839,-1.9396,-2.0003,-2.0409,-2.0871,-2.1277,-2.1664,-2.1841,-2.1949,-2.2137,-2.2184,-2.2184,-2.2184,-2.2184,-2.2231,-2.2324,-2.2463,-2.2646,-2.2859,-2.3172,-2.3553,-2.3797,-2.394,-2.4024,-2.4135,-2.4094,-2.3994,-2.4036,-2.4292,-2.4597,-2.5024,-2.5743,-2.6546,-2.7357,-2.7607,-2.7904,-2.8431,-2.8805,-2.9009,-2.9009,-2.9242,-2.9381,-2.9381,-2.9769,-3.0068,-3.0266,-3.0673,-3.1108,-3.1453,-3.1582,-3.1838,-3.212,-3.2488,-3.2995,-3.3631,-3.3987,-3.4132,-3.4201,-3.4675,-3.4895,-3.4912,-3.5402,-3.5622,-3.5656,-3.6197,-3.6434,-3.6434,-3.6388,-3.6645,-3.7131,-3.7084,-3.734,-3.7795,-3.8113,-3.8215,-3.8248,0.0,0.0,0.0,0.0,0.0,0.0,0.0,0.0,0.0,-0.9001,0.0,0.0,0.0,0.0,-1.0154,-1.0545,-1.1372,-1.2101,-1.258,-1.3203,-1.3545,-1.3545,-1.364,-1.3692,-1.3692,-1.3692,-1.3761,-1.389,-1.4061,-1.4249,-1.4378,-1.4852,-1.5088,-1.5215,-1.5914,-1.642,-1.6853,-1.7256,-1.77,-1.8205,-1.8732,-1.9303,-1.985,-2.0359,-2.0809,-2.1264,-2.1602,-2.1793,-2.1949,-2.2137,-2.2184,-2.2231,-2.2231,-2.2324,-2.237,-2.2417,-2.2569,-2.2706,-2.2859,-2.3172,-2.3494,-2.3754,-2.3882,-2.4067,-2.4317,-2.4302,-2.4261,-2.4385,-2.4385,-2.4524,-2.4972,-2.5321,-2.5846,-2.6796,-2.7042,-2.7303,-2.7876,-2.8233,-2.8436,-2.8436,-2.8654,-2.8794,-2.8794,-2.92,-2.9514,-2.9642,-3.005,-3.0415,-3.0704,-3.0783,-3.0972,-3.1297,-3.1921,-3.2426,-3.2772,-3.311,-3.327,-3.3322,-3.3828,-3.4107,-3.4124,-3.4614,-3.4878,-3.4895,-3.5131,-3.5385,-3.5622,-3.5622,-3.5926,-3.64,-3.64,-3.6705,-3.7178,-3.7432,-3.7533,-3.7567,0.0,0.0,0.0,0.0,0.0,0.0,0.0,0.0,-0.9412,-1.0131,0.0,0.0,0.0,0.0,0.0,-1.1763,-1.2301,-1.2785,-1.3226,-1.3729,-1.401,-1.401,-1.401,-1.401,-1.401,-1.401,-1.401,-1.401,-1.4359,-1.4529,-1.4529,-1.4961,-1.5215,-1.5215,-1.5682,-1.6087,-1.6441,-1.7054,-1.7445,-1.7767,-1.8476,-1.9064,-1.9473,-2.0118,-2.056,-2.0858,-2.141,-2.1712,-2.1841,-2.2137,-2.2231,-2.2231,-2.237,-2.2509,-2.2615,-2.2615,-2.2689,-2.2841,0.0,0.0,0.0,-2.3711,-2.3882,-2.4109,-2.4416,-2.4498,-2.4539,-2.4589,-2.4589,-2.4589,-2.4589,-2.4589,-2.5041,-2.6249,-2.6481,-2.6512,-2.6691,-2.7281,-2.7687,-2.7687,-2.8311,-2.8748,-2.8763,-2.8763,-2.8795,-2.8904,-2.8904,-2.9013,-2.9305,-2.9305,-2.9531,-2.9973,-3.0937,-3.156,-3.1732,-3.2603,-3.3041,-3.3041,-3.3194,-3.327,-3.3253,-3.3364,-3.3406,-3.344,-3.415,-3.4895,-3.5543,-3.556,-3.5622,-3.5622,-3.5622,-3.5622,-3.5707,-3.6468,-3.6738,-3.6857,0.0,0.0,0.0,0.0,0.0,-0.9738,-0.9835,-1.033,-1.0771,0.0,0.0,0.0,-1.1769,-1.195,-1.228,-1.2815,-1.3313,-1.3711,-1.4101,-1.4296,-1.435,-1.435,-1.435,-1.435,-1.435,-1.435,-1.4419,-1.4538,-1.4588,-1.4715,-1.4843,-1.5088,-1.5264,-1.5362,-1.573,-1.6029,-1.6239,-1.6853,-1.7312,-1.7767,-1.841,-1.8934,-1.9473,-2.0029,-2.0472,-2.0858,-2.141,-2.1712,-2.1841,-2.2231,-2.2324,-2.237,-2.2509,-2.2555,-2.2615,-2.2735,-2.2795,-2.2841,-2.2992,0.0,0.0,0.0,0.0,0.0,-2.4523,-2.4645,-2.4742,-2.4846,-2.4886,-2.4886,-2.4886,-2.4886,-2.5012,-2.5365,-2.5738,-2.6197,-2.6773,-2.7067,-2.728,-2.728,-2.7469,-2.7784,-2.8257,-2.8304,-2.8509,-2.8997,-2.9029,-2.9075,-2.9167,-2.9259,-2.938,-2.9605,-2.9992,-3.0326,-3.0629,-3.0853,-3.108,-3.1224,-3.19,-3.2209,-3.2226,-3.2873,-3.3194,-3.3194,-3.3395,-3.3917,-3.4656,-3.5313,-3.5622,-3.5622,-3.5622,-3.5622,-3.5639,-3.5859,-3.5943,-3.596,0.0,0.0,0.0,0.0,0.0,-1.069,-1.1075,-1.1495,-1.1827,0.0,0.0,0.0,-1.2786,-1.2953,-1.3404,-1.4234,-1.4288,-1.4449,-1.4855,-1.4883,-1.4883,-1.4883,-1.4883,-1.4834,-1.4775,-1.4834,-1.4893,-1.4902,-1.5079,-1.5196,-1.5264,-1.5449,-1.5546,-1.57,-1.5961,-1.6192,-1.6343,-1.6786,-1.7179,-1.7534,-1.8236,-1.8774,-1.9316,-1.9875,-2.0321,-2.0709,-2.1215,-2.1568,-2.1793,-2.2184,-2.2431,-2.2583,-2.2675,-2.2766,-2.2797,-2.2917,-2.3007,-2.3142,-2.326,-2.3378,-2.3581,-2.3867,0.0,0.0,-2.4605,-2.4766,-2.4886,-2.5045,-2.5084,-2.5139,-2.5139,-2.5139,-2.5139,-2.5139,-2.5377,-2.5708,-2.6052,-2.6409,-2.6641,-2.6641,-2.6909,-2.7241,-2.7692,-2.7739,-2.7914,-2.837,-2.8611,-2.8805,-2.9075,-2.9167,-2.9305,-2.9425,-2.9531,-2.9726,-2.9989,-3.0017,-3.013,-3.0316,-3.0872,-3.1172,-3.1231,-3.1816,-3.2101,-3.2118,-3.2419,-3.2804,-3.3393,-3.446,-3.5172,-3.5549,-3.5577,-3.5622,-3.5622,-3.5622,-3.5622,-3.5622,0.0,0.0,-1.0558,-1.1195,-1.1398,-1.1691,-1.2579,-1.265,-1.2729,0.0,-1.3045,-1.3253,-1.3821,-1.3779,-1.427,-1.5628,-1.5295,-1.518,-1.5507,-1.5526,-1.5526,-1.5526,-1.5526,-1.542,-1.5323,-1.543,-1.542,-1.5323,-1.5614,-1.5798,-1.5788,-1.5914,-1.6077,-1.6171,-1.6363,-1.6534,-1.6684,-1.6955,-1.7123,-1.7301,-1.8007,-1.856,-1.9093,-1.972,-2.0131,-2.0472,-2.1033,-2.1375,-2.1664,-2.2091,-2.2491,-2.2795,-2.2841,-2.2962,-2.3127,-2.3127,-2.3334,-2.3553,-2.3553,-2.3668,-2.3882,-2.412,-2.4261,0.0,-2.4766,-2.4926,-2.5045,-2.5107,-2.524,-2.5294,-2.5294,-2.5294,-2.5294,-2.5294,-2.5294,-2.5256,-2.5045,-2.5543,-2.5939,-2.5939,-2.6509,-2.6963,-2.7079,-2.7079,-2.7169,-2.739,-2.7838,-2.8342,-2.8979,-2.9011,-2.9088,-2.9259,-2.938,-2.9531,-2.9637,-2.9694,-2.981,-2.9946,-3.006,-3.0205,-3.0333,-3.0526,-3.0609,-3.0643,-3.1349,-3.1741,-3.2009,-3.3206,-3.4375,-3.5374,-3.5515,-3.5577,-3.5622,-3.5622,-3.5622,-3.5622,0.0,-1.1683,-1.1962,-1.2661,-1.3095,-1.3358,-1.3487,-1.3798,-1.3939,-1.3705,-1.3621,-1.3807,-1.4362,-1.4788,-1.5279,-1.5954,-1.6234,-1.6373,-1.6389,-1.6343,-1.6285,-1.6114,-1.6114,-1.6124,-1.6066,-1.6124,-1.6124,-1.6066,-1.6124,-1.6181,-1.6181,-1.6353,-1.6524,-1.6694,-1.6797,-1.6976,-1.7155,-1.7301,-1.7479,-1.7656,-1.7975,-1.8452,-1.904,-1.9512,-1.9965,-2.0472,-2.1033,-2.1375,-2.1712,-2.2324,-2.2661,-2.2902,-2.3007,-2.3112,-2.3275,-2.3378,-2.3581,-2.3754,-2.3855,-2.3967,-2.412,-2.4426,-2.4574,0.0,-2.4989,-2.5162,-2.5256,-2.524,-2.5294,-2.5294,-2.5294,-2.5294,-2.5294,-2.5294,-2.5294,-2.5294,-2.5256,-2.5368,-2.5463,-2.5463,-2.5552,-2.5895,-2.6397,-2.6461,-2.6741,-2.7358,-2.7392,-2.7672,-2.8252,-2.83,-2.8553,-2.9106,-2.9167,-2.9259,-2.9396,-2.938,-2.9441,-2.9608,-2.9726,-2.9814,-2.9858,-3.0017,-3.0146,-3.0146,-3.0379,-3.0859,-3.1495,-3.1819,-3.3023,-3.4695,-3.5301,-3.5549,-3.5622,-3.5622,-3.5622,-3.5622,-1.2574,-1.2822,-1.3191,-1.3857,-1.4144,-1.4364,-1.4595,-1.4665,-1.4697,-1.4455,-1.4617,-1.4956,-1.5438,-1.6103,-1.6632,-1.7068,-1.7247,-1.728,-1.7234,-1.7146,-1.6978,-1.6909,-1.6909,-1.6797,-1.6627,-1.6684,-1.674,-1.6627,-1.674,-1.6797,-1.6909,-1.7022,-1.7179,-1.7457,-1.7501,-1.7611,-1.781,-1.7854,-1.7963,-1.8041,-1.8205,-1.8572,-1.904,-1.946,-1.9862,-2.0372,-2.0822,-2.141,-2.1996,-2.2495,-2.2783,-2.3037,-2.3157,-2.3319,-2.348,-2.3625,-2.3897,-2.4177,-2.4261,-2.4426,-2.4589,-2.4791,-2.491,0.0,0.0,-2.5278,-2.5355,-2.5355,-2.541,-2.5448,-2.5448,-2.5448,-2.5448,-2.5448,-2.5448,-2.5448,-2.5492,-2.5394,-2.5294,-2.5294,-2.5294,-2.5438,-2.5814,-2.5846,-2.615,-2.6912,-2.6821,-2.6999,-2.7612,-2.7632,-2.7905,-2.8584,-2.8616,-2.8774,-2.9213,-2.9213,-2.9275,-2.9412,-2.9457,-2.9547,-2.9608,-2.977,-2.9886,-2.9897,-2.9957,-3.0299,-3.0778,-3.1139,-3.1962,-3.3121,-3.4348,-3.5155,-3.5549,-3.5577,-3.5622,-3.5622,-1.3732,-1.4014,-1.4468,-1.4971,-1.5066,-1.5167,-1.5608,-1.5457,-1.5357,-1.5417,-1.573,-1.6157,-1.6819,-1.749,-1.8092,-1.8466,-1.8312,-1.8182,-1.8178,-1.797,-1.7818,-1.7733,-1.7733,-1.7623,-1.7335,-1.7401,-1.7401,-1.729,-1.7401,-1.7579,-1.7689,-1.7744,-1.7952,-1.8267,-1.8309,-1.8429,-1.8494,-1.8494,-1.856,-1.8572,-1.8625,-1.8786,-1.9093,-1.9512,-1.9862,-2.0283,-2.0759,-2.1492,-2.2278,-2.2618,-2.2873,-2.3127,-2.3275,-2.3494,-2.3653,-2.3824,-2.4177,-2.458,-2.4686,-2.4871,-2.5084,-2.5185,-2.5224,-2.5262,0.0,0.0,0.0,-2.5508,-2.56,-2.5637,-2.5637,-2.5637,-2.5637,-2.5637,-2.5637,-2.5659,-2.5738,-2.5567,-2.5448,-2.541,-2.541,-2.5432,-2.5454,-2.547,-2.5657,-2.6237,-2.6182,-2.639,-2.6968,-2.6963,-2.7209,-2.7889,-2.7905,-2.8173,-2.8681,-2.8869,-2.8962,-2.9053,-2.9196,-2.9321,-2.9428,-2.9547,-2.9665,-2.9722,-2.9766,-2.987,-3.0109,-3.0668,-3.1095,-3.1632,-3.3451,-3.46,-3.529,-3.5498,-3.5577,-3.5622,-1.572,-1.5623,-1.5797,-1.6236,-1.6293,-1.6262,-1.6225,-1.6182,-1.6267,-1.6551,-1.6764,-1.7284,-1.84,-1.8821,-1.927,-1.9927,-1.9812,-1.9569,-1.9068,-1.9153,-1.898,-1.8555,-1.8632,-1.8602,-1.8441,-1.8452,-1.8452,-1.8441,-1.8452,-1.8452,-1.8506,-1.8721,-1.8881,-1.8934,-1.9146,-1.9263,-1.9263,-1.9263,-1.9263,-1.9316,-1.9408,-1.9344,-1.9239,-1.9592,-1.9965,-2.0283,-2.1068,-2.1793,-2.2417,-2.2618,-2.2873,-2.3127,-2.3378,-2.3625,-2.3824,-2.3994,-2.4385,-2.4782,-2.4926,-2.5162,-2.5394,-2.5524,-2.5584,-2.5663,-2.5807,0.0,-2.5844,-2.5844,0.0,-2.5844,-2.5701,0.0,0.0,-2.5701,-2.5701,-2.5738,-2.5937,-2.5937,-2.5917,-2.586,-2.5807,-2.5807,-2.5663,-2.5621,-2.5556,-2.5545,-2.5506,-2.575,-2.6284,-2.6331,-2.6566,-2.7194,-2.7209,-2.7257,-2.7336,-2.7921,-2.8205,-2.825,-2.8837,-2.9121,-2.9137,-2.9305,-2.935,-2.938,-2.9637,-2.9653,-2.9608,-2.9911,-3.0433,-3.116,-3.3073,-3.413,-3.4627,-3.5284,-3.5566,-3.5622,-1.6768,-1.6665,-1.6816,-1.698,-1.6934,-1.6892,-1.685,-1.7119,-1.7401,-1.7517,-1.8312,-1.9092,-1.9751,-2.0359,-2.081,-2.1059,-2.1091,-2.0805,-2.0152,-2.027,-2.0195,-1.9708,-1.9488,-1.9331,-1.9186,-1.9093,-1.904,-1.904,-1.904,-1.9093,-1.9186,-1.9396,-1.9604,-1.9811,-2.0016,-2.0169,-2.0207,-2.0207,-2.0156,-2.0118,-2.0169,-2.0105,-2.0003,-1.9914,-2.0169,-2.061,-2.1215,-2.1793,-2.2324,-2.2709,-2.2994,-2.3246,-2.3494,-2.3711,-2.3925,-2.4078,-2.4508,-2.4926,-2.5029,-2.5301,-2.5605,-2.5642,-2.5717,-2.5844,-2.5881,-2.5897,-2.5897,-2.5897,0.0,0.0,0.0,0.0,0.0,0.0,-2.5864,-2.5921,-2.6154,-2.6225,-2.6189,-2.6099,-2.6063,-2.6026,-2.5901,-2.5807,-2.5696,-2.5589,-2.5546,-2.5577,-2.571,-2.5648,-2.5862,-2.655,-2.6509,-2.6672,-2.7099,-2.7383,-2.7525,-2.7525,-2.8205,-2.8537,-2.8537,-2.8978,-2.9213,-2.9305,-2.9502,-2.9608,-2.9653,-2.983,-3.008,-3.051,-3.1733,-3.297,-3.4113,-3.4673,-3.515,-3.5566,-1.8081,0.0,-1.7679,-1.7639,-1.7557,-1.7542,-1.7729,-1.8334,-1.8792,-1.9027,-2.0021,-2.085,-2.1199,-2.1829,-2.2235,-2.2179,-2.2235,-2.1988,-2.1315,-2.1382,-2.1282,-2.0901,-2.0485,-2.0156,-2.0055,-1.9914,-1.9862,-1.9862,-1.9862,-1.9914,-2.0003,-2.0105,-2.0359,-2.0623,-2.0822,-2.0908,-2.1006,-2.1055,-2.1006,-2.0908,-2.0908,-2.0908,-2.0809,-2.0334,-2.0472,-2.0957,-2.1264,-2.1746,-2.2278,-2.2754,-2.3083,-2.3363,-2.3566,-2.3782,-2.4024,-2.412,-2.4549,-2.5045,-2.5146,-2.5438,-2.5754,-2.5775,-2.5864,-2.597,-2.597,-2.597,-2.597,-2.597,-2.597,0.0,0.0,0.0,-2.5917,-2.597,0.0,-2.6134,-2.6365,-2.6453,-2.6469,-2.633,-2.6295,-2.6225,-2.6118,-2.6026,-2.5917,-2.5775,-2.5733,-2.56,-2.547,-2.5262,-2.5385,-2.5886,-2.5765,-2.5977,-2.6514,-2.672,-2.6799,-2.6814,-2.7494,-2.7826,-2.7841,-2.8537,-2.8883,-2.8989,-2.9332,-2.9457,-2.9547,-2.9726,-2.9814,-2.9907,-3.0498,-3.1684,-3.3152,-3.3929,-3.4611,-3.5251,-2.007,-1.9155,-1.8422,-1.8305,-1.8214,-1.8422,-1.9099,-1.988,-2.057,-2.1309,-2.1701,-2.2178,-2.2833,-2.3157,-2.3363,-2.3363,-2.3216,-2.298,-2.2546,-2.2346,-2.2212,-2.213,-2.1622,-2.1313,-2.1126,-2.1042,-2.0944,-2.0944,-2.0944,-2.0944,-2.0944,-2.1068,-2.118,-2.118,-2.1471,-2.1568,-2.1554,-2.1698,-2.1746,-2.1746,-2.1746,-2.1698,-2.1506,-2.0809,-2.0822,-2.1229,-2.1375,-2.1746,-2.2278,-2.2754,-2.3083,-2.3363,-2.3566,-2.3782,-2.4024,-2.4219,-2.4645,-2.5045,-2.5301,-2.5659,-2.5917,-2.5974,-2.6079,-2.6168,-2.6168,-2.6168,-2.6168,-2.6168,-2.6168,-2.6168,-2.6026,-2.599,-2.6026,-2.6168,-2.6168,0.0,0.0,-2.6691,-2.6691,-2.6691,-2.6521,-2.6383,-2.6383,-2.626,-2.6134,-2.601,-2.5917,-2.5787,-2.5616,-2.541,-2.524,-2.5139,-2.5076,-2.5053,-2.5084,-2.5708,-2.604,-2.604,-2.6783,-2.713,-2.7162,-2.7826,-2.8126,-2.8158,-2.8958,-2.9259,-2.9137,-2.9428,-2.9518,-2.9518,-2.9754,-3.0401,-3.1381,-3.3185,-3.4096,-3.456,-2.0943,-2.0385,-1.9758,-1.9132,-1.9306,-1.9757,-2.0498,-2.1395,-2.2129,-2.2503,-2.3197,-2.3851,-2.4256,-2.4374,-2.4405,-2.4405,-2.4241,-2.3975,-2.3563,-2.3304,-2.3157,-2.3123,-2.2583,-2.2189,-2.2081,-2.1941,-2.1813,-2.1636,-2.1636,-2.1636,-2.1636,-2.1793,-2.1921,-2.2049,-2.2249,-2.2434,-2.2572,-2.2618,-2.2709,-2.2768,-2.2618,-2.2388,-2.2109,-2.1396,-2.1215,-2.1375,-2.1471,-2.1793,-2.2278,-2.2754,-2.3127,-2.3451,-2.3653,-2.3967,-2.4234,-2.44,-2.4806,-2.5217,-2.5339,-2.568,-2.599,-2.5974,-2.6115,-2.622,-2.622,-2.6222,-2.6277,-2.6277,-2.6329,-2.638,-2.6329,-2.6277,-2.6241,-2.638,-2.638,-2.652,0.0,-2.7023,-2.7184,-2.723,-2.6973,-2.6792,-2.6742,-2.6572,-2.6417,-2.6279,-2.617,-2.6007,-2.5824,-2.5508,-2.5317,-2.524,-2.5084,-2.5005,-2.5005,-2.5123,-2.5208,-2.5208,-2.5874,-2.6219,-2.6335,-2.7013,-2.7624,-2.811,-2.8497,-2.8846,-2.9259,-2.9428,-2.9518,-2.9518,-2.9592,-2.9855,-3.0449,-3.229,-3.3375,-3.4134,-2.2115,-2.1833,-2.1343,-2.0426,-2.0895,-2.1596,-2.2137,-2.3062,-2.3756,-2.4013,-2.4678,-2.5217,-2.5422,-2.54,-2.5357,-2.5259,-2.5121,-2.4902,-2.4517,-2.4256,-2.4094,-2.4061,-2.3538,-2.3157,-2.2995,-2.286,-2.2694,-2.248,-2.248,-2.2449,-2.2449,-2.254,-2.2678,-2.2799,-2.2875,-2.3054,-2.329,-2.3348,-2.3451,-2.3538,-2.3304,-2.3068,-2.2785,-2.2203,-2.1888,-2.1712,-2.1746,-2.203,-2.2449,-2.2889,-2.326,-2.3581,-2.3824,-2.4135,-2.44,-2.4605,-2.495,-2.5394,-2.5567,-2.5844,-2.6115,-2.617,-2.6222,-2.631,-2.631,-2.6364,-2.6417,-2.6417,-2.6486,-2.6572,-2.6572,-2.6486,-2.6452,-2.6572,-2.6537,-2.6657,0.0,-2.7233,-2.7452,-2.7496,-2.7279,-2.7137,-2.7072,-2.6909,-2.6708,-2.6556,-2.6365,-2.617,-2.5954,-2.5621,-2.5355,-2.5294,-2.506,-2.4942,-2.4942,-2.4782,-2.4701,-2.4717,-2.5056,-2.5259,-2.543,-2.6119,-2.6694,-2.7324,-2.7917,-2.8437,-2.891,-2.921,-2.9382,-2.9412,-2.9412,-2.9531,-2.9883,-3.1365,-3.2747,-3.3935,-2.3636,-2.3574,-2.315,-2.2179,-2.2927,-2.3752,-2.3973,-2.481,-2.5475,-2.5737,-2.6129,-2.637,-2.637,-2.637,-2.6266,-2.6002,-2.5892,-2.5738,-2.5458,-2.5208,-2.5013,-2.4972,-2.4533,-2.4184,-2.3964,-2.3752,-2.3595,-2.345,-2.3392,-2.3363,-2.3363,-2.3319,-2.3319,-2.3348,-2.3421,-2.3493,-2.3638,-2.3782,-2.3925,-2.4024,-2.3925,-2.3681,-2.3406,-2.3201,-2.2768,-2.2263,-2.2077,-2.2342,-2.2799,-2.3172,-2.3436,-2.3681,-2.4036,-2.4302,-2.4564,-2.4839,-2.5169,-2.553,-2.5901,-2.6115,-2.6239,-2.645,-2.6485,-2.6485,-2.6485,-2.6554,-2.6623,-2.6623,-2.6691,-2.6725,-2.6725,-2.6657,-2.664,-2.6691,-2.6657,-2.6725,-2.707,-2.7355,-2.7526,-2.7526,-2.7465,-2.7434,-2.7404,-2.723,-2.7021,-2.6841,-2.6556,-2.6279,-2.601,-2.5642,-2.5394,-2.5294,-2.4982,-2.4822,-2.4782,-2.458,-2.4498,-2.4457,-2.4359,-2.4359,-2.4513,-2.5133,-2.5555,-2.5874,-2.724,-2.7958,-2.8142,-2.8837,-2.9167,-2.9305,-2.9305,-2.9412,-2.9614,-3.0577,-3.2142,-3.3935,-2.5333,-2.557,-2.5588,-2.535,-2.4977,-2.4952,-2.5587,-2.6184,-2.6639,-2.6865,-2.7134,-2.74,-2.7495,-2.7357,-2.7203,-2.7031,-2.6721,-2.6455,-2.6245,-2.6068,-2.5917,-2.5788,-2.547,-2.516,-2.4863,-2.4759,-2.4542,-2.4142,-2.4063,-2.3994,-2.3909,-2.3839,-2.3839,-2.3909,-2.3894,-2.4036,-2.4276,-2.4451,-2.4655,-2.4815,-2.4679,-2.4451,-2.4177,-2.3809,-2.3551,-2.329,-2.2754,-2.2709,-2.3038,-2.3363,-2.3653,-2.4036,-2.4317,-2.4645,-2.5029,-2.5323,-2.5642,-2.5901,-2.6154,-2.6329,-2.6432,-2.6485,-2.652,-2.6572,-2.6572,-2.6742,-2.6909,-2.6909,-2.6973,-2.7053,-2.6989,-2.6957,-2.6909,-2.6942,-2.6973,-2.7135,-2.7355,-2.7539,-2.7719,-2.7853,-2.7853,-2.7736,-2.7496,-2.7293,-2.7149,-2.7117,-2.6759,-2.6452,-2.6225,-2.5848,-2.553,-2.5294,-2.5045,-2.4846,-2.4645,-2.4426,-2.4276,-2.4109,-2.4009,-2.4009,-2.4124,-2.4346,-2.4852,-2.5648,-2.671,-2.7473,-2.8036,-2.8791,-2.9121,-2.9167,-2.9259,-2.9457,-2.9797,-3.1189,-3.249,-3.3609,-2.6845,-2.7229,-2.7466,-2.7507,-2.7094,-2.6813,-2.6985,-2.73,-2.7624,-2.785,-2.8103,-2.8288,-2.8332,-2.8183,-2.7976,-2.7699,-2.7437,-2.723,-2.7034,-2.6889,-2.6674,-2.6503,-2.6332,-2.6052,-2.5742,-2.5594,-2.5368,-2.4965,-2.4799,-2.4599,-2.4436,-2.4385,-2.4343,-2.4328,-2.4385,-2.4549,-2.4766,-2.5091,-2.5285,-2.5454,-2.5285,-2.5052,0.0,-2.4461,-2.423,-2.4051,-2.3653,-2.348,-2.3523,-2.3711,-2.3994,-2.4369,-2.467,-2.4989,-2.5301,-2.568,-2.5917,-2.6151,-2.6382,-2.6503,-2.6554,-2.6572,-2.6674,-2.6759,-2.6775,-2.6975,-2.7184,-2.7215,-2.7324,-2.74,-2.7324,-2.7279,-2.7233,-2.7201,-2.7261,-2.7417,-2.76,-2.776,-2.7886,-2.8081,-2.8109,-2.8025,-2.7795,-2.7552,-2.7369,-2.7293,-2.6957,-2.6674,-2.6365,-2.5994,-2.5642,-2.5355,-2.5045,-2.4806,-2.4564,-2.4317,-2.4051,-2.3839,-2.3711,-2.3726,-2.3769,-2.3867,-2.4234,-2.4929,-2.5897,-2.6714,-2.7551,-2.8334,-2.8853,-2.9213,-2.9321,-2.9502,-2.9826,-3.0997,-3.2041,-3.2961,-2.8234,-2.8625,-2.8872,-2.892,-2.8992,-2.883,-2.8275,-2.8329,-2.853,-2.8737,-2.8968,-2.9089,-2.9027,-2.8893,-2.8633,-2.8218,-2.8156,-2.8047,-2.784,-2.7666,-2.7439,-2.7175,-2.708,-2.6872,-2.6556,-2.6368,-2.6123,-2.5832,-2.5519,-2.5253,-2.502,-2.491,-2.4806,-2.471,-2.4846,-2.5029,-2.5285,-2.5684,-2.5885,-2.599,-2.5828,-2.5589,-2.5307,-2.5098,-2.4839,-2.4661,-2.4605,-2.4359,-2.4109,-2.4162,-2.441,-2.4751,-2.5052,-2.5301,-2.5567,-2.5937,-2.6151,-2.631,-2.6537,-2.6606,-2.6623,-2.6708,-2.6825,-2.6959,-2.704,-2.7264,-2.7465,-2.7557,-2.7659,-2.7701,-2.7659,-2.7587,-2.7526,-2.7465,-2.7526,-2.763,-2.7847,-2.8,-2.8138,-2.8255,-2.8335,0.0,-2.8182,-2.7893,-2.7659,-2.7448,-2.7184,-2.6859,-2.6487,-2.6118,-2.5807,-2.5454,-2.5084,-2.4742,-2.4539,-2.4193,-2.3882,-2.3595,-2.3494,-2.3466,-2.3509,-2.3566,-2.3767,-2.4151,-2.5122,-2.6049,-2.6942,-2.7766,-2.8595,-2.935,-2.9473,-2.9608,-2.9806,-3.0403,-3.1218,-3.2166,-2.9546,-2.963,-2.9633,-2.9701,-2.9709,-2.9729,-2.9717,-2.9469,-2.9363,-2.9561,-2.9633,-2.9653,-2.9638,-2.9513,-2.9362,-2.9163,-2.9005,-2.8795,-2.8554,-2.844,-2.8255,-2.7918,-2.7794,-2.7601,-2.7404,-2.7175,-2.6937,-2.6607,-2.6333,-2.6016,-2.5631,-2.54,-2.5262,-2.5262,-2.5262,-2.5626,-2.6208,-2.6401,-2.6556,-2.6556,-2.6521,-2.6297,-2.5908,-2.5742,-2.5535,-2.5378,-2.5169,-2.4815,-2.4508,-2.4508,-2.4791,-2.5201,-2.5301,-2.5605,-2.5937,-2.6189,-2.6382,-2.6537,-2.664,-2.6674,-2.6708,-2.6842,-2.6909,-2.704,-2.7296,-2.7434,-2.7617,-2.7853,-2.794,-2.794,-2.794,-2.7777,-2.7672,-2.773,-2.7829,-2.8,-2.8264,-2.8448,-2.8619,-2.8694,-2.8718,-2.8644,-2.8458,-2.8136,-2.7864,-2.7672,-2.7338,-2.7021,-2.6758,-2.6418,-2.6046,-2.5663,-2.5355,-2.5005,-2.4605,-2.4245,-2.3909,-2.3595,-2.3407,-2.3363,-2.3509,-2.3566,-2.3767,-2.4151,-2.5237,-2.615,-2.6957,-2.787,-2.879,-2.9637,-2.9653,-2.9742,-2.9891,-3.0004,-3.0506,-3.1299,-3.0159,-3.0133,-3.0076,-3.0105,-3.0106,-3.0122,-3.0199,-3.0068,-2.999,-3.0054,-3.0081,-3.0101,-3.0056,-2.9945,-2.9851,-2.9823,-2.9658,-2.9476,-2.9279,-2.9111,-2.8893,-2.8646,-2.8524,-2.8373,-2.8183,-2.7958,-2.7706,-2.737,-2.7078,-2.674,-2.6351,-2.6068,-2.5905,-2.5924,-2.6087,-2.6437,-2.6889,-2.7034,-2.7147,-2.7164,-2.7051,-2.6856,-2.659,-2.6367,-2.6156,-2.5994,-2.5832,-2.5647,-2.5422,-2.513,-2.5262,-2.5621,-2.5696,-2.5937,-2.6189,-2.6435,-2.6572,-2.6691,-2.6825,-2.6859,-2.6859,-2.6942,-2.704,-2.7184,-2.7404,-2.7569,-2.7777,-2.8042,-2.8109,-2.8164,-2.8164,-2.8063,-2.8045,-2.8156,-2.8291,-2.8456,-2.8664,-2.885,-2.8966,-2.9056,-2.9056,-2.8989,-2.8779,-2.8576,-2.8309,-2.7893,-2.7569,-2.7276,-2.7021,-2.6691,-2.6332,-2.5924,-2.5589,-2.5262,-2.4855,-2.4533,-2.4204,-2.3852,-2.3653,-2.3538,-2.3509,-2.3566,-2.3782,-2.4109,-2.4797,-2.5576,-2.6551,-2.7885,-2.895,-2.9754,-2.9814,-2.9946,-3.0076,-3.0076,-3.0445,-3.1164,-3.0341,-3.0281,-3.0227,-3.0214,-3.0206,-3.0196,-3.0178,-3.0236,-3.0272,-3.0321,-3.0377,-3.0389,-3.0358,-3.0244,-3.0192,-3.0254,-3.019,-3.0047,-2.9908,-2.967,-2.9475,-2.9306,-2.9208,-2.9103,-2.8905,-2.8732,-2.8458,-2.8164,-2.7802,-2.749,-2.7141,-2.6822,-2.669,-2.669,-2.7014,-2.7296,-2.7572,-2.7701,-2.7747,-2.7783,-2.7619,-2.7457,-2.7258,-2.7036,-2.6791,-2.6624,-2.6539,-2.6505,-2.6453,-2.5941,-2.5901,-2.6079,-2.6118,-2.626,-2.6469,-2.6708,-2.6758,-2.6825,-2.699,-2.7023,-2.704,-2.7072,-2.7184,-2.7324,-2.7509,-2.7719,-2.795,-2.8182,-2.8318,-2.8353,-2.8353,-2.838,-2.8432,-2.8569,-2.8694,-2.8868,-2.906,-2.9212,-2.9355,-2.9397,-2.9397,-2.9336,-2.9148,-2.9012,-2.8749,-2.8237,-2.7922,-2.76,-2.7307,-2.7004,-2.6641,-2.628,-2.5941,-2.5589,-2.5246,-2.4895,-2.4574,-2.4245,-2.4036,-2.3839,-2.3668,-2.3739,-2.3909,-2.4193,-2.4482,-2.5252,-2.6449,-2.8003,-2.9108,-2.9853,-3.0,-3.0103,-3.0189,-3.0189,-3.0506,-3.0977,-3.0133,-3.0062,-2.9998,-2.9959,-2.9883,-2.9836,-2.9772,-2.9818,-2.9989,-3.0336,-3.0443,-3.0488,-3.0486,-3.0411,-3.04,-3.0472,-3.0513,-3.0462,-3.0269,-3.0105,-3.001,-2.9923,-2.9787,-2.9693,-2.9614,-2.9401,-2.9191,-2.9003,-2.8644,-2.8319,-2.7977,-2.7706,-2.7572,-2.7589,-2.785,-2.8147,-2.8384,-2.8478,-2.8478,-2.8428,-2.8324,-2.8156,-2.7897,-2.7754,-2.7572,-2.7374,-2.7255,-2.721,-2.7178,-2.7068,-2.6808,-2.6537,-2.6538,-2.6691,-2.6842,-2.6942,-2.7023,-2.7085,-2.7166,-2.7181,-2.723,-2.7341,-2.7434,-2.7509,-2.773,-2.7922,-2.8109,-2.8345,-2.8484,-2.8562,-2.8492,-2.8569,-2.8694,-2.8839,-2.8966,-2.9148,-2.9414,-2.9626,-2.9754,-2.975,-2.975,-2.9697,-2.9551,-2.9334,-2.906,-2.8819,-2.8404,-2.8007,-2.7672,-2.7396,-2.7083,-2.6741,-2.6487,-2.612,-2.5758,-2.5329,-2.4997,-2.4735,-2.4426,-2.4219,-2.4219,-2.4219,-2.441,-2.4735,-2.4886,-2.5886,-2.7524,-2.8424,-2.9253,-2.9973,-3.0146,-3.0189,-3.0189,-3.0189,-3.0238,-3.0402,-2.9574,-2.9508,-2.9451,-2.9371,-2.9261,-2.9177,-2.9122,-2.9152,-2.9268,-2.9478,-2.995,-3.0314,-3.0438,-3.05,-3.056,-3.0601,-3.0524,-3.0459,-3.0412,-3.0364,-3.0314,-3.0244,-3.0201,-3.013,-3.0069,-2.9947,-2.9799,-2.9642,-2.9326,-2.9076,-2.8864,-2.8599,-2.8505,-2.8552,-2.8732,-2.8901,-2.9045,-2.9163,-2.914,-2.9037,-2.8924,-2.8777,-2.8597,-2.835,-2.8201,-2.8076,-2.7956,-2.7901,-2.7918,-2.7862,-2.75,-2.7004,-2.7036,-2.7117,-2.7279,-2.7341,-2.7373,-2.7417,-2.7491,-2.7491,-2.7522,-2.7569,-2.7689,-2.7824,-2.7968,-2.8136,-2.8345,-2.8484,-2.8662,-2.8785,-2.8761,-2.8887,-2.9026,-2.9119,-2.9316,-2.9533,-2.9753,-2.9902,-3.0011,-3.009,-3.0071,-2.9992,-2.9902,-2.9697,-2.9476,-2.9279,-2.8694,-2.8282,-2.8073,-2.7771,-2.7504,-2.7289,-2.6971,-2.6674,-2.6385,-2.6049,-2.5721,-2.5422,-2.5036,-2.4759,-2.4639,-2.4614,-2.4791,-2.5107,-2.5339,-2.6057,-2.7162,-2.7997,-2.8813,-2.9615,-3.0126,-3.0401,-3.0485,-3.0485,-3.0485,-3.06,-2.8783,-2.8759,-2.8691,-2.8585,-2.85,-2.8408,-2.8319,-2.837,-2.8488,-2.8646,-2.9232,-2.9783,-3.0188,-3.0304,-3.0423,-3.0506,-3.0347,-3.0287,-3.0428,-3.046,-3.0469,-3.0431,-3.0456,-3.0433,-3.0397,-3.0339,-3.0255,-3.016,-2.9928,-2.976,-2.9633,-2.9396,-2.9325,-2.94,-2.9525,-2.9593,-2.9642,-2.9734,-2.972,-2.96,-2.9476,-2.9362,-2.9219,-2.899,-2.8856,-2.8787,-2.8651,-2.8621,-2.8615,-2.8573,-2.8252,-2.7809,-2.7631,-2.7607,-2.7701,-2.7777,-2.7824,-2.7806,-2.7847,-2.7876,-2.7876,-2.7847,-2.7979,-2.8126,-2.8164,-2.8327,-2.8536,-2.8712,-2.8881,-2.898,-2.9026,-2.9181,-2.9349,-2.9434,-2.9644,-2.9853,-3.003,-3.0142,-3.0235,-3.0355,-3.0323,-3.0248,-3.0182,-3.0022,-2.9829,-2.966,-2.9156,-2.8737,-2.8474,-2.8192,-2.8,-2.7811,-2.7547,-2.7289,-2.7068,-2.6708,-2.635,-2.6016,-2.5668,-2.5368,-2.5176,-2.5114,-2.5224,-2.547,-2.5717,-2.6237,-2.6995,-2.7833,-2.8652,-2.9468,-3.0261,-3.0667,-3.0773,-3.0773,-3.0814,-3.0938,-2.7814,-2.7822,-2.7773,-2.7625,-2.7554,-2.7495,-2.7439,-2.7542,-2.7742,-2.8081,-2.8344,-2.8864,-2.972,-2.9801,-2.9889,-3.0089,-2.9915,-2.9946,-3.0288,-3.0366,-3.0432,-3.0492,-3.0567,-3.0591,-3.0604,-3.0602,-3.0562,-3.0486,-3.0358,-3.0259,-3.0182,-3.0059,-3.0017,-3.0081,-3.0157,-3.0182,-3.0198,-3.0198,-3.0151,-3.0094,-3.0027,-2.9912,-2.9775,-2.9635,-2.9549,-2.9495,-2.9401,-2.94,-2.9379,-2.9226,-2.9145,-2.8972,-2.8384,-2.8156,-2.8102,-2.8255,-2.83,-2.83,-2.83,-2.83,-2.8273,-2.8201,-2.8246,-2.8327,-2.838,-2.8562,-2.8767,-2.9044,-2.9134,-2.9222,-2.9272,-2.9453,-2.9645,-2.9773,-2.9921,-3.0052,-3.019,-3.0309,-3.0409,-3.0491,-3.0491,-3.0462,-3.0402,-3.0271,-3.0144,-3.0013,-2.9796,-2.9419,-2.8837,-2.8725,-2.8576,-2.8298,-2.8166,-2.7964,-2.7683,-2.7224,-2.6855,-2.659,-2.6264,-2.598,-2.5779,-2.5721,-2.5754,-2.5897,-2.599,-2.6458,-2.7259,-2.8139,-2.8926,-2.9692,-3.0547,-3.0952,-3.0975,-3.0975,-3.1072,-3.119,-2.6704,-2.6721,-2.6706,-2.6656,-2.6607,-2.6539,-2.6522,-2.6674,-2.6891,-2.719,-2.7327,-2.7589,-2.7986,-2.8625,-2.9052,-2.9081,-2.9324,-2.9569,-2.9798,-2.9931,-3.003,-3.016,-3.026,-3.0358,-3.0393,-3.0447,-3.0486,-3.0505,-3.0469,-3.0448,-3.0462,-3.0428,-3.0419,-3.0432,-3.051,-3.0535,-3.0535,-3.0533,-3.0502,-3.0435,-3.0373,-3.0278,-3.0194,-3.0062,-3.0002,-2.9971,-2.9893,-2.9882,-2.9867,-2.9782,-2.9702,-2.9618,-2.942,-2.9061,-2.87,-2.8761,-2.8731,-2.8694,-2.8694,-2.8669,-2.8644,-2.8601,-2.8669,-2.8718,-2.8737,-2.8905,-2.9093,-2.9267,-2.939,-2.9491,-2.9494,-2.9681,-2.9822,-2.9918,-3.0099,-3.0248,-3.0398,-3.0482,-3.0554,-3.0634,-3.0637,-3.0637,-3.0614,-3.047,-3.0375,-3.029,-3.0119,-2.9826,-2.9301,-2.9132,-2.8979,-2.8842,-2.8676,-2.8453,-2.8183,-2.7851,-2.7482,-2.7144,-2.679,-2.6505,-2.6191,-2.6279,-2.6349,-2.6365,-2.6469,-2.6621,-2.6942,-2.7681,-2.8474,-2.9215,-3.007,-3.0794,-3.1368,-3.1389,-3.1483,-3.1614,-2.5709,-2.5746,-2.5799,-2.5799,-2.5762,-2.5762,-2.5762,-2.5924,-2.6066,-2.6239,-2.6485,-2.6624,-2.6556,-2.7208,-2.7772,-2.8112,-2.8581,-2.8938,-2.9091,-2.9289,-2.9454,-2.9628,-2.9772,-2.9917,-3.0042,-3.0117,-3.0221,-3.0308,-3.0387,-3.0466,-3.0523,-3.0543,-3.0586,-3.0605,-3.0642,-3.0659,-3.0659,-3.0699,-3.0684,-3.0622,-3.0583,-3.0553,-3.0501,-3.0424,-3.0363,-3.0337,-3.0295,-3.0304,-3.0285,-3.0232,-3.0175,-3.0132,-3.0132,-2.9825,-2.9457,-2.9321,-2.9233,-2.9188,-2.9101,-2.9056,-2.9016,-2.8989,-2.903,-2.9052,-2.9101,-2.9249,-2.9412,-2.9551,-2.9664,-2.9736,-2.9784,-2.9915,-3.0037,-3.0136,-3.0297,-3.0451,-3.0558,-3.0618,-3.0671,-3.0724,-3.0748,-3.0734,-3.0742,-3.0646,-3.0561,-3.051,-3.0414,-3.0208,-2.9882,-2.9603,-2.9419,-2.9319,-2.9175,-2.8979,-2.87,-2.8402,-2.8102,-2.7783,-2.7317,-2.6937,-2.6708,-2.6742,-2.6775,-2.6808,-2.6825,-2.6891,-2.7024,-2.7759,-2.8545,-2.9315,-3.0156,-3.1001,-3.1765,-3.1839,-3.1948,-3.2073,-2.4784,-2.4918,-2.5013,-2.5013,-2.5091,-2.5114,-2.5114,-2.5214,-2.5291,-2.5329,-2.5793,-2.5926,-2.5505,-2.5697,-2.6219,-2.7185,-2.7794,-2.8139,-2.8216,-2.8494,-2.8727,-2.8905,-2.9124,-2.9306,-2.9511,-2.9645,-2.9802,-2.995,-3.0155,-3.0298,-3.0355,-3.0423,-3.05,-3.0575,-3.0572,-3.0567,-3.0586,-3.0662,-3.0693,-3.0699,-3.0683,-3.068,-3.0684,-3.0696,-3.0661,-3.0603,-3.0606,-3.0613,-3.06,-3.0601,-3.0579,-3.0505,-3.0505,-3.0423,-3.0254,-2.9855,-2.975,-2.968,-2.9495,-2.9457,-2.9418,-2.9357,-2.9355,-2.9377,-2.9514,-2.957,-2.9681,-2.9888,-2.9921,-2.9965,-3.0109,-3.019,-3.0266,-3.0398,-3.0521,-3.0629,-3.069,-3.0704,-3.0724,-3.0784,-3.0804,-3.0793,-3.0793,-3.0747,-3.0708,-3.0711,-3.0646,-3.0568,-3.0519,-3.0164,-2.9893,-2.9748,-2.968,-2.9514,-2.9233,-2.8911,-2.8646,-2.8396,-2.7765,-2.7396,-2.7244,-2.7117,-2.7103,-2.7149,-2.7149,-2.7244,-2.7487,-2.8167,-2.8995,-2.9826,-3.0575,-3.1411,-3.2179,-3.23,-3.2438,-3.2557,-2.3879,-2.4021,-2.412,-2.4261,-2.4261,-2.4302,-2.4302,-2.4354,-2.4436,-2.4533,-2.4949,-2.5132,-2.4893,-2.5179,-2.5496,-2.5845,-2.6754,-2.7326,-2.7455,-2.7773,-2.7968,-2.8094,-2.8355,-2.8579,-2.8691,-2.8876,-2.913,-2.9475,-2.9661,-2.9836,-2.9937,-3.0068,-3.0183,-3.0297,-3.0289,-3.0326,-3.0372,-3.0494,-3.0542,-3.0539,-3.0611,-3.0613,-3.0623,-3.0689,-3.0697,-3.0682,-3.0683,-3.0679,-3.0675,-3.0689,-3.0677,-3.0641,-3.0654,-3.0633,-3.0555,-3.0252,-3.0087,-2.9985,-2.9954,-2.9889,-2.9839,-2.9848,-2.9799,-2.978,-2.9858,-2.9877,-2.9946,-3.0109,-3.0182,-3.0235,-3.0306,-3.0392,-3.0472,-3.0546,-3.0622,-3.0704,-3.0781,-3.0774,-3.0788,-3.0806,-3.0793,-3.0796,-3.0796,-3.0795,-3.0788,-3.0771,-3.0767,-3.0721,-3.0664,-3.0568,-3.0383,-3.0103,-3.0018,-2.988,-2.9661,-2.9418,-2.9049,-2.8565,-2.8166,-2.7936,-2.7811,-2.7725,-2.7695,-2.7725,-2.7725,-2.7725,-2.78,-2.8023,-2.86,-2.9443,-3.0308,-3.1169,-3.1983,-3.2666,-3.2943,-3.3037,-2.3098,-2.3201,-2.3334,-2.348,-2.3538,-2.3625,-2.3668,-2.3696,-2.3739,-2.3824,-2.4124,-2.4291,-2.4282,-2.444,-2.4641,-2.4879,-2.5839,-2.6471,-2.6556,-2.6836,-2.7075,-2.7186,-2.749,-2.7723,-2.784,-2.8085,-2.8377,-2.8741,-2.8963,-2.9132,-2.9308,-2.951,-2.9633,-2.9712,-2.9798,-2.987,-2.995,-3.0119,-3.0213,-3.0239,-3.0335,-3.0394,-3.0409,-3.0462,-3.0497,-3.0514,-3.0555,-3.0576,-3.0609,-3.0648,-3.0645,-3.066,-3.0682,-3.0703,-3.0679,-3.052,-3.042,-3.0314,-3.0282,-3.0248,-3.0213,-3.0183,-3.0158,-3.0126,-3.0177,-3.0177,-3.0227,-3.0356,-3.0417,-3.0469,-3.051,-3.0578,-3.061,-3.0646,-3.0706,-3.0759,-3.0781,-3.0804,-3.0798,-3.0801,-3.0797,-3.0792,-3.0792,-3.0797,-3.08,-3.0801,-3.0795,-3.0782,-3.0746,-3.075,-3.0639,-3.0392,-3.0314,-3.0184,-2.998,-2.9729,-2.938,-2.896,-2.8706,-2.8554,-2.8402,-2.8324,-2.8272,-2.8272,-2.8272,-2.8272,-2.8298,-2.8368,-2.8855,-2.9656,-3.0152,-3.1093,-3.218,-3.2682,-3.3166,-3.3578,-2.2342,-2.2466,-2.2558,-2.2754,-2.2859,-2.2994,-2.3127,-2.3127,-2.3127,-2.3187,-2.329,-2.348,-2.3656,-2.3679,-2.3773,-2.4105,-2.4965,-2.5503,-2.5668,-2.5908,-2.6142,-2.6333,-2.659,-2.6805,-2.6997,-2.7296,-2.7578,-2.7895,-2.8111,-2.8319,-2.85,-2.8796,-2.8913,-2.8941,-2.9152,-2.9269,-2.9364,-2.9564,-2.9699,-2.9791,-2.9889,-3.0008,-3.0062,-3.0075,-3.0136,-3.0207,-3.0279,-3.0372,-3.0435,-3.0496,-3.054,-3.0553,-3.0628,-3.0652,-3.0657,-3.0677,-3.0639,-3.0586,-3.0536,-3.0528,-3.0517,-3.0449,-3.046,-3.046,-3.0458,-3.0458,-3.0477,-3.0591,-3.0629,-3.0649,-3.0696,-3.0727,-3.0724,-3.0716,-3.076,-3.0793,-3.08,-3.0781,-3.0778,-3.0786,-3.0785,-3.079,-3.079,-3.0785,-3.0774,-3.0774,-3.0795,-3.0801,-3.0799,-3.0808,-3.0747,-3.0639,-3.0574,-3.0433,-3.0244,-2.9916,-2.9695,-2.9495,-2.9299,-2.9132,-2.9005,-2.887,-2.8824,-2.8824,-2.8824,-2.8847,-2.8911,-2.8911,-2.9357,-3.0047,-3.0176,-3.1059,-3.2299,-3.2613,-3.3216,-3.3938,-2.1698,-2.1746,-2.1841,-2.2077,-2.217,-2.2217,-2.2356,-2.2356,-2.2402,-2.2509,-2.2452,-2.2634,-2.3171,-2.2995,-2.301,-2.3348,-2.3694,-2.4241,-2.4981,-2.5253,-2.5406,-2.554,-2.5852,-2.5999,-2.6092,-2.6471,-2.6756,-2.6931,-2.7199,-2.7377,-2.7595,-2.7885,-2.8049,-2.8164,-2.8377,-2.853,-2.8667,-2.8868,-2.9042,-2.9226,-2.9248,-2.9326,-2.9457,-2.9509,-2.9595,-2.9712,-2.9855,-2.997,-3.0101,-3.0157,-3.0217,-3.0274,-3.0337,-3.0394,-3.0458,-3.051,-3.0564,-3.0618,-3.0661,-3.0677,-3.0661,-3.0654,-3.0642,-3.0657,-3.065,-3.0646,-3.0665,-3.069,-3.0674,-3.0696,-3.0767,-3.0788,-3.0775,-3.0781,-3.0781,-3.0798,-3.081,-3.0755,-3.0728,-3.072,-3.0714,-3.0714,-3.0714,-3.0711,-3.0726,-3.0715,-3.0765,-3.0801,-3.0801,-3.08,-3.0799,-3.0775,-3.0704,-3.0593,-3.0453,-3.0232,-3.0046,-2.9905,-2.9689,-2.9586,-2.9476,-2.942,-2.9381,-2.9381,-2.9381,-2.9382,-2.94,-2.9458,-2.957,-2.9739,-3.049,-3.0922,-3.1316,-3.2743,-3.3385,-3.3672,-2.1277,-2.1277,-2.1326,-2.152,-2.1568,-2.1616,-2.1746,-2.1746,-2.1793,-2.1841,-2.1874,-2.2002,-2.231,-2.2328,-2.2423,-2.2651,-2.283,-2.3187,-2.3779,-2.4338,-2.4679,-2.4799,-2.5114,-2.5329,-2.5524,-2.5799,-2.5964,-2.6057,-2.6301,-2.6506,-2.6689,-2.6899,-2.7089,-2.7243,-2.742,-2.7624,-2.7794,-2.7987,-2.8172,-2.8345,-2.8384,-2.8482,-2.862,-2.8659,-2.8835,-2.9026,-2.917,-2.9345,-2.9529,-2.9597,-2.968,-2.9798,-2.9899,-2.9989,-3.0088,-3.0148,-3.0385,-3.0601,-3.063,-3.0645,-3.0658,-3.0641,-3.0663,-3.0683,-3.0642,-3.0663,-3.0682,-3.0657,-3.0655,-3.0667,-3.0693,-3.0685,-3.0696,-3.0697,-3.0691,-3.0691,-3.0686,-3.067,-3.0646,-3.0656,-3.0656,-3.0644,-3.0644,-3.0651,-3.0646,-3.0646,-3.0714,-3.076,-3.0754,-3.0746,-3.076,-3.0806,-3.0767,-3.0711,-3.0607,-3.0485,-3.0366,-3.0267,-3.0139,-3.0046,-2.9975,-2.9901,-2.987,-2.987,-2.987,-2.987,-2.987,-2.992,-2.992,-2.9958,-3.0373,-3.0792,-3.1267,-3.2031,-3.2638,-3.3201,-2.0785,-2.0785,-2.0835,-2.0983,-2.1019,-2.1082,-2.1166,-2.1215,-2.1264,-2.1264,-2.1361,-2.1444,-2.15,-2.1732,-2.1888,-2.1946,-2.2081,-2.2296,-2.2572,-2.3275,-2.3767,-2.4078,-2.441,-2.4735,-2.4997,-2.5114,-2.5176,-2.5291,-2.5449,-2.5635,-2.5835,-2.5966,-2.6144,-2.6351,-2.6489,-2.6673,-2.6916,-2.7026,-2.7213,-2.743,-2.7472,-2.7572,-2.7717,-2.7784,-2.7959,-2.8224,-2.8377,-2.8615,-2.8842,-2.8956,-2.9063,-2.9206,-2.9345,-2.9494,-2.9621,-2.9687,-2.9991,-3.0318,-3.0477,-3.0501,-3.051,-3.0508,-3.0559,-3.0564,-3.0514,-3.0539,-3.0564,-3.0516,-3.051,-3.0503,-3.0498,-3.0519,-3.0519,-3.053,-3.053,-3.0528,-3.0527,-3.0527,-3.0537,-3.053,-3.052,-3.052,-3.052,-3.053,-3.0539,-3.0546,-3.0599,-3.0637,-3.0639,-3.0664,-3.0711,-3.0774,-3.0781,-3.0788,-3.0716,-3.0667,-3.0594,-3.054,-3.0481,-3.0424,-3.0364,-3.0309,-3.0294,-3.0302,-3.0302,-3.029,-3.0278,-3.0278,-3.0302,-3.0287,-3.0287,-3.0671,-3.1237,-3.1448,-3.1941,-3.2646,-2.0283,-2.0283,-2.0283,-2.0422,-2.0472,-2.051,-2.066,-2.0746,-2.0845,-2.0845,-2.097,-2.1006,-2.0962,-2.1229,-2.1415,-2.128,-2.1424,-2.1547,-2.1698,-2.2123,-2.2663,-2.345,-2.3839,-2.4151,-2.4343,-2.4385,-2.4426,-2.4564,-2.4639,-2.4768,-2.4981,-2.5176,-2.5368,-2.5519,-2.5668,-2.5872,-2.6002,-2.6142,-2.6351,-2.659,-2.659,-2.669,-2.6819,-2.6867,-2.7057,-2.7322,-2.759,-2.7802,-2.804,-2.8288,-2.846,-2.8585,-2.8712,-2.8911,-2.9067,-2.914,-2.9266,-2.951,-3.0075,-3.0225,-3.0229,-3.0227,-3.0237,-3.0237,-3.0237,-3.0237,-3.0237,-3.0224,-3.0224,-3.0243,-3.0221,-3.0282,-3.0321,-3.0317,-3.0321,-3.0321,-3.0329,-3.0314,-3.0309,-3.0309,-3.0323,-3.0318,-3.0318,-3.0316,-3.034,-3.0402,-3.043,-3.0443,-3.0519,-3.056,-3.0639,-3.0709,-3.076,-3.0801,-3.0798,-3.0732,-3.0684,-3.0689,-3.0685,-3.0639,-3.0579,-3.0571,-3.0568,-3.0576,-3.0576,-3.0577,-3.0559,-3.0559,-3.0576,-3.0571,-3.0571,-3.061,-3.0766,-3.1581,-3.1903,-3.2078,-2.0182,-2.0182,-2.0233,-2.0283,-2.0271,-2.0271,-2.0321,-2.0422,-2.0422,-2.0422,-2.0472,-2.0523,-2.057,-2.0723,-2.0785,-2.0845,-2.0881,-2.0993,-2.1229,-2.1375,-2.1921,-2.3054,-2.3392,-2.361,-2.3724,-2.3809,-2.3909,-2.3952,-2.3979,-2.4105,-2.4328,-2.441,-2.4574,-2.4871,-2.491,-2.5036,-2.5237,-2.5291,-2.5427,-2.5631,-2.5631,-2.5762,-2.5911,-2.6071,-2.6214,-2.6438,-2.674,-2.7031,-2.7265,-2.7417,-2.7643,-2.7844,-2.7966,-2.8148,-2.835,-2.8499,-2.8597,-2.8699,-2.9047,-2.942,-2.9718,-2.9747,-2.981,-2.9821,-2.9829,-2.9859,-2.9889,-2.9882,-2.9882,-2.9882,-2.9882,-2.9916,-2.9935,-2.992,-2.9935,-2.9935,-2.992,-2.9924,-2.9943,-2.9973,-2.9977,-2.9996,-3.0045,-3.009,-3.0118,-3.0142,-3.0182,-3.0228,-3.0314,-3.0432,-3.052,-3.0574,-3.0593,-3.0658,-3.0743,-3.0749,-3.076,-3.0754,-3.0767,-3.0755,-3.0723,-3.0728,-3.072,-3.072,-3.072,-3.07,-3.0661,-3.0661,-3.0685,-3.0712,-3.0712,-3.0728,-3.0763,-3.109,-3.1226,-3.1343,-2.0067,-2.0067,-2.0067,-2.0067,-2.0067,-2.0067,-2.0067,-2.0131,-2.0131,-2.0131,-2.0182,-2.0233,-2.0321,-2.0308,-2.0372,-2.0536,-2.0472,-2.051,-2.0723,-2.0871,-2.1444,-2.2572,-2.2859,-2.3083,-2.3187,-2.3334,-2.3377,-2.3377,-2.3377,-2.348,-2.3711,-2.3754,-2.3925,-2.4177,-2.4177,-2.4302,-2.4492,-2.4533,-2.4655,-2.4815,-2.4815,-2.4974,-2.5114,-2.5269,-2.5427,-2.5619,-2.5924,-2.621,-2.6471,-2.659,-2.6822,-2.7098,-2.7206,-2.7391,-2.7648,-2.7833,-2.789,-2.7936,-2.8094,-2.8488,-2.8913,-2.9202,-2.9304,-2.9344,-2.9381,-2.942,-2.9439,-2.9419,-2.9419,-2.94,-2.94,-2.9419,-2.9438,-2.9438,-2.9495,-2.9514,-2.9514,-2.9514,-2.9551,-2.9607,-2.9607,-2.9644,-2.9697,-2.9769,-2.9803,-2.9815,-2.9867,-2.9962,-3.0109,-3.0203,-3.0309,-3.0367,-3.04,-3.0453,-3.0542,-3.067,-3.0759,-3.0774,-3.0767,-3.0775,-3.0779,-3.0762,-3.0762,-3.0761,-3.0762,-3.0741,-3.0696,-3.0696,-3.0739,-3.0761,-3.0761,-3.0781,-3.0798,-3.0798,-3.0798,-3.0896,-1.9798,-1.9798,-1.9798,-1.9798,-1.9798,-1.9798,-1.9798,-1.9926,-1.999,-1.999,-2.0131,-2.0182,-2.0182,-2.0156,-2.0169,-2.0361,-2.0233,-2.0093,-2.0093,-2.0547,-2.1153,-2.1935,-2.2231,-2.2495,-2.2709,-2.2844,-2.2889,-2.2889,-2.2889,-2.2934,-2.3083,-2.3231,-2.3348,-2.3406,-2.3551,-2.3653,-2.3797,-2.394,-2.4009,-2.412,-2.4261,-2.4359,-2.4498,-2.4564,-2.4735,-2.4902,-2.5114,-2.5422,-2.5684,-2.5758,-2.6049,-2.6383,-2.6383,-2.6624,-2.6937,-2.7132,-2.7181,-2.7213,-2.7365,-2.7487,-2.7783,-2.8578,-2.879,-2.8814,-2.8865,-2.8888,-2.8865,-2.8814,-2.879,-2.8772,-2.87,-2.8795,-2.8888,-2.8888,-2.8997,-2.9086,-2.9086,-2.9086,-2.9126,-2.9188,-2.9188,-2.923,-2.9293,-2.9353,-2.9395,-2.9398,-2.9476,-2.9607,-2.9886,-2.9946,-3.0022,-3.0089,-3.0169,-3.0196,-3.0203,-3.0453,-3.0625,-3.0704,-3.0709,-3.0711,-3.0711,-3.0711,-3.0704,-3.071,-3.0696,-3.0691,-3.069,-3.069,-3.0697,-3.0711,-3.0711,-3.0735,-3.0799,-3.0799,-3.0799,-3.0799,-1.9512,-1.9512,-1.9565,-1.9656,-1.9656,-1.9708,-1.9798,-1.985,-1.9862,-1.9862,-1.9914,-1.9914,-1.9914,-1.9901,-1.9901,-1.9978,-1.9914,-1.9952,-2.0016,-2.0271,-2.0523,-2.0858,-2.1506,-2.1888,-2.1921,-2.217,-2.2263,-2.2263,-2.2356,-2.2495,-2.2601,-2.2646,-2.2768,-2.292,-2.2965,-2.3024,-2.3157,-2.3201,-2.3348,-2.3523,-2.3566,-2.3711,-2.3867,-2.4094,-2.4219,-2.4287,-2.4589,-2.4855,-2.5075,-2.5137,-2.5389,-2.5705,-2.5868,-2.6049,-2.6297,-2.6385,-2.6505,-2.6624,-2.674,-2.6856,-2.7147,-2.7908,-2.8156,-2.8237,-2.8264,-2.8298,-2.8324,-2.8264,-2.8237,-2.821,-2.8156,-2.8192,-2.8264,-2.8264,-2.835,-2.8402,-2.8402,-2.8489,-2.8558,-2.8554,-2.8639,-2.8749,-2.8868,-2.8902,-2.8948,-2.9034,-2.9169,-2.9316,-2.9551,-2.957,-2.9624,-2.975,-2.9801,-2.9834,-2.9851,-3.0209,-3.0413,-3.0491,-3.0498,-3.054,-3.0625,-3.0639,-3.0626,-3.0626,-3.0639,-3.0603,-3.0565,-3.0565,-3.0599,-3.0625,-3.0625,-3.0633,-3.0656,-3.0656,-3.0656,-3.0656,-1.9263,-1.9251,-1.9356,-1.9448,-1.9552,-1.9604,-1.9708,-1.9747,-1.9798,-1.9798,-1.9798,-1.9798,-1.9798,-1.9798,-1.9798,-1.9798,-1.9798,-1.985,-1.9926,-2.0029,-2.0182,-2.0233,-2.0772,-2.1118,-2.1251,-2.1554,-2.1664,-2.1664,-2.1793,-2.1949,-2.1996,-2.2044,-2.217,-2.2296,-2.2388,-2.248,-2.2526,-2.2678,-2.2814,-2.2963,-2.2994,-2.3068,-2.329,-2.348,-2.3625,-2.3754,-2.3967,-2.4204,-2.4395,-2.4436,-2.4679,-2.502,-2.5307,-2.546,-2.5572,-2.5705,-2.5779,-2.5905,-2.6016,-2.6158,-2.6333,-2.6855,-2.7317,-2.7636,-2.7666,-2.7678,-2.766,-2.7572,-2.756,-2.75,-2.7439,-2.747,-2.753,-2.7542,-2.7631,-2.7672,-2.7736,-2.7829,-2.7886,-2.7946,-2.8037,-2.8138,-2.8344,-2.8368,-2.8446,-2.8644,-2.8779,-2.8943,-2.9119,-2.9129,-2.9177,-2.9318,-2.9358,-2.9398,-2.9456,-2.9693,-2.9931,-3.0171,-3.0208,-3.0298,-3.0404,-3.0424,-3.0443,-3.0433,-3.0433,-3.0402,-3.0329,-3.037,-3.0411,-3.0433,-3.0462,-3.0501,-3.0527,-3.0527,-3.0516,-3.0524,-1.8934,-1.9028,-1.9133,-1.9186,-1.9396,-1.9565,-1.9565,-1.9708,-1.9798,-1.9747,-1.9747,-1.9798,-1.9747,-1.9759,-1.9759,-1.9759,-1.9759,-1.9759,-1.9759,-1.9875,-1.9939,-1.9939,-2.008,-2.0321,-2.0646,-2.097,-2.1131,-2.1131,-2.1277,-2.1313,-2.1313,-2.1458,-2.1506,-2.1554,-2.1793,-2.1949,-2.1949,-2.2184,-2.2324,-2.2324,-2.2388,-2.2512,-2.2663,-2.2799,-2.2994,-2.3216,-2.3275,-2.3508,-2.3696,-2.3754,-2.3967,-2.4302,-2.4679,-2.4784,-2.4863,-2.5036,-2.5114,-2.5153,-2.5253,-2.5351,-2.5427,-2.5556,-2.6245,-2.6906,-2.7036,-2.697,-2.6888,-2.679,-2.6757,-2.6674,-2.6624,-2.6641,-2.6724,-2.6774,-2.6855,-2.6937,-2.7068,-2.7117,-2.7164,-2.7286,-2.7317,-2.7409,-2.7683,-2.78,-2.7943,-2.8201,-2.8362,-2.8492,-2.8619,-2.8621,-2.87,-2.8842,-2.886,-2.8906,-2.9038,-2.9042,-2.928,-2.9758,-2.9896,-2.9984,-3.006,-3.0125,-3.0157,-3.0157,-3.0157,-3.0117,-3.008,-3.0142,-3.015,-3.0157,-3.0235,-3.0316,-3.0364,-3.0364,-3.0367,-3.037,-1.8302,-1.8464,-1.8625,-1.8839,-1.8999,-1.9198,-1.942,-1.9565,-1.9617,-1.9512,-1.9565,-1.9617,-1.9512,-1.946,-1.946,-1.946,-1.9602,-1.9614,-1.946,-1.9614,-1.9614,-1.9525,-1.9577,-1.9617,-1.972,-2.0271,-2.0573,-2.0573,-2.0709,-2.0759,-2.0759,-2.0809,-2.0858,-2.1006,-2.1118,-2.1277,-2.1375,-2.1568,-2.1664,-2.1746,-2.1793,-2.1888,-2.203,-2.2263,-2.2402,-2.2449,-2.2649,-2.2875,-2.3113,-2.3348,-2.3566,-2.3767,-2.3837,-2.4063,-2.4271,-2.4313,-2.4395,-2.4492,-2.4533,-2.4583,-2.4632,-2.4672,-2.491,-2.5319,-2.5964,-2.609,-2.6019,-2.5961,-2.5941,-2.5888,-2.5762,-2.5852,-2.5941,-2.5961,-2.5999,-2.6106,-2.6245,-2.6315,-2.6419,-2.659,-2.6674,-2.679,-2.7066,-2.7286,-2.7487,-2.7577,-2.7771,-2.7915,-2.8065,-2.8102,-2.8228,-2.8422,-2.8422,-2.8474,-2.8558,-2.8601,-2.8883,-2.9419,-2.9495,-2.9587,-2.9708,-2.978,-2.9848,-2.988,-2.988,-2.9886,-2.9874,-2.9891,-2.9905,-2.988,-2.9965,-3.003,-3.0094,-3.0085,-3.0095,-3.0089,-1.7689,-1.7865,-1.815,-1.8356,-1.8614,-1.8881,-1.9146,-1.9303,-1.9408,-1.942,-1.9408,-1.9396,-1.9303,-1.9251,-1.921,-1.921,-1.9275,-1.9223,-1.9097,-1.921,-1.9287,-1.921,-1.921,-1.9158,-1.9117,-1.946,-1.9759,-2.0016,-2.0156,-2.0207,-2.0207,-2.0207,-2.0308,-2.0422,-2.0472,-2.0623,-2.0723,-2.0772,-2.0921,-2.1019,-2.1019,-2.1166,-2.1348,-2.1492,-2.1636,-2.1732,-2.1908,-2.2156,-2.2388,-2.2632,-2.2799,-2.2934,-2.3054,-2.3231,-2.345,-2.3508,-2.3595,-2.3638,-2.3638,-2.3709,-2.3779,-2.3779,-2.3879,-2.4199,-2.5028,-2.5166,-2.5128,-2.5082,-2.5059,-2.4997,-2.4942,-2.4981,-2.5036,-2.5082,-2.5105,-2.5205,-2.5335,-2.5411,-2.5524,-2.5779,-2.5872,-2.6035,-2.642,-2.6707,-2.6922,-2.7051,-2.7195,-2.7352,-2.7565,-2.7577,-2.7713,-2.7922,-2.7922,-2.7933,-2.8,-2.8083,-2.8281,-2.8591,-2.8897,-2.9135,-2.9221,-2.9341,-2.9418,-2.9476,-2.9495,-2.9494,-2.9474,-2.9494,-2.9532,-2.957,-2.9626,-2.9717,-2.9822,-2.9801,-2.9853,-2.9921,-1.7134,-1.7368,-1.7645,-1.7744,-1.8127,-1.8506,-1.8774,-1.8975,-1.9133,-1.9146,-1.9146,-1.9081,-1.9028,-1.8934,-1.8827,-1.8827,-1.8827,-1.875,-1.8661,-1.8673,-1.875,-1.8774,-1.8762,-1.8721,-1.8625,-1.8625,-1.8893,-1.946,-1.9552,-1.9656,-1.9656,-1.9643,-1.9708,-1.9823,-1.985,-1.9952,-2.0029,-2.008,-2.0131,-2.022,-2.022,-2.0359,-2.0547,-2.061,-2.0746,-2.0944,-2.1104,-2.1313,-2.1602,-2.1746,-2.1888,-2.203,-2.2235,-2.2374,-2.2512,-2.2663,-2.2709,-2.2709,-2.2709,-2.2799,-2.2889,-2.2904,-2.2994,-2.3246,-2.4032,-2.4199,-2.4184,-2.4184,-2.4147,-2.4094,-2.4094,-2.4094,-2.4078,-2.4158,-2.4184,-2.4266,-2.4471,-2.4511,-2.4648,-2.4942,-2.5059,-2.5291,-2.5779,-2.6068,-2.6297,-2.6505,-2.6641,-2.6825,-2.7053,-2.7085,-2.7198,-2.7386,-2.7386,-2.7417,-2.7491,-2.7565,-2.7642,-2.7701,-2.8219,-2.8535,-2.87,-2.8865,-2.8975,-2.8997,-2.9082,-2.906,-2.9038,-2.9101,-2.9166,-2.923,-2.9291,-2.9414,-2.9513,-2.9494,-2.9589,-2.97,-1.6874,-1.6965,-1.7123,-1.7245,-1.759,-1.7865,-1.8018,-1.8398,-1.856,-1.8302,-1.8506,-1.856,-1.829,-1.8247,-1.8193,-1.8193,-1.805,-1.8084,-1.8417,-1.7797,-1.7577,-1.7963,-1.7897,-1.7886,-1.7831,-1.7831,-1.8159,-1.8721,-1.8893,-1.8958,-1.8958,-1.904,-1.9093,-1.9146,-1.9239,-1.9331,-1.9344,-1.946,-1.9525,-1.9525,-1.9525,-1.9577,-1.9617,-1.972,-1.9759,-1.9862,-2.0093,-2.0359,-2.0623,-2.0858,-2.1042,-2.1188,-2.1321,-2.1527,-2.1746,-2.1746,-2.1841,-2.1935,-2.1935,-2.1983,-2.1983,-2.2123,-2.217,-2.2217,-2.248,-2.3024,-2.3436,-2.3436,-2.3348,-2.326,-2.326,-2.3172,-2.3113,-2.3246,-2.329,-2.3334,-2.3537,-2.3666,-2.3837,-2.4048,-2.442,-2.4784,-2.502,-2.5329,-2.561,-2.5832,-2.6173,-2.6418,-2.6521,-2.6657,-2.6825,-2.6873,-2.6873,-2.6956,-2.7103,-2.7149,-2.7181,-2.7213,-2.7461,-2.7811,-2.829,-2.8376,-2.846,-2.8603,-2.8707,-2.8767,-2.8767,-2.8821,-2.8868,-2.8868,-2.9003,-2.9071,-2.9097,-2.9148,-2.9212,-2.9293,-1.6306,-1.641,-1.656,-1.6684,-1.6976,-1.7256,-1.7468,-1.7799,-1.7963,-1.7909,-1.7952,-1.7909,-1.7799,-1.7579,-1.7468,-1.7468,-1.7346,-1.7312,-1.7479,-1.7168,-1.709,-1.7256,-1.719,-1.7179,-1.7067,-1.7067,-1.7112,-1.7224,-1.7843,-1.8182,-1.8193,-1.8236,-1.8333,-1.8387,-1.8375,-1.8363,-1.8363,-1.8429,-1.8429,-1.8441,-1.8548,-1.8602,-1.8697,-1.875,-1.8738,-1.8792,-1.9056,-1.9371,-1.9656,-1.985,-1.9991,-2.0131,-2.0333,-2.0547,-2.0759,-2.0871,-2.0957,-2.1006,-2.1104,-2.1202,-2.1251,-2.141,-2.152,-2.1616,-2.1698,-2.2016,-2.2296,-2.2632,-2.2586,-2.2495,-2.2495,-2.2449,-2.2402,-2.2495,-2.254,-2.2678,-2.2799,-2.2889,-2.3068,-2.3421,-2.3852,-2.423,-2.442,-2.4759,-2.5075,-2.5362,-2.5626,-2.5901,-2.6118,-2.626,-2.6365,-2.6453,-2.6487,-2.6556,-2.6607,-2.6742,-2.6825,-2.6825,-2.694,-2.7258,-2.7771,-2.7897,-2.7992,-2.8075,-2.8264,-2.8362,-2.838,-2.844,-2.8518,-2.8569,-2.8644,-2.8718,-2.8839,-2.8897,-2.8943,-2.8984]}]]